<?xml version="1.0" encoding="UTF-8" standalone="no" ?>
<gpx xmlns="http://www.topografix.com/GPX/1/1" xmlns:xsi="http://www.w3.org/2001/XMLSchema-instance" xsi:schemaLocation="http://www.topografix.com/GPX/1/1 http://www.topografix.com/GPX/1/1/gpx.xsd" version="1.1" creator="VisuGPX - https://www.visugpx.com">
  <metadata>
    <name>Roquette - Sophia</name>
    <desc><![CDATA[Roquette - Sophia : repérage velotaf]]></desc>
  </metadata>
  <trk>
    <name><![CDATA[Petit tour]]></name>
    <trkseg>
      <trkpt lat="43.59455" lon="6.95557">
        <ele>128</ele>
        <time>2012-09-16T13:37:58Z</time>
      </trkpt>
      <trkpt lat="43.59479" lon="6.9558">
        <ele>129</ele>
        <time>2012-09-16T13:38:16Z</time>
      </trkpt>
      <trkpt lat="43.59486" lon="6.95597">
        <ele>129</ele>
        <time>2012-09-16T13:38:21Z</time>
      </trkpt>
      <trkpt lat="43.59491" lon="6.95615">
        <ele>129</ele>
        <time>2012-09-16T13:38:26Z</time>
      </trkpt>
      <trkpt lat="43.59498" lon="6.95631">
        <ele>131</ele>
        <time>2012-09-16T13:38:31Z</time>
      </trkpt>
      <trkpt lat="43.59511" lon="6.95635">
        <ele>132</ele>
        <time>2012-09-16T13:38:36Z</time>
      </trkpt>
      <trkpt lat="43.59523" lon="6.9563">
        <ele>133</ele>
        <time>2012-09-16T13:38:41Z</time>
      </trkpt>
      <trkpt lat="43.59536" lon="6.95623">
        <ele>133</ele>
        <time>2012-09-16T13:38:46Z</time>
      </trkpt>
      <trkpt lat="43.59551" lon="6.95619">
        <ele>135</ele>
        <time>2012-09-16T13:38:51Z</time>
      </trkpt>
      <trkpt lat="43.59565" lon="6.95612">
        <ele>137</ele>
        <time>2012-09-16T13:38:56Z</time>
      </trkpt>
      <trkpt lat="43.5958" lon="6.95607">
        <ele>138</ele>
        <time>2012-09-16T13:39:01Z</time>
      </trkpt>
      <trkpt lat="43.59595" lon="6.956">
        <ele>139</ele>
        <time>2012-09-16T13:39:06Z</time>
      </trkpt>
      <trkpt lat="43.5961" lon="6.95593">
        <ele>139</ele>
        <time>2012-09-16T13:39:11Z</time>
      </trkpt>
      <trkpt lat="43.59625" lon="6.95582">
        <ele>139</ele>
        <time>2012-09-16T13:39:16Z</time>
      </trkpt>
      <trkpt lat="43.59636" lon="6.95566">
        <ele>139</ele>
        <time>2012-09-16T13:39:21Z</time>
      </trkpt>
      <trkpt lat="43.59645" lon="6.95547">
        <ele>140</ele>
        <time>2012-09-16T13:39:26Z</time>
      </trkpt>
      <trkpt lat="43.59653" lon="6.95532">
        <ele>140</ele>
        <time>2012-09-16T13:39:31Z</time>
      </trkpt>
      <trkpt lat="43.59665" lon="6.95524">
        <ele>141</ele>
        <time>2012-09-16T13:39:36Z</time>
      </trkpt>
      <trkpt lat="43.59675" lon="6.9552">
        <ele>142</ele>
        <time>2012-09-16T13:39:41Z</time>
      </trkpt>
      <trkpt lat="43.59687" lon="6.95533">
        <ele>143</ele>
        <time>2012-09-16T13:39:46Z</time>
      </trkpt>
      <trkpt lat="43.59704" lon="6.95546">
        <ele>143</ele>
        <time>2012-09-16T13:39:51Z</time>
      </trkpt>
      <trkpt lat="43.5973" lon="6.95554">
        <ele>143</ele>
        <time>2012-09-16T13:39:56Z</time>
      </trkpt>
      <trkpt lat="43.59756" lon="6.95566">
        <ele>143</ele>
        <time>2012-09-16T13:40:01Z</time>
      </trkpt>
      <trkpt lat="43.59777" lon="6.95583">
        <ele>142</ele>
        <time>2012-09-16T13:40:06Z</time>
      </trkpt>
      <trkpt lat="43.59789" lon="6.95595">
        <ele>142</ele>
        <time>2012-09-16T13:40:11Z</time>
      </trkpt>
      <trkpt lat="43.59794" lon="6.95607">
        <ele>142</ele>
        <time>2012-09-16T13:40:16Z</time>
      </trkpt>
      <trkpt lat="43.59798" lon="6.95621">
        <ele>142</ele>
        <time>2012-09-16T13:40:21Z</time>
      </trkpt>
      <trkpt lat="43.59802" lon="6.95633">
        <ele>143</ele>
        <time>2012-09-16T13:40:26Z</time>
      </trkpt>
      <trkpt lat="43.59807" lon="6.95644">
        <ele>144</ele>
        <time>2012-09-16T13:40:31Z</time>
      </trkpt>
      <trkpt lat="43.59806" lon="6.95654">
        <ele>146</ele>
        <time>2012-09-16T13:40:36Z</time>
      </trkpt>
      <trkpt lat="43.59802" lon="6.95662">
        <ele>147</ele>
        <time>2012-09-16T13:40:41Z</time>
      </trkpt>
      <trkpt lat="43.59807" lon="6.95669">
        <ele>149</ele>
        <time>2012-09-16T13:40:47Z</time>
      </trkpt>
      <trkpt lat="43.59811" lon="6.95667">
        <ele>150</ele>
        <time>2012-09-16T13:40:55Z</time>
      </trkpt>
      <trkpt lat="43.59815" lon="6.95668">
        <ele>150</ele>
        <time>2012-09-16T13:41:00Z</time>
      </trkpt>
      <trkpt lat="43.59817" lon="6.95676">
        <ele>150</ele>
        <time>2012-09-16T13:41:05Z</time>
      </trkpt>
      <trkpt lat="43.59819" lon="6.95678">
        <ele>150</ele>
        <time>2012-09-16T13:41:13Z</time>
      </trkpt>
      <trkpt lat="43.59826" lon="6.95672">
        <ele>150</ele>
        <time>2012-09-16T13:41:18Z</time>
      </trkpt>
      <trkpt lat="43.5984" lon="6.95666">
        <ele>150</ele>
        <time>2012-09-16T13:41:24Z</time>
      </trkpt>
      <trkpt lat="43.5985" lon="6.9566">
        <ele>150</ele>
        <time>2012-09-16T13:41:29Z</time>
      </trkpt>
      <trkpt lat="43.59855" lon="6.95664">
        <ele>150</ele>
        <time>2012-09-16T13:41:34Z</time>
      </trkpt>
      <trkpt lat="43.5986" lon="6.95654">
        <ele>150</ele>
        <time>2012-09-16T13:41:39Z</time>
      </trkpt>
      <trkpt lat="43.59872" lon="6.95674">
        <ele>150</ele>
        <time>2012-09-16T13:41:44Z</time>
      </trkpt>
      <trkpt lat="43.59887" lon="6.95689">
        <ele>150</ele>
        <time>2012-09-16T13:41:49Z</time>
      </trkpt>
      <trkpt lat="43.59912" lon="6.95705">
        <ele>150</ele>
        <time>2012-09-16T13:41:54Z</time>
      </trkpt>
      <trkpt lat="43.59945" lon="6.95726">
        <ele>150</ele>
        <time>2012-09-16T13:41:59Z</time>
      </trkpt>
      <trkpt lat="43.59982" lon="6.95755">
        <ele>148</ele>
        <time>2012-09-16T13:42:04Z</time>
      </trkpt>
      <trkpt lat="43.60021" lon="6.95781">
        <ele>147</ele>
        <time>2012-09-16T13:42:09Z</time>
      </trkpt>
      <trkpt lat="43.60055" lon="6.95804">
        <ele>146</ele>
        <time>2012-09-16T13:42:14Z</time>
      </trkpt>
      <trkpt lat="43.60085" lon="6.95824">
        <ele>145</ele>
        <time>2012-09-16T13:42:19Z</time>
      </trkpt>
      <trkpt lat="43.60112" lon="6.95841">
        <ele>145</ele>
        <time>2012-09-16T13:42:24Z</time>
      </trkpt>
      <trkpt lat="43.60137" lon="6.95857">
        <ele>145</ele>
        <time>2012-09-16T13:42:29Z</time>
      </trkpt>
      <trkpt lat="43.6016" lon="6.95872">
        <ele>145</ele>
        <time>2012-09-16T13:42:34Z</time>
      </trkpt>
      <trkpt lat="43.60187" lon="6.9589">
        <ele>145</ele>
        <time>2012-09-16T13:42:39Z</time>
      </trkpt>
      <trkpt lat="43.60216" lon="6.95909">
        <ele>145</ele>
        <time>2012-09-16T13:42:44Z</time>
      </trkpt>
      <trkpt lat="43.60252" lon="6.95932">
        <ele>145</ele>
        <time>2012-09-16T13:42:50Z</time>
      </trkpt>
      <trkpt lat="43.60279" lon="6.9595">
        <ele>143</ele>
        <time>2012-09-16T13:42:55Z</time>
      </trkpt>
      <trkpt lat="43.60305" lon="6.95969">
        <ele>143</ele>
        <time>2012-09-16T13:43:00Z</time>
      </trkpt>
      <trkpt lat="43.60328" lon="6.95988">
        <ele>143</ele>
        <time>2012-09-16T13:43:05Z</time>
      </trkpt>
      <trkpt lat="43.60356" lon="6.96006">
        <ele>143</ele>
        <time>2012-09-16T13:43:11Z</time>
      </trkpt>
      <trkpt lat="43.6038" lon="6.96021">
        <ele>143</ele>
        <time>2012-09-16T13:43:16Z</time>
      </trkpt>
      <trkpt lat="43.60403" lon="6.96037">
        <ele>143</ele>
        <time>2012-09-16T13:43:21Z</time>
      </trkpt>
      <trkpt lat="43.60429" lon="6.96055">
        <ele>143</ele>
        <time>2012-09-16T13:43:26Z</time>
      </trkpt>
      <trkpt lat="43.60458" lon="6.96082">
        <ele>143</ele>
        <time>2012-09-16T13:43:32Z</time>
      </trkpt>
      <trkpt lat="43.6049" lon="6.96105">
        <ele>143</ele>
        <time>2012-09-16T13:43:37Z</time>
      </trkpt>
      <trkpt lat="43.60526" lon="6.96139">
        <ele>143</ele>
        <time>2012-09-16T13:43:42Z</time>
      </trkpt>
      <trkpt lat="43.60576" lon="6.96187">
        <ele>139</ele>
        <time>2012-09-16T13:43:48Z</time>
      </trkpt>
      <trkpt lat="43.60621" lon="6.9623">
        <ele>136</ele>
        <time>2012-09-16T13:43:53Z</time>
      </trkpt>
      <trkpt lat="43.6066" lon="6.96271">
        <ele>133</ele>
        <time>2012-09-16T13:43:58Z</time>
      </trkpt>
      <trkpt lat="43.60689" lon="6.96299">
        <ele>132</ele>
        <time>2012-09-16T13:44:03Z</time>
      </trkpt>
      <trkpt lat="43.6071" lon="6.9632">
        <ele>132</ele>
        <time>2012-09-16T13:44:08Z</time>
      </trkpt>
      <trkpt lat="43.60738" lon="6.96348">
        <ele>132</ele>
        <time>2012-09-16T13:44:14Z</time>
      </trkpt>
      <trkpt lat="43.60765" lon="6.96374">
        <ele>131</ele>
        <time>2012-09-16T13:44:19Z</time>
      </trkpt>
      <trkpt lat="43.60799" lon="6.96408">
        <ele>130</ele>
        <time>2012-09-16T13:44:25Z</time>
      </trkpt>
      <trkpt lat="43.6083" lon="6.96438">
        <ele>128</ele>
        <time>2012-09-16T13:44:30Z</time>
      </trkpt>
      <trkpt lat="43.60858" lon="6.96466">
        <ele>126</ele>
        <time>2012-09-16T13:44:35Z</time>
      </trkpt>
      <trkpt lat="43.60882" lon="6.96491">
        <ele>126</ele>
        <time>2012-09-16T13:44:40Z</time>
      </trkpt>
      <trkpt lat="43.60902" lon="6.96511">
        <ele>126</ele>
        <time>2012-09-16T13:44:45Z</time>
      </trkpt>
      <trkpt lat="43.60921" lon="6.96532">
        <ele>126</ele>
        <time>2012-09-16T13:44:50Z</time>
      </trkpt>
      <trkpt lat="43.60943" lon="6.96553">
        <ele>126</ele>
        <time>2012-09-16T13:44:55Z</time>
      </trkpt>
      <trkpt lat="43.60965" lon="6.96574">
        <ele>126</ele>
        <time>2012-09-16T13:45:00Z</time>
      </trkpt>
      <trkpt lat="43.60986" lon="6.96596">
        <ele>126</ele>
        <time>2012-09-16T13:45:05Z</time>
      </trkpt>
      <trkpt lat="43.61005" lon="6.96615">
        <ele>126</ele>
        <time>2012-09-16T13:45:10Z</time>
      </trkpt>
      <trkpt lat="43.61023" lon="6.96631">
        <ele>126</ele>
        <time>2012-09-16T13:45:15Z</time>
      </trkpt>
      <trkpt lat="43.6104" lon="6.96649">
        <ele>126</ele>
        <time>2012-09-16T13:45:20Z</time>
      </trkpt>
      <trkpt lat="43.61059" lon="6.96669">
        <ele>126</ele>
        <time>2012-09-16T13:45:25Z</time>
      </trkpt>
      <trkpt lat="43.61083" lon="6.96694">
        <ele>126</ele>
        <time>2012-09-16T13:45:30Z</time>
      </trkpt>
      <trkpt lat="43.61111" lon="6.96724">
        <ele>126</ele>
        <time>2012-09-16T13:45:35Z</time>
      </trkpt>
      <trkpt lat="43.61134" lon="6.9676">
        <ele>126</ele>
        <time>2012-09-16T13:45:40Z</time>
      </trkpt>
      <trkpt lat="43.61137" lon="6.96806">
        <ele>125</ele>
        <time>2012-09-16T13:45:45Z</time>
      </trkpt>
      <trkpt lat="43.61149" lon="6.96845">
        <ele>125</ele>
        <time>2012-09-16T13:45:50Z</time>
      </trkpt>
      <trkpt lat="43.61172" lon="6.96865">
        <ele>124</ele>
        <time>2012-09-16T13:45:55Z</time>
      </trkpt>
      <trkpt lat="43.61197" lon="6.96866">
        <ele>124</ele>
        <time>2012-09-16T13:46:00Z</time>
      </trkpt>
      <trkpt lat="43.61222" lon="6.96858">
        <ele>123</ele>
        <time>2012-09-16T13:46:05Z</time>
      </trkpt>
      <trkpt lat="43.61249" lon="6.96871">
        <ele>122</ele>
        <time>2012-09-16T13:46:10Z</time>
      </trkpt>
      <trkpt lat="43.61278" lon="6.96905">
        <ele>121</ele>
        <time>2012-09-16T13:46:15Z</time>
      </trkpt>
      <trkpt lat="43.61314" lon="6.96939">
        <ele>120</ele>
        <time>2012-09-16T13:46:20Z</time>
      </trkpt>
      <trkpt lat="43.61348" lon="6.96971">
        <ele>119</ele>
        <time>2012-09-16T13:46:25Z</time>
      </trkpt>
      <trkpt lat="43.61378" lon="6.97">
        <ele>119</ele>
        <time>2012-09-16T13:46:30Z</time>
      </trkpt>
      <trkpt lat="43.61406" lon="6.97029">
        <ele>119</ele>
        <time>2012-09-16T13:46:35Z</time>
      </trkpt>
      <trkpt lat="43.61432" lon="6.97056">
        <ele>118</ele>
        <time>2012-09-16T13:46:40Z</time>
      </trkpt>
      <trkpt lat="43.61456" lon="6.97081">
        <ele>118</ele>
        <time>2012-09-16T13:46:45Z</time>
      </trkpt>
      <trkpt lat="43.61478" lon="6.97105">
        <ele>118</ele>
        <time>2012-09-16T13:46:50Z</time>
      </trkpt>
      <trkpt lat="43.61498" lon="6.97128">
        <ele>118</ele>
        <time>2012-09-16T13:46:55Z</time>
      </trkpt>
      <trkpt lat="43.61516" lon="6.97149">
        <ele>118</ele>
        <time>2012-09-16T13:47:00Z</time>
      </trkpt>
      <trkpt lat="43.61533" lon="6.97169">
        <ele>118</ele>
        <time>2012-09-16T13:47:05Z</time>
      </trkpt>
      <trkpt lat="43.61549" lon="6.97192">
        <ele>118</ele>
        <time>2012-09-16T13:47:10Z</time>
      </trkpt>
      <trkpt lat="43.61564" lon="6.97215">
        <ele>118</ele>
        <time>2012-09-16T13:47:15Z</time>
      </trkpt>
      <trkpt lat="43.61578" lon="6.97237">
        <ele>118</ele>
        <time>2012-09-16T13:47:20Z</time>
      </trkpt>
      <trkpt lat="43.61591" lon="6.97258">
        <ele>119</ele>
        <time>2012-09-16T13:47:25Z</time>
      </trkpt>
      <trkpt lat="43.61605" lon="6.97279">
        <ele>119</ele>
        <time>2012-09-16T13:47:30Z</time>
      </trkpt>
      <trkpt lat="43.61618" lon="6.973">
        <ele>119</ele>
        <time>2012-09-16T13:47:35Z</time>
      </trkpt>
      <trkpt lat="43.61629" lon="6.9732">
        <ele>119</ele>
        <time>2012-09-16T13:47:40Z</time>
      </trkpt>
      <trkpt lat="43.6164" lon="6.97342">
        <ele>120</ele>
        <time>2012-09-16T13:47:45Z</time>
      </trkpt>
      <trkpt lat="43.61637" lon="6.97368">
        <ele>121</ele>
        <time>2012-09-16T13:47:50Z</time>
      </trkpt>
      <trkpt lat="43.6162" lon="6.97387">
        <ele>122</ele>
        <time>2012-09-16T13:47:55Z</time>
      </trkpt>
      <trkpt lat="43.61604" lon="6.97409">
        <ele>124</ele>
        <time>2012-09-16T13:48:00Z</time>
      </trkpt>
      <trkpt lat="43.61584" lon="6.97425">
        <ele>125</ele>
        <time>2012-09-16T13:48:05Z</time>
      </trkpt>
      <trkpt lat="43.61564" lon="6.9744">
        <ele>125</ele>
        <time>2012-09-16T13:48:10Z</time>
      </trkpt>
      <trkpt lat="43.61543" lon="6.97455">
        <ele>125</ele>
        <time>2012-09-16T13:48:15Z</time>
      </trkpt>
      <trkpt lat="43.61523" lon="6.9747">
        <ele>125</ele>
        <time>2012-09-16T13:48:20Z</time>
      </trkpt>
      <trkpt lat="43.61503" lon="6.97484">
        <ele>125</ele>
        <time>2012-09-16T13:48:25Z</time>
      </trkpt>
      <trkpt lat="43.61482" lon="6.97502">
        <ele>125</ele>
        <time>2012-09-16T13:48:30Z</time>
      </trkpt>
      <trkpt lat="43.6146" lon="6.97517">
        <ele>125</ele>
        <time>2012-09-16T13:48:35Z</time>
      </trkpt>
      <trkpt lat="43.61436" lon="6.97534">
        <ele>125</ele>
        <time>2012-09-16T13:48:40Z</time>
      </trkpt>
      <trkpt lat="43.61412" lon="6.97552">
        <ele>125</ele>
        <time>2012-09-16T13:48:45Z</time>
      </trkpt>
      <trkpt lat="43.61386" lon="6.9757">
        <ele>125</ele>
        <time>2012-09-16T13:48:50Z</time>
      </trkpt>
      <trkpt lat="43.61358" lon="6.97585">
        <ele>125</ele>
        <time>2012-09-16T13:48:55Z</time>
      </trkpt>
      <trkpt lat="43.61328" lon="6.97599">
        <ele>125</ele>
        <time>2012-09-16T13:49:00Z</time>
      </trkpt>
      <trkpt lat="43.61321" lon="6.97634">
        <ele>125</ele>
        <time>2012-09-16T13:49:05Z</time>
      </trkpt>
      <trkpt lat="43.6131" lon="6.97665">
        <ele>123</ele>
        <time>2012-09-16T13:49:10Z</time>
      </trkpt>
      <trkpt lat="43.61277" lon="6.97671">
        <ele>122</ele>
        <time>2012-09-16T13:49:15Z</time>
      </trkpt>
      <trkpt lat="43.61256" lon="6.97706">
        <ele>121</ele>
        <time>2012-09-16T13:49:20Z</time>
      </trkpt>
      <trkpt lat="43.61251" lon="6.97744">
        <ele>120</ele>
        <time>2012-09-16T13:49:25Z</time>
      </trkpt>
      <trkpt lat="43.61248" lon="6.97775">
        <ele>120</ele>
        <time>2012-09-16T13:49:30Z</time>
      </trkpt>
      <trkpt lat="43.61245" lon="6.978">
        <ele>120</ele>
        <time>2012-09-16T13:49:35Z</time>
      </trkpt>
      <trkpt lat="43.61242" lon="6.97823">
        <ele>120</ele>
        <time>2012-09-16T13:49:40Z</time>
      </trkpt>
      <trkpt lat="43.6124" lon="6.97843">
        <ele>120</ele>
        <time>2012-09-16T13:49:45Z</time>
      </trkpt>
      <trkpt lat="43.61238" lon="6.97864">
        <ele>121</ele>
        <time>2012-09-16T13:49:50Z</time>
      </trkpt>
      <trkpt lat="43.61236" lon="6.97885">
        <ele>123</ele>
        <time>2012-09-16T13:49:55Z</time>
      </trkpt>
      <trkpt lat="43.61237" lon="6.97905">
        <ele>124</ele>
        <time>2012-09-16T13:50:00Z</time>
      </trkpt>
      <trkpt lat="43.61241" lon="6.97922">
        <ele>125</ele>
        <time>2012-09-16T13:50:05Z</time>
      </trkpt>
      <trkpt lat="43.61244" lon="6.97939">
        <ele>125</ele>
        <time>2012-09-16T13:50:10Z</time>
      </trkpt>
      <trkpt lat="43.61246" lon="6.97956">
        <ele>125</ele>
        <time>2012-09-16T13:50:15Z</time>
      </trkpt>
      <trkpt lat="43.61249" lon="6.97972">
        <ele>125</ele>
        <time>2012-09-16T13:50:20Z</time>
      </trkpt>
      <trkpt lat="43.61252" lon="6.97989">
        <ele>125</ele>
        <time>2012-09-16T13:50:25Z</time>
      </trkpt>
      <trkpt lat="43.61255" lon="6.98005">
        <ele>126</ele>
        <time>2012-09-16T13:50:30Z</time>
      </trkpt>
      <trkpt lat="43.61257" lon="6.9802">
        <ele>127</ele>
        <time>2012-09-16T13:50:35Z</time>
      </trkpt>
      <trkpt lat="43.6126" lon="6.98034">
        <ele>128</ele>
        <time>2012-09-16T13:50:40Z</time>
      </trkpt>
      <trkpt lat="43.61263" lon="6.98049">
        <ele>130</ele>
        <time>2012-09-16T13:50:45Z</time>
      </trkpt>
      <trkpt lat="43.61265" lon="6.98063">
        <ele>131</ele>
        <time>2012-09-16T13:50:50Z</time>
      </trkpt>
      <trkpt lat="43.61268" lon="6.98077">
        <ele>132</ele>
        <time>2012-09-16T13:50:55Z</time>
      </trkpt>
      <trkpt lat="43.61271" lon="6.9809">
        <ele>132</ele>
        <time>2012-09-16T13:51:00Z</time>
      </trkpt>
      <trkpt lat="43.61274" lon="6.98103">
        <ele>134</ele>
        <time>2012-09-16T13:51:05Z</time>
      </trkpt>
      <trkpt lat="43.61276" lon="6.98115">
        <ele>136</ele>
        <time>2012-09-16T13:51:10Z</time>
      </trkpt>
      <trkpt lat="43.6128" lon="6.98126">
        <ele>136</ele>
        <time>2012-09-16T13:51:15Z</time>
      </trkpt>
      <trkpt lat="43.61282" lon="6.98137">
        <ele>137</ele>
        <time>2012-09-16T13:51:20Z</time>
      </trkpt>
      <trkpt lat="43.61284" lon="6.98148">
        <ele>139</ele>
        <time>2012-09-16T13:51:25Z</time>
      </trkpt>
      <trkpt lat="43.61285" lon="6.98159">
        <ele>140</ele>
        <time>2012-09-16T13:51:30Z</time>
      </trkpt>
      <trkpt lat="43.61287" lon="6.98171">
        <ele>142</ele>
        <time>2012-09-16T13:51:35Z</time>
      </trkpt>
      <trkpt lat="43.61288" lon="6.98181">
        <ele>143</ele>
        <time>2012-09-16T13:51:40Z</time>
      </trkpt>
      <trkpt lat="43.6129" lon="6.98191">
        <ele>144</ele>
        <time>2012-09-16T13:51:45Z</time>
      </trkpt>
      <trkpt lat="43.61292" lon="6.982">
        <ele>145</ele>
        <time>2012-09-16T13:51:50Z</time>
      </trkpt>
      <trkpt lat="43.61293" lon="6.98209">
        <ele>146</ele>
        <time>2012-09-16T13:51:55Z</time>
      </trkpt>
      <trkpt lat="43.61296" lon="6.98217">
        <ele>147</ele>
        <time>2012-09-16T13:52:00Z</time>
      </trkpt>
      <trkpt lat="43.61298" lon="6.98226">
        <ele>148</ele>
        <time>2012-09-16T13:52:05Z</time>
      </trkpt>
      <trkpt lat="43.61297" lon="6.98235">
        <ele>149</ele>
        <time>2012-09-16T13:52:10Z</time>
      </trkpt>
      <trkpt lat="43.61299" lon="6.98243">
        <ele>151</ele>
        <time>2012-09-16T13:52:15Z</time>
      </trkpt>
      <trkpt lat="43.613" lon="6.98251">
        <ele>153</ele>
        <time>2012-09-16T13:52:20Z</time>
      </trkpt>
      <trkpt lat="43.61302" lon="6.98257">
        <ele>155</ele>
        <time>2012-09-16T13:52:25Z</time>
      </trkpt>
      <trkpt lat="43.61303" lon="6.98265">
        <ele>156</ele>
        <time>2012-09-16T13:52:30Z</time>
      </trkpt>
      <trkpt lat="43.61306" lon="6.98271">
        <ele>158</ele>
        <time>2012-09-16T13:52:35Z</time>
      </trkpt>
      <trkpt lat="43.61305" lon="6.98276">
        <ele>159</ele>
        <time>2012-09-16T13:52:41Z</time>
      </trkpt>
      <trkpt lat="43.61307" lon="6.98282">
        <ele>161</ele>
        <time>2012-09-16T13:52:46Z</time>
      </trkpt>
      <trkpt lat="43.61309" lon="6.98288">
        <ele>163</ele>
        <time>2012-09-16T13:52:52Z</time>
      </trkpt>
      <trkpt lat="43.6131" lon="6.98294">
        <ele>165</ele>
        <time>2012-09-16T13:52:58Z</time>
      </trkpt>
      <trkpt lat="43.61311" lon="6.98301">
        <ele>166</ele>
        <time>2012-09-16T13:53:04Z</time>
      </trkpt>
      <trkpt lat="43.61311" lon="6.98307">
        <ele>168</ele>
        <time>2012-09-16T13:53:10Z</time>
      </trkpt>
      <trkpt lat="43.61313" lon="6.98315">
        <ele>169</ele>
        <time>2012-09-16T13:53:16Z</time>
      </trkpt>
      <trkpt lat="43.61315" lon="6.98321">
        <ele>170</ele>
        <time>2012-09-16T13:53:21Z</time>
      </trkpt>
      <trkpt lat="43.61317" lon="6.98329">
        <ele>172</ele>
        <time>2012-09-16T13:53:27Z</time>
      </trkpt>
      <trkpt lat="43.61319" lon="6.98335">
        <ele>173</ele>
        <time>2012-09-16T13:53:33Z</time>
      </trkpt>
      <trkpt lat="43.61321" lon="6.9834">
        <ele>174</ele>
        <time>2012-09-16T13:53:39Z</time>
      </trkpt>
      <trkpt lat="43.61323" lon="6.98343">
        <ele>175</ele>
        <time>2012-09-16T13:53:44Z</time>
      </trkpt>
      <trkpt lat="43.61326" lon="6.98348">
        <ele>177</ele>
        <time>2012-09-16T13:53:51Z</time>
      </trkpt>
      <trkpt lat="43.61328" lon="6.98352">
        <ele>178</ele>
        <time>2012-09-16T13:53:56Z</time>
      </trkpt>
      <trkpt lat="43.61331" lon="6.98357">
        <ele>179</ele>
        <time>2012-09-16T13:54:02Z</time>
      </trkpt>
      <trkpt lat="43.61333" lon="6.98361">
        <ele>180</ele>
        <time>2012-09-16T13:54:07Z</time>
      </trkpt>
      <trkpt lat="43.61334" lon="6.98366">
        <ele>181</ele>
        <time>2012-09-16T13:54:13Z</time>
      </trkpt>
      <trkpt lat="43.61332" lon="6.98375">
        <ele>181</ele>
        <time>2012-09-16T13:54:18Z</time>
      </trkpt>
      <trkpt lat="43.61329" lon="6.9839">
        <ele>181</ele>
        <time>2012-09-16T13:54:23Z</time>
      </trkpt>
      <trkpt lat="43.61329" lon="6.98404">
        <ele>181</ele>
        <time>2012-09-16T13:54:28Z</time>
      </trkpt>
      <trkpt lat="43.61332" lon="6.98413">
        <ele>181</ele>
        <time>2012-09-16T13:54:33Z</time>
      </trkpt>
      <trkpt lat="43.61333" lon="6.98425">
        <ele>181</ele>
        <time>2012-09-16T13:54:38Z</time>
      </trkpt>
      <trkpt lat="43.61334" lon="6.98437">
        <ele>181</ele>
        <time>2012-09-16T13:54:43Z</time>
      </trkpt>
      <trkpt lat="43.61332" lon="6.98447">
        <ele>181</ele>
        <time>2012-09-16T13:54:48Z</time>
      </trkpt>
      <trkpt lat="43.61335" lon="6.9847">
        <ele>181</ele>
        <time>2012-09-16T13:54:53Z</time>
      </trkpt>
      <trkpt lat="43.61337" lon="6.98491">
        <ele>181</ele>
        <time>2012-09-16T13:54:58Z</time>
      </trkpt>
      <trkpt lat="43.61335" lon="6.98507">
        <ele>181</ele>
        <time>2012-09-16T13:55:03Z</time>
      </trkpt>
      <trkpt lat="43.61335" lon="6.98529">
        <ele>181</ele>
        <time>2012-09-16T13:55:08Z</time>
      </trkpt>
      <trkpt lat="43.61337" lon="6.98552">
        <ele>181</ele>
        <time>2012-09-16T13:55:13Z</time>
      </trkpt>
      <trkpt lat="43.6134" lon="6.98572">
        <ele>181</ele>
        <time>2012-09-16T13:55:18Z</time>
      </trkpt>
      <trkpt lat="43.61347" lon="6.98593">
        <ele>181</ele>
        <time>2012-09-16T13:55:23Z</time>
      </trkpt>
      <trkpt lat="43.61353" lon="6.98614">
        <ele>181</ele>
        <time>2012-09-16T13:55:28Z</time>
      </trkpt>
      <trkpt lat="43.61352" lon="6.98639">
        <ele>181</ele>
        <time>2012-09-16T13:55:33Z</time>
      </trkpt>
      <trkpt lat="43.61351" lon="6.98664">
        <ele>181</ele>
        <time>2012-09-16T13:55:38Z</time>
      </trkpt>
      <trkpt lat="43.61352" lon="6.98688">
        <ele>181</ele>
        <time>2012-09-16T13:55:43Z</time>
      </trkpt>
      <trkpt lat="43.61357" lon="6.9871">
        <ele>181</ele>
        <time>2012-09-16T13:55:48Z</time>
      </trkpt>
      <trkpt lat="43.61357" lon="6.98727">
        <ele>180</ele>
        <time>2012-09-16T13:55:53Z</time>
      </trkpt>
      <trkpt lat="43.61354" lon="6.98748">
        <ele>178</ele>
        <time>2012-09-16T13:55:58Z</time>
      </trkpt>
      <trkpt lat="43.6135" lon="6.98772">
        <ele>178</ele>
        <time>2012-09-16T13:56:03Z</time>
      </trkpt>
      <trkpt lat="43.61345" lon="6.98797">
        <ele>178</ele>
        <time>2012-09-16T13:56:08Z</time>
      </trkpt>
      <trkpt lat="43.61334" lon="6.98817">
        <ele>178</ele>
        <time>2012-09-16T13:56:13Z</time>
      </trkpt>
      <trkpt lat="43.61321" lon="6.98834">
        <ele>178</ele>
        <time>2012-09-16T13:56:18Z</time>
      </trkpt>
      <trkpt lat="43.61313" lon="6.98851">
        <ele>178</ele>
        <time>2012-09-16T13:56:23Z</time>
      </trkpt>
      <trkpt lat="43.61306" lon="6.98874">
        <ele>178</ele>
        <time>2012-09-16T13:56:28Z</time>
      </trkpt>
      <trkpt lat="43.61291" lon="6.98887">
        <ele>178</ele>
        <time>2012-09-16T13:56:33Z</time>
      </trkpt>
      <trkpt lat="43.61272" lon="6.98889">
        <ele>178</ele>
        <time>2012-09-16T13:56:38Z</time>
      </trkpt>
      <trkpt lat="43.61253" lon="6.98892">
        <ele>178</ele>
        <time>2012-09-16T13:56:43Z</time>
      </trkpt>
      <trkpt lat="43.61238" lon="6.98902">
        <ele>177</ele>
        <time>2012-09-16T13:56:48Z</time>
      </trkpt>
      <trkpt lat="43.61224" lon="6.98908">
        <ele>177</ele>
        <time>2012-09-16T13:56:53Z</time>
      </trkpt>
      <trkpt lat="43.61219" lon="6.98897">
        <ele>177</ele>
        <time>2012-09-16T13:56:58Z</time>
      </trkpt>
      <trkpt lat="43.61218" lon="6.98876">
        <ele>177</ele>
        <time>2012-09-16T13:57:03Z</time>
      </trkpt>
      <trkpt lat="43.61222" lon="6.98853">
        <ele>177</ele>
        <time>2012-09-16T13:57:08Z</time>
      </trkpt>
      <trkpt lat="43.61219" lon="6.9883">
        <ele>177</ele>
        <time>2012-09-16T13:57:13Z</time>
      </trkpt>
      <trkpt lat="43.61212" lon="6.9881">
        <ele>177</ele>
        <time>2012-09-16T13:57:18Z</time>
      </trkpt>
      <trkpt lat="43.61201" lon="6.98795">
        <ele>177</ele>
        <time>2012-09-16T13:57:23Z</time>
      </trkpt>
      <trkpt lat="43.61192" lon="6.98783">
        <ele>177</ele>
        <time>2012-09-16T13:57:28Z</time>
      </trkpt>
      <trkpt lat="43.61182" lon="6.98771">
        <ele>177</ele>
        <time>2012-09-16T13:57:33Z</time>
      </trkpt>
      <trkpt lat="43.61174" lon="6.98762">
        <ele>177</ele>
        <time>2012-09-16T13:57:38Z</time>
      </trkpt>
      <trkpt lat="43.61165" lon="6.98752">
        <ele>177</ele>
        <time>2012-09-16T13:57:43Z</time>
      </trkpt>
      <trkpt lat="43.6115" lon="6.98737">
        <ele>177</ele>
        <time>2012-09-16T13:57:48Z</time>
      </trkpt>
      <trkpt lat="43.61134" lon="6.98719">
        <ele>178</ele>
        <time>2012-09-16T13:57:53Z</time>
      </trkpt>
      <trkpt lat="43.61119" lon="6.98704">
        <ele>179</ele>
        <time>2012-09-16T13:57:58Z</time>
      </trkpt>
      <trkpt lat="43.61103" lon="6.98691">
        <ele>179</ele>
        <time>2012-09-16T13:58:03Z</time>
      </trkpt>
      <trkpt lat="43.61091" lon="6.98683">
        <ele>179</ele>
        <time>2012-09-16T13:58:08Z</time>
      </trkpt>
      <trkpt lat="43.61076" lon="6.98685">
        <ele>179</ele>
        <time>2012-09-16T13:58:13Z</time>
      </trkpt>
      <trkpt lat="43.61063" lon="6.98698">
        <ele>179</ele>
        <time>2012-09-16T13:58:18Z</time>
      </trkpt>
      <trkpt lat="43.61049" lon="6.987">
        <ele>179</ele>
        <time>2012-09-16T13:58:23Z</time>
      </trkpt>
      <trkpt lat="43.61033" lon="6.98689">
        <ele>179</ele>
        <time>2012-09-16T13:58:28Z</time>
      </trkpt>
      <trkpt lat="43.61018" lon="6.98681">
        <ele>179</ele>
        <time>2012-09-16T13:58:33Z</time>
      </trkpt>
      <trkpt lat="43.61002" lon="6.98672">
        <ele>179</ele>
        <time>2012-09-16T13:58:38Z</time>
      </trkpt>
      <trkpt lat="43.60983" lon="6.98666">
        <ele>179</ele>
        <time>2012-09-16T13:58:43Z</time>
      </trkpt>
      <trkpt lat="43.60965" lon="6.98667">
        <ele>179</ele>
        <time>2012-09-16T13:58:48Z</time>
      </trkpt>
      <trkpt lat="43.6095" lon="6.98675">
        <ele>179</ele>
        <time>2012-09-16T13:58:53Z</time>
      </trkpt>
      <trkpt lat="43.60933" lon="6.98687">
        <ele>179</ele>
        <time>2012-09-16T13:58:58Z</time>
      </trkpt>
      <trkpt lat="43.60917" lon="6.98697">
        <ele>179</ele>
        <time>2012-09-16T13:59:03Z</time>
      </trkpt>
      <trkpt lat="43.60898" lon="6.98706">
        <ele>179</ele>
        <time>2012-09-16T13:59:08Z</time>
      </trkpt>
      <trkpt lat="43.60881" lon="6.98714">
        <ele>179</ele>
        <time>2012-09-16T13:59:13Z</time>
      </trkpt>
      <trkpt lat="43.60863" lon="6.98723">
        <ele>179</ele>
        <time>2012-09-16T13:59:18Z</time>
      </trkpt>
      <trkpt lat="43.60849" lon="6.9873">
        <ele>179</ele>
        <time>2012-09-16T13:59:23Z</time>
      </trkpt>
      <trkpt lat="43.60838" lon="6.98745">
        <ele>179</ele>
        <time>2012-09-16T13:59:28Z</time>
      </trkpt>
      <trkpt lat="43.6084" lon="6.98764">
        <ele>176</ele>
        <time>2012-09-16T13:59:33Z</time>
      </trkpt>
      <trkpt lat="43.60851" lon="6.9878">
        <ele>174</ele>
        <time>2012-09-16T13:59:38Z</time>
      </trkpt>
      <trkpt lat="43.60865" lon="6.98794">
        <ele>174</ele>
        <time>2012-09-16T13:59:43Z</time>
      </trkpt>
      <trkpt lat="43.6088" lon="6.98815">
        <ele>174</ele>
        <time>2012-09-16T13:59:48Z</time>
      </trkpt>
      <trkpt lat="43.60888" lon="6.98841">
        <ele>172</ele>
        <time>2012-09-16T13:59:53Z</time>
      </trkpt>
      <trkpt lat="43.60886" lon="6.98866">
        <ele>172</ele>
        <time>2012-09-16T13:59:58Z</time>
      </trkpt>
      <trkpt lat="43.60882" lon="6.98891">
        <ele>172</ele>
        <time>2012-09-16T14:00:03Z</time>
      </trkpt>
      <trkpt lat="43.60877" lon="6.98914">
        <ele>172</ele>
        <time>2012-09-16T14:00:08Z</time>
      </trkpt>
      <trkpt lat="43.60871" lon="6.98935">
        <ele>172</ele>
        <time>2012-09-16T14:00:13Z</time>
      </trkpt>
      <trkpt lat="43.60863" lon="6.98957">
        <ele>172</ele>
        <time>2012-09-16T14:00:18Z</time>
      </trkpt>
      <trkpt lat="43.60854" lon="6.98981">
        <ele>172</ele>
        <time>2012-09-16T14:00:23Z</time>
      </trkpt>
      <trkpt lat="43.60847" lon="6.99007">
        <ele>172</ele>
        <time>2012-09-16T14:00:28Z</time>
      </trkpt>
      <trkpt lat="43.60839" lon="6.99028">
        <ele>173</ele>
        <time>2012-09-16T14:00:33Z</time>
      </trkpt>
      <trkpt lat="43.60829" lon="6.99051">
        <ele>174</ele>
        <time>2012-09-16T14:00:38Z</time>
      </trkpt>
      <trkpt lat="43.60817" lon="6.99068">
        <ele>175</ele>
        <time>2012-09-16T14:00:43Z</time>
      </trkpt>
      <trkpt lat="43.60804" lon="6.99083">
        <ele>175</ele>
        <time>2012-09-16T14:00:48Z</time>
      </trkpt>
      <trkpt lat="43.60794" lon="6.99095">
        <ele>175</ele>
        <time>2012-09-16T14:00:53Z</time>
      </trkpt>
      <trkpt lat="43.60789" lon="6.99104">
        <ele>175</ele>
        <time>2012-09-16T14:00:59Z</time>
      </trkpt>
      <trkpt lat="43.60788" lon="6.99106">
        <ele>175</ele>
        <time>2012-09-16T14:01:05Z</time>
      </trkpt>
      <trkpt lat="43.60786" lon="6.99113">
        <ele>175</ele>
        <time>2012-09-16T14:01:10Z</time>
      </trkpt>
      <trkpt lat="43.6078" lon="6.99119">
        <ele>175</ele>
        <time>2012-09-16T14:01:15Z</time>
      </trkpt>
      <trkpt lat="43.60769" lon="6.99124">
        <ele>177</ele>
        <time>2012-09-16T14:01:20Z</time>
      </trkpt>
      <trkpt lat="43.60759" lon="6.99131">
        <ele>180</ele>
        <time>2012-09-16T14:01:25Z</time>
      </trkpt>
      <trkpt lat="43.60749" lon="6.9914">
        <ele>181</ele>
        <time>2012-09-16T14:01:30Z</time>
      </trkpt>
      <trkpt lat="43.60739" lon="6.99149">
        <ele>183</ele>
        <time>2012-09-16T14:01:35Z</time>
      </trkpt>
      <trkpt lat="43.60729" lon="6.99161">
        <ele>184</ele>
        <time>2012-09-16T14:01:40Z</time>
      </trkpt>
      <trkpt lat="43.60717" lon="6.99175">
        <ele>184</ele>
        <time>2012-09-16T14:01:45Z</time>
      </trkpt>
      <trkpt lat="43.60704" lon="6.9919">
        <ele>185</ele>
        <time>2012-09-16T14:01:50Z</time>
      </trkpt>
      <trkpt lat="43.60692" lon="6.992">
        <ele>185</ele>
        <time>2012-09-16T14:01:55Z</time>
      </trkpt>
      <trkpt lat="43.60677" lon="6.9921">
        <ele>185</ele>
        <time>2012-09-16T14:02:00Z</time>
      </trkpt>
      <trkpt lat="43.60665" lon="6.99221">
        <ele>185</ele>
        <time>2012-09-16T14:02:05Z</time>
      </trkpt>
      <trkpt lat="43.60674" lon="6.99216">
        <ele>185</ele>
        <time>2012-09-16T14:02:10Z</time>
      </trkpt>
      <trkpt lat="43.60687" lon="6.99201">
        <ele>185</ele>
        <time>2012-09-16T14:02:15Z</time>
      </trkpt>
      <trkpt lat="43.60702" lon="6.9919">
        <ele>185</ele>
        <time>2012-09-16T14:02:20Z</time>
      </trkpt>
      <trkpt lat="43.60719" lon="6.99173">
        <ele>185</ele>
        <time>2012-09-16T14:02:25Z</time>
      </trkpt>
      <trkpt lat="43.60735" lon="6.99156">
        <ele>185</ele>
        <time>2012-09-16T14:02:30Z</time>
      </trkpt>
      <trkpt lat="43.6075" lon="6.99141">
        <ele>185</ele>
        <time>2012-09-16T14:02:35Z</time>
      </trkpt>
      <trkpt lat="43.60775" lon="6.99123">
        <ele>185</ele>
        <time>2012-09-16T14:02:40Z</time>
      </trkpt>
      <trkpt lat="43.60797" lon="6.99122">
        <ele>185</ele>
        <time>2012-09-16T14:02:45Z</time>
      </trkpt>
      <trkpt lat="43.60808" lon="6.99135">
        <ele>184</ele>
        <time>2012-09-16T14:02:50Z</time>
      </trkpt>
      <trkpt lat="43.6082" lon="6.99144">
        <ele>182</ele>
        <time>2012-09-16T14:02:55Z</time>
      </trkpt>
      <trkpt lat="43.60831" lon="6.99148">
        <ele>182</ele>
        <time>2012-09-16T14:03:00Z</time>
      </trkpt>
      <trkpt lat="43.60846" lon="6.99152">
        <ele>182</ele>
        <time>2012-09-16T14:03:05Z</time>
      </trkpt>
      <trkpt lat="43.6086" lon="6.99157">
        <ele>182</ele>
        <time>2012-09-16T14:03:10Z</time>
      </trkpt>
      <trkpt lat="43.60874" lon="6.9916">
        <ele>182</ele>
        <time>2012-09-16T14:03:15Z</time>
      </trkpt>
      <trkpt lat="43.60889" lon="6.99163">
        <ele>182</ele>
        <time>2012-09-16T14:03:20Z</time>
      </trkpt>
      <trkpt lat="43.60903" lon="6.99165">
        <ele>182</ele>
        <time>2012-09-16T14:03:25Z</time>
      </trkpt>
      <trkpt lat="43.60917" lon="6.99169">
        <ele>182</ele>
        <time>2012-09-16T14:03:30Z</time>
      </trkpt>
      <trkpt lat="43.60932" lon="6.99172">
        <ele>182</ele>
        <time>2012-09-16T14:03:35Z</time>
      </trkpt>
      <trkpt lat="43.60947" lon="6.99176">
        <ele>182</ele>
        <time>2012-09-16T14:03:40Z</time>
      </trkpt>
      <trkpt lat="43.6096" lon="6.9918">
        <ele>182</ele>
        <time>2012-09-16T14:03:45Z</time>
      </trkpt>
      <trkpt lat="43.60973" lon="6.99186">
        <ele>182</ele>
        <time>2012-09-16T14:03:50Z</time>
      </trkpt>
      <trkpt lat="43.60985" lon="6.99191">
        <ele>182</ele>
        <time>2012-09-16T14:03:55Z</time>
      </trkpt>
      <trkpt lat="43.60996" lon="6.99194">
        <ele>182</ele>
        <time>2012-09-16T14:04:00Z</time>
      </trkpt>
      <trkpt lat="43.61005" lon="6.99198">
        <ele>182</ele>
        <time>2012-09-16T14:04:05Z</time>
      </trkpt>
      <trkpt lat="43.61014" lon="6.99203">
        <ele>182</ele>
        <time>2012-09-16T14:04:10Z</time>
      </trkpt>
      <trkpt lat="43.61021" lon="6.99211">
        <ele>182</ele>
        <time>2012-09-16T14:04:15Z</time>
      </trkpt>
      <trkpt lat="43.61028" lon="6.99218">
        <ele>185</ele>
        <time>2012-09-16T14:04:20Z</time>
      </trkpt>
      <trkpt lat="43.61035" lon="6.9922">
        <ele>188</ele>
        <time>2012-09-16T14:04:25Z</time>
      </trkpt>
      <trkpt lat="43.61042" lon="6.99217">
        <ele>190</ele>
        <time>2012-09-16T14:04:30Z</time>
      </trkpt>
      <trkpt lat="43.61049" lon="6.99216">
        <ele>193</ele>
        <time>2012-09-16T14:04:35Z</time>
      </trkpt>
      <trkpt lat="43.61057" lon="6.99215">
        <ele>194</ele>
        <time>2012-09-16T14:04:40Z</time>
      </trkpt>
      <trkpt lat="43.61065" lon="6.99215">
        <ele>197</ele>
        <time>2012-09-16T14:04:45Z</time>
      </trkpt>
      <trkpt lat="43.61074" lon="6.99216">
        <ele>201</ele>
        <time>2012-09-16T14:04:50Z</time>
      </trkpt>
      <trkpt lat="43.61082" lon="6.99217">
        <ele>201</ele>
        <time>2012-09-16T14:04:55Z</time>
      </trkpt>
      <trkpt lat="43.6109" lon="6.99218">
        <ele>202</ele>
        <time>2012-09-16T14:05:00Z</time>
      </trkpt>
      <trkpt lat="43.61097" lon="6.99221">
        <ele>205</ele>
        <time>2012-09-16T14:05:05Z</time>
      </trkpt>
      <trkpt lat="43.61105" lon="6.99221">
        <ele>207</ele>
        <time>2012-09-16T14:05:10Z</time>
      </trkpt>
      <trkpt lat="43.61111" lon="6.99221">
        <ele>208</ele>
        <time>2012-09-16T14:05:16Z</time>
      </trkpt>
      <trkpt lat="43.61115" lon="6.9923">
        <ele>208</ele>
        <time>2012-09-16T14:05:21Z</time>
      </trkpt>
      <trkpt lat="43.61119" lon="6.99239">
        <ele>208</ele>
        <time>2012-09-16T14:05:26Z</time>
      </trkpt>
      <trkpt lat="43.61124" lon="6.99249">
        <ele>208</ele>
        <time>2012-09-16T14:05:31Z</time>
      </trkpt>
      <trkpt lat="43.61131" lon="6.99258">
        <ele>208</ele>
        <time>2012-09-16T14:05:36Z</time>
      </trkpt>
      <trkpt lat="43.61137" lon="6.99269">
        <ele>208</ele>
        <time>2012-09-16T14:05:41Z</time>
      </trkpt>
      <trkpt lat="43.61145" lon="6.99279">
        <ele>208</ele>
        <time>2012-09-16T14:05:46Z</time>
      </trkpt>
      <trkpt lat="43.61153" lon="6.99288">
        <ele>208</ele>
        <time>2012-09-16T14:05:51Z</time>
      </trkpt>
      <trkpt lat="43.61162" lon="6.99293">
        <ele>208</ele>
        <time>2012-09-16T14:05:56Z</time>
      </trkpt>
      <trkpt lat="43.61171" lon="6.99297">
        <ele>208</ele>
        <time>2012-09-16T14:06:01Z</time>
      </trkpt>
      <trkpt lat="43.61179" lon="6.993">
        <ele>208</ele>
        <time>2012-09-16T14:06:06Z</time>
      </trkpt>
      <trkpt lat="43.61188" lon="6.99304">
        <ele>209</ele>
        <time>2012-09-16T14:06:11Z</time>
      </trkpt>
      <trkpt lat="43.61195" lon="6.99311">
        <ele>210</ele>
        <time>2012-09-16T14:06:16Z</time>
      </trkpt>
      <trkpt lat="43.61202" lon="6.99315">
        <ele>211</ele>
        <time>2012-09-16T14:06:21Z</time>
      </trkpt>
      <trkpt lat="43.61207" lon="6.99324">
        <ele>213</ele>
        <time>2012-09-16T14:06:26Z</time>
      </trkpt>
      <trkpt lat="43.6121" lon="6.99333">
        <ele>215</ele>
        <time>2012-09-16T14:06:31Z</time>
      </trkpt>
      <trkpt lat="43.61214" lon="6.99343">
        <ele>218</ele>
        <time>2012-09-16T14:06:36Z</time>
      </trkpt>
      <trkpt lat="43.61219" lon="6.99352">
        <ele>219</ele>
        <time>2012-09-16T14:06:41Z</time>
      </trkpt>
      <trkpt lat="43.61225" lon="6.9936">
        <ele>221</ele>
        <time>2012-09-16T14:06:46Z</time>
      </trkpt>
      <trkpt lat="43.61226" lon="6.99366">
        <ele>222</ele>
        <time>2012-09-16T14:06:51Z</time>
      </trkpt>
      <trkpt lat="43.61214" lon="6.99344">
        <ele>222</ele>
        <time>2012-09-16T14:06:56Z</time>
      </trkpt>
      <trkpt lat="43.61191" lon="6.99308">
        <ele>222</ele>
        <time>2012-09-16T14:07:01Z</time>
      </trkpt>
      <trkpt lat="43.61151" lon="6.99286">
        <ele>220</ele>
        <time>2012-09-16T14:07:06Z</time>
      </trkpt>
      <trkpt lat="43.6112" lon="6.99244">
        <ele>217</ele>
        <time>2012-09-16T14:07:11Z</time>
      </trkpt>
      <trkpt lat="43.61111" lon="6.99217">
        <ele>215</ele>
        <time>2012-09-16T14:07:16Z</time>
      </trkpt>
      <trkpt lat="43.61118" lon="6.99206">
        <ele>215</ele>
        <time>2012-09-16T14:07:21Z</time>
      </trkpt>
      <trkpt lat="43.61123" lon="6.99196">
        <ele>214</ele>
        <time>2012-09-16T14:07:26Z</time>
      </trkpt>
      <trkpt lat="43.61129" lon="6.99186">
        <ele>214</ele>
        <time>2012-09-16T14:07:31Z</time>
      </trkpt>
      <trkpt lat="43.61137" lon="6.9918">
        <ele>214</ele>
        <time>2012-09-16T14:07:36Z</time>
      </trkpt>
      <trkpt lat="43.61145" lon="6.99176">
        <ele>214</ele>
        <time>2012-09-16T14:07:41Z</time>
      </trkpt>
      <trkpt lat="43.61155" lon="6.99174">
        <ele>214</ele>
        <time>2012-09-16T14:07:46Z</time>
      </trkpt>
      <trkpt lat="43.61166" lon="6.99173">
        <ele>214</ele>
        <time>2012-09-16T14:07:51Z</time>
      </trkpt>
      <trkpt lat="43.61179" lon="6.99175">
        <ele>214</ele>
        <time>2012-09-16T14:07:56Z</time>
      </trkpt>
      <trkpt lat="43.61191" lon="6.99176">
        <ele>215</ele>
        <time>2012-09-16T14:08:01Z</time>
      </trkpt>
      <trkpt lat="43.61204" lon="6.99176">
        <ele>216</ele>
        <time>2012-09-16T14:08:06Z</time>
      </trkpt>
      <trkpt lat="43.61216" lon="6.99175">
        <ele>216</ele>
        <time>2012-09-16T14:08:11Z</time>
      </trkpt>
      <trkpt lat="43.6123" lon="6.99174">
        <ele>216</ele>
        <time>2012-09-16T14:08:16Z</time>
      </trkpt>
      <trkpt lat="43.61243" lon="6.9917">
        <ele>216</ele>
        <time>2012-09-16T14:08:21Z</time>
      </trkpt>
      <trkpt lat="43.61256" lon="6.99167">
        <ele>218</ele>
        <time>2012-09-16T14:08:26Z</time>
      </trkpt>
      <trkpt lat="43.61268" lon="6.9916">
        <ele>220</ele>
        <time>2012-09-16T14:08:31Z</time>
      </trkpt>
      <trkpt lat="43.61279" lon="6.99154">
        <ele>222</ele>
        <time>2012-09-16T14:08:36Z</time>
      </trkpt>
      <trkpt lat="43.61291" lon="6.99152">
        <ele>224</ele>
        <time>2012-09-16T14:08:41Z</time>
      </trkpt>
      <trkpt lat="43.61302" lon="6.9915">
        <ele>225</ele>
        <time>2012-09-16T14:08:46Z</time>
      </trkpt>
      <trkpt lat="43.61313" lon="6.99148">
        <ele>226</ele>
        <time>2012-09-16T14:08:51Z</time>
      </trkpt>
      <trkpt lat="43.61324" lon="6.99146">
        <ele>226</ele>
        <time>2012-09-16T14:08:56Z</time>
      </trkpt>
      <trkpt lat="43.61336" lon="6.99145">
        <ele>226</ele>
        <time>2012-09-16T14:09:01Z</time>
      </trkpt>
      <trkpt lat="43.61346" lon="6.9914">
        <ele>228</ele>
        <time>2012-09-16T14:09:06Z</time>
      </trkpt>
      <trkpt lat="43.61356" lon="6.99139">
        <ele>229</ele>
        <time>2012-09-16T14:09:11Z</time>
      </trkpt>
      <trkpt lat="43.61367" lon="6.99134">
        <ele>231</ele>
        <time>2012-09-16T14:09:16Z</time>
      </trkpt>
      <trkpt lat="43.61377" lon="6.99127">
        <ele>235</ele>
        <time>2012-09-16T14:09:21Z</time>
      </trkpt>
      <trkpt lat="43.61386" lon="6.99118">
        <ele>238</ele>
        <time>2012-09-16T14:09:26Z</time>
      </trkpt>
      <trkpt lat="43.61396" lon="6.99111">
        <ele>241</ele>
        <time>2012-09-16T14:09:31Z</time>
      </trkpt>
      <trkpt lat="43.61406" lon="6.99108">
        <ele>245</ele>
        <time>2012-09-16T14:09:36Z</time>
      </trkpt>
      <trkpt lat="43.61418" lon="6.99105">
        <ele>246</ele>
        <time>2012-09-16T14:09:41Z</time>
      </trkpt>
      <trkpt lat="43.61428" lon="6.99105">
        <ele>246</ele>
        <time>2012-09-16T14:09:46Z</time>
      </trkpt>
      <trkpt lat="43.61438" lon="6.99105">
        <ele>246</ele>
        <time>2012-09-16T14:09:51Z</time>
      </trkpt>
      <trkpt lat="43.61451" lon="6.99105">
        <ele>246</ele>
        <time>2012-09-16T14:09:56Z</time>
      </trkpt>
      <trkpt lat="43.61463" lon="6.99104">
        <ele>246</ele>
        <time>2012-09-16T14:10:01Z</time>
      </trkpt>
      <trkpt lat="43.61476" lon="6.99102">
        <ele>246</ele>
        <time>2012-09-16T14:10:06Z</time>
      </trkpt>
      <trkpt lat="43.61487" lon="6.99097">
        <ele>246</ele>
        <time>2012-09-16T14:10:11Z</time>
      </trkpt>
      <trkpt lat="43.61498" lon="6.9909">
        <ele>246</ele>
        <time>2012-09-16T14:10:16Z</time>
      </trkpt>
      <trkpt lat="43.61507" lon="6.99082">
        <ele>246</ele>
        <time>2012-09-16T14:10:21Z</time>
      </trkpt>
      <trkpt lat="43.61516" lon="6.99077">
        <ele>246</ele>
        <time>2012-09-16T14:10:26Z</time>
      </trkpt>
      <trkpt lat="43.61523" lon="6.99071">
        <ele>247</ele>
        <time>2012-09-16T14:10:31Z</time>
      </trkpt>
      <trkpt lat="43.61529" lon="6.99066">
        <ele>249</ele>
        <time>2012-09-16T14:10:36Z</time>
      </trkpt>
      <trkpt lat="43.61524" lon="6.99073">
        <ele>249</ele>
        <time>2012-09-16T14:10:41Z</time>
      </trkpt>
      <trkpt lat="43.61519" lon="6.99072">
        <ele>249</ele>
        <time>2012-09-16T14:10:47Z</time>
      </trkpt>
      <trkpt lat="43.6152" lon="6.99065">
        <ele>246</ele>
        <time>2012-09-16T14:10:52Z</time>
      </trkpt>
      <trkpt lat="43.6152" lon="6.99055">
        <ele>242</ele>
        <time>2012-09-16T14:11:07Z</time>
      </trkpt>
      <trkpt lat="43.61518" lon="6.99059">
        <ele>242</ele>
        <time>2012-09-16T14:11:13Z</time>
      </trkpt>
      <trkpt lat="43.61517" lon="6.99065">
        <ele>242</ele>
        <time>2012-09-16T14:11:19Z</time>
      </trkpt>
      <trkpt lat="43.61518" lon="6.99069">
        <ele>242</ele>
        <time>2012-09-16T14:11:26Z</time>
      </trkpt>
      <trkpt lat="43.61521" lon="6.9907">
        <ele>242</ele>
        <time>2012-09-16T14:11:31Z</time>
      </trkpt>
      <trkpt lat="43.61527" lon="6.99072">
        <ele>242</ele>
        <time>2012-09-16T14:11:36Z</time>
      </trkpt>
      <trkpt lat="43.61529" lon="6.99085">
        <ele>243</ele>
        <time>2012-09-16T14:11:41Z</time>
      </trkpt>
      <trkpt lat="43.61523" lon="6.991">
        <ele>245</ele>
        <time>2012-09-16T14:11:46Z</time>
      </trkpt>
      <trkpt lat="43.6152" lon="6.99113">
        <ele>248</ele>
        <time>2012-09-16T14:11:51Z</time>
      </trkpt>
      <trkpt lat="43.61518" lon="6.99123">
        <ele>250</ele>
        <time>2012-09-16T14:11:56Z</time>
      </trkpt>
      <trkpt lat="43.61516" lon="6.99133">
        <ele>251</ele>
        <time>2012-09-16T14:12:01Z</time>
      </trkpt>
      <trkpt lat="43.61514" lon="6.99142">
        <ele>252</ele>
        <time>2012-09-16T14:12:06Z</time>
      </trkpt>
      <trkpt lat="43.61513" lon="6.99151">
        <ele>252</ele>
        <time>2012-09-16T14:12:11Z</time>
      </trkpt>
      <trkpt lat="43.61511" lon="6.9916">
        <ele>254</ele>
        <time>2012-09-16T14:12:16Z</time>
      </trkpt>
      <trkpt lat="43.61509" lon="6.9917">
        <ele>255</ele>
        <time>2012-09-16T14:12:21Z</time>
      </trkpt>
      <trkpt lat="43.61508" lon="6.99179">
        <ele>255</ele>
        <time>2012-09-16T14:12:26Z</time>
      </trkpt>
      <trkpt lat="43.61507" lon="6.99188">
        <ele>255</ele>
        <time>2012-09-16T14:12:32Z</time>
      </trkpt>
      <trkpt lat="43.61507" lon="6.99188">
        <ele>255</ele>
        <time>2012-09-16T14:12:39Z</time>
      </trkpt>
      <trkpt lat="43.61509" lon="6.99173">
        <ele>255</ele>
        <time>2012-09-16T14:12:44Z</time>
      </trkpt>
      <trkpt lat="43.61513" lon="6.99146">
        <ele>254</ele>
        <time>2012-09-16T14:12:49Z</time>
      </trkpt>
      <trkpt lat="43.61519" lon="6.99118">
        <ele>252</ele>
        <time>2012-09-16T14:12:54Z</time>
      </trkpt>
      <trkpt lat="43.61526" lon="6.99089">
        <ele>250</ele>
        <time>2012-09-16T14:12:59Z</time>
      </trkpt>
      <trkpt lat="43.61538" lon="6.99088">
        <ele>248</ele>
        <time>2012-09-16T14:13:04Z</time>
      </trkpt>
      <trkpt lat="43.61545" lon="6.99097">
        <ele>246</ele>
        <time>2012-09-16T14:13:09Z</time>
      </trkpt>
      <trkpt lat="43.61555" lon="6.99109">
        <ele>245</ele>
        <time>2012-09-16T14:13:14Z</time>
      </trkpt>
      <trkpt lat="43.61569" lon="6.99128">
        <ele>244</ele>
        <time>2012-09-16T14:13:19Z</time>
      </trkpt>
      <trkpt lat="43.61585" lon="6.99151">
        <ele>244</ele>
        <time>2012-09-16T14:13:24Z</time>
      </trkpt>
      <trkpt lat="43.61602" lon="6.99171">
        <ele>244</ele>
        <time>2012-09-16T14:13:29Z</time>
      </trkpt>
      <trkpt lat="43.61614" lon="6.99191">
        <ele>244</ele>
        <time>2012-09-16T14:13:34Z</time>
      </trkpt>
      <trkpt lat="43.61627" lon="6.99207">
        <ele>244</ele>
        <time>2012-09-16T14:13:39Z</time>
      </trkpt>
      <trkpt lat="43.61638" lon="6.99222">
        <ele>244</ele>
        <time>2012-09-16T14:13:44Z</time>
      </trkpt>
      <trkpt lat="43.61649" lon="6.99238">
        <ele>244</ele>
        <time>2012-09-16T14:13:49Z</time>
      </trkpt>
      <trkpt lat="43.61658" lon="6.99253">
        <ele>244</ele>
        <time>2012-09-16T14:13:54Z</time>
      </trkpt>
      <trkpt lat="43.61668" lon="6.99268">
        <ele>244</ele>
        <time>2012-09-16T14:13:59Z</time>
      </trkpt>
      <trkpt lat="43.61677" lon="6.99283">
        <ele>245</ele>
        <time>2012-09-16T14:14:04Z</time>
      </trkpt>
      <trkpt lat="43.61687" lon="6.99298">
        <ele>246</ele>
        <time>2012-09-16T14:14:09Z</time>
      </trkpt>
      <trkpt lat="43.61696" lon="6.99312">
        <ele>249</ele>
        <time>2012-09-16T14:14:14Z</time>
      </trkpt>
      <trkpt lat="43.61705" lon="6.99322">
        <ele>251</ele>
        <time>2012-09-16T14:14:19Z</time>
      </trkpt>
      <trkpt lat="43.61715" lon="6.99329">
        <ele>254</ele>
        <time>2012-09-16T14:14:24Z</time>
      </trkpt>
      <trkpt lat="43.61723" lon="6.99335">
        <ele>255</ele>
        <time>2012-09-16T14:14:29Z</time>
      </trkpt>
      <trkpt lat="43.61734" lon="6.99342">
        <ele>256</ele>
        <time>2012-09-16T14:14:34Z</time>
      </trkpt>
      <trkpt lat="43.61749" lon="6.99354">
        <ele>256</ele>
        <time>2012-09-16T14:14:39Z</time>
      </trkpt>
      <trkpt lat="43.61767" lon="6.99367">
        <ele>256</ele>
        <time>2012-09-16T14:14:44Z</time>
      </trkpt>
      <trkpt lat="43.61802" lon="6.99384">
        <ele>256</ele>
        <time>2012-09-16T14:14:49Z</time>
      </trkpt>
      <trkpt lat="43.61841" lon="6.99405">
        <ele>256</ele>
        <time>2012-09-16T14:14:54Z</time>
      </trkpt>
      <trkpt lat="43.61885" lon="6.99425">
        <ele>256</ele>
        <time>2012-09-16T14:14:59Z</time>
      </trkpt>
      <trkpt lat="43.61926" lon="6.99453">
        <ele>252</ele>
        <time>2012-09-16T14:15:04Z</time>
      </trkpt>
      <trkpt lat="43.61961" lon="6.9948">
        <ele>248</ele>
        <time>2012-09-16T14:15:09Z</time>
      </trkpt>
      <trkpt lat="43.61988" lon="6.99498">
        <ele>248</ele>
        <time>2012-09-16T14:15:14Z</time>
      </trkpt>
      <trkpt lat="43.62013" lon="6.99509">
        <ele>248</ele>
        <time>2012-09-16T14:15:19Z</time>
      </trkpt>
      <trkpt lat="43.62039" lon="6.99522">
        <ele>248</ele>
        <time>2012-09-16T14:15:24Z</time>
      </trkpt>
      <trkpt lat="43.62063" lon="6.99534">
        <ele>248</ele>
        <time>2012-09-16T14:15:29Z</time>
      </trkpt>
      <trkpt lat="43.62085" lon="6.99544">
        <ele>248</ele>
        <time>2012-09-16T14:15:34Z</time>
      </trkpt>
      <trkpt lat="43.62111" lon="6.99556">
        <ele>248</ele>
        <time>2012-09-16T14:15:39Z</time>
      </trkpt>
      <trkpt lat="43.62138" lon="6.99572">
        <ele>248</ele>
        <time>2012-09-16T14:15:44Z</time>
      </trkpt>
      <trkpt lat="43.62165" lon="6.99595">
        <ele>248</ele>
        <time>2012-09-16T14:15:49Z</time>
      </trkpt>
      <trkpt lat="43.62192" lon="6.9962">
        <ele>248</ele>
        <time>2012-09-16T14:15:54Z</time>
      </trkpt>
      <trkpt lat="43.62202" lon="6.99634">
        <ele>246</ele>
        <time>2012-09-16T14:15:59Z</time>
      </trkpt>
      <trkpt lat="43.62207" lon="6.9965">
        <ele>244</ele>
        <time>2012-09-16T14:16:04Z</time>
      </trkpt>
      <trkpt lat="43.62213" lon="6.99668">
        <ele>244</ele>
        <time>2012-09-16T14:16:09Z</time>
      </trkpt>
      <trkpt lat="43.6222" lon="6.99686">
        <ele>244</ele>
        <time>2012-09-16T14:16:14Z</time>
      </trkpt>
      <trkpt lat="43.62232" lon="6.99703">
        <ele>244</ele>
        <time>2012-09-16T14:16:19Z</time>
      </trkpt>
      <trkpt lat="43.62244" lon="6.99716">
        <ele>244</ele>
        <time>2012-09-16T14:16:24Z</time>
      </trkpt>
      <trkpt lat="43.62259" lon="6.99731">
        <ele>245</ele>
        <time>2012-09-16T14:16:29Z</time>
      </trkpt>
      <trkpt lat="43.62273" lon="6.99743">
        <ele>246</ele>
        <time>2012-09-16T14:16:34Z</time>
      </trkpt>
      <trkpt lat="43.62288" lon="6.99753">
        <ele>248</ele>
        <time>2012-09-16T14:16:39Z</time>
      </trkpt>
      <trkpt lat="43.62303" lon="6.99762">
        <ele>249</ele>
        <time>2012-09-16T14:16:44Z</time>
      </trkpt>
      <trkpt lat="43.6232" lon="6.99771">
        <ele>250</ele>
        <time>2012-09-16T14:16:49Z</time>
      </trkpt>
      <trkpt lat="43.62336" lon="6.99782">
        <ele>251</ele>
        <time>2012-09-16T14:16:54Z</time>
      </trkpt>
      <trkpt lat="43.62352" lon="6.99792">
        <ele>251</ele>
        <time>2012-09-16T14:16:59Z</time>
      </trkpt>
      <trkpt lat="43.62369" lon="6.99804">
        <ele>251</ele>
        <time>2012-09-16T14:17:04Z</time>
      </trkpt>
      <trkpt lat="43.62386" lon="6.99818">
        <ele>251</ele>
        <time>2012-09-16T14:17:09Z</time>
      </trkpt>
      <trkpt lat="43.62407" lon="6.99831">
        <ele>251</ele>
        <time>2012-09-16T14:17:14Z</time>
      </trkpt>
      <trkpt lat="43.62429" lon="6.99842">
        <ele>251</ele>
        <time>2012-09-16T14:17:19Z</time>
      </trkpt>
      <trkpt lat="43.62452" lon="6.99856">
        <ele>250</ele>
        <time>2012-09-16T14:17:24Z</time>
      </trkpt>
      <trkpt lat="43.62452" lon="6.99893">
        <ele>248</ele>
        <time>2012-09-16T14:17:29Z</time>
      </trkpt>
      <trkpt lat="43.62471" lon="6.99908">
        <ele>247</ele>
        <time>2012-09-16T14:17:34Z</time>
      </trkpt>
      <trkpt lat="43.62481" lon="6.99887">
        <ele>247</ele>
        <time>2012-09-16T14:17:39Z</time>
      </trkpt>
      <trkpt lat="43.62471" lon="6.99871">
        <ele>247</ele>
        <time>2012-09-16T14:17:44Z</time>
      </trkpt>
      <trkpt lat="43.62455" lon="6.99882">
        <ele>247</ele>
        <time>2012-09-16T14:17:49Z</time>
      </trkpt>
      <trkpt lat="43.62449" lon="6.99919">
        <ele>247</ele>
        <time>2012-09-16T14:17:54Z</time>
      </trkpt>
      <trkpt lat="43.62439" lon="6.9996">
        <ele>247</ele>
        <time>2012-09-16T14:17:59Z</time>
      </trkpt>
      <trkpt lat="43.62425" lon="6.99999">
        <ele>245</ele>
        <time>2012-09-16T14:18:04Z</time>
      </trkpt>
      <trkpt lat="43.62412" lon="7.00037">
        <ele>244</ele>
        <time>2012-09-16T14:18:09Z</time>
      </trkpt>
      <trkpt lat="43.62397" lon="7.00074">
        <ele>244</ele>
        <time>2012-09-16T14:18:14Z</time>
      </trkpt>
      <trkpt lat="43.62386" lon="7.00115">
        <ele>244</ele>
        <time>2012-09-16T14:18:19Z</time>
      </trkpt>
      <trkpt lat="43.62377" lon="7.00157">
        <ele>244</ele>
        <time>2012-09-16T14:18:24Z</time>
      </trkpt>
      <trkpt lat="43.62368" lon="7.00206">
        <ele>242</ele>
        <time>2012-09-16T14:18:29Z</time>
      </trkpt>
      <trkpt lat="43.62362" lon="7.00255">
        <ele>240</ele>
        <time>2012-09-16T14:18:34Z</time>
      </trkpt>
      <trkpt lat="43.62364" lon="7.00301">
        <ele>240</ele>
        <time>2012-09-16T14:18:39Z</time>
      </trkpt>
      <trkpt lat="43.62368" lon="7.00345">
        <ele>240</ele>
        <time>2012-09-16T14:18:44Z</time>
      </trkpt>
      <trkpt lat="43.62373" lon="7.00391">
        <ele>240</ele>
        <time>2012-09-16T14:18:49Z</time>
      </trkpt>
      <trkpt lat="43.62379" lon="7.00439">
        <ele>240</ele>
        <time>2012-09-16T14:18:54Z</time>
      </trkpt>
      <trkpt lat="43.62383" lon="7.00492">
        <ele>240</ele>
        <time>2012-09-16T14:18:59Z</time>
      </trkpt>
      <trkpt lat="43.62382" lon="7.00547">
        <ele>239</ele>
        <time>2012-09-16T14:19:04Z</time>
      </trkpt>
      <trkpt lat="43.62381" lon="7.00603">
        <ele>235</ele>
        <time>2012-09-16T14:19:09Z</time>
      </trkpt>
      <trkpt lat="43.6238" lon="7.00661">
        <ele>232</ele>
        <time>2012-09-16T14:19:14Z</time>
      </trkpt>
      <trkpt lat="43.62373" lon="7.0072">
        <ele>229</ele>
        <time>2012-09-16T14:19:19Z</time>
      </trkpt>
      <trkpt lat="43.62363" lon="7.00777">
        <ele>228</ele>
        <time>2012-09-16T14:19:24Z</time>
      </trkpt>
      <trkpt lat="43.62354" lon="7.00827">
        <ele>227</ele>
        <time>2012-09-16T14:19:29Z</time>
      </trkpt>
      <trkpt lat="43.62346" lon="7.00874">
        <ele>226</ele>
        <time>2012-09-16T14:19:34Z</time>
      </trkpt>
      <trkpt lat="43.62339" lon="7.0092">
        <ele>226</ele>
        <time>2012-09-16T14:19:39Z</time>
      </trkpt>
      <trkpt lat="43.62338" lon="7.00964">
        <ele>225</ele>
        <time>2012-09-16T14:19:44Z</time>
      </trkpt>
      <trkpt lat="43.62339" lon="7.01007">
        <ele>225</ele>
        <time>2012-09-16T14:19:49Z</time>
      </trkpt>
      <trkpt lat="43.62341" lon="7.0105">
        <ele>225</ele>
        <time>2012-09-16T14:19:54Z</time>
      </trkpt>
      <trkpt lat="43.62344" lon="7.01094">
        <ele>225</ele>
        <time>2012-09-16T14:19:59Z</time>
      </trkpt>
      <trkpt lat="43.62346" lon="7.01144">
        <ele>225</ele>
        <time>2012-09-16T14:20:04Z</time>
      </trkpt>
      <trkpt lat="43.62348" lon="7.01195">
        <ele>224</ele>
        <time>2012-09-16T14:20:09Z</time>
      </trkpt>
      <trkpt lat="43.62351" lon="7.0125">
        <ele>221</ele>
        <time>2012-09-16T14:20:14Z</time>
      </trkpt>
      <trkpt lat="43.62355" lon="7.01307">
        <ele>219</ele>
        <time>2012-09-16T14:20:19Z</time>
      </trkpt>
      <trkpt lat="43.62365" lon="7.01357">
        <ele>219</ele>
        <time>2012-09-16T14:20:24Z</time>
      </trkpt>
      <trkpt lat="43.62368" lon="7.01401">
        <ele>217</ele>
        <time>2012-09-16T14:20:29Z</time>
      </trkpt>
      <trkpt lat="43.62364" lon="7.01443">
        <ele>215</ele>
        <time>2012-09-16T14:20:34Z</time>
      </trkpt>
      <trkpt lat="43.62352" lon="7.01484">
        <ele>213</ele>
        <time>2012-09-16T14:20:39Z</time>
      </trkpt>
      <trkpt lat="43.62344" lon="7.0152">
        <ele>212</ele>
        <time>2012-09-16T14:20:44Z</time>
      </trkpt>
      <trkpt lat="43.62329" lon="7.01538">
        <ele>212</ele>
        <time>2012-09-16T14:20:49Z</time>
      </trkpt>
      <trkpt lat="43.62328" lon="7.01536">
        <ele>212</ele>
        <time>2012-09-16T14:20:54Z</time>
      </trkpt>
      <trkpt lat="43.62318" lon="7.01524">
        <ele>212</ele>
        <time>2012-09-16T14:20:59Z</time>
      </trkpt>
      <trkpt lat="43.62308" lon="7.01515">
        <ele>212</ele>
        <time>2012-09-16T14:21:04Z</time>
      </trkpt>
      <trkpt lat="43.62297" lon="7.01505">
        <ele>212</ele>
        <time>2012-09-16T14:21:09Z</time>
      </trkpt>
      <trkpt lat="43.62289" lon="7.01495">
        <ele>212</ele>
        <time>2012-09-16T14:21:14Z</time>
      </trkpt>
      <trkpt lat="43.62281" lon="7.0149">
        <ele>213</ele>
        <time>2012-09-16T14:21:19Z</time>
      </trkpt>
      <trkpt lat="43.62282" lon="7.01488">
        <ele>214</ele>
        <time>2012-09-16T14:21:26Z</time>
      </trkpt>
      <trkpt lat="43.62289" lon="7.01494">
        <ele>215</ele>
        <time>2012-09-16T14:21:31Z</time>
      </trkpt>
      <trkpt lat="43.62301" lon="7.01506">
        <ele>215</ele>
        <time>2012-09-16T14:21:36Z</time>
      </trkpt>
      <trkpt lat="43.62321" lon="7.01525">
        <ele>215</ele>
        <time>2012-09-16T14:21:41Z</time>
      </trkpt>
      <trkpt lat="43.6233" lon="7.01551">
        <ele>215</ele>
        <time>2012-09-16T14:21:46Z</time>
      </trkpt>
      <trkpt lat="43.62349" lon="7.01567">
        <ele>214</ele>
        <time>2012-09-16T14:21:51Z</time>
      </trkpt>
      <trkpt lat="43.6238" lon="7.01572">
        <ele>211</ele>
        <time>2012-09-16T14:21:56Z</time>
      </trkpt>
      <trkpt lat="43.62423" lon="7.01565">
        <ele>207</ele>
        <time>2012-09-16T14:22:01Z</time>
      </trkpt>
      <trkpt lat="43.62484" lon="7.01554">
        <ele>202</ele>
        <time>2012-09-16T14:22:07Z</time>
      </trkpt>
      <trkpt lat="43.62527" lon="7.01532">
        <ele>201</ele>
        <time>2012-09-16T14:22:12Z</time>
      </trkpt>
      <trkpt lat="43.62561" lon="7.01517">
        <ele>201</ele>
        <time>2012-09-16T14:22:17Z</time>
      </trkpt>
      <trkpt lat="43.62588" lon="7.01505">
        <ele>201</ele>
        <time>2012-09-16T14:22:22Z</time>
      </trkpt>
      <trkpt lat="43.62609" lon="7.01495">
        <ele>201</ele>
        <time>2012-09-16T14:22:27Z</time>
      </trkpt>
      <trkpt lat="43.62629" lon="7.01488">
        <ele>201</ele>
        <time>2012-09-16T14:22:32Z</time>
      </trkpt>
      <trkpt lat="43.62645" lon="7.01489">
        <ele>201</ele>
        <time>2012-09-16T14:22:37Z</time>
      </trkpt>
      <trkpt lat="43.62659" lon="7.0149">
        <ele>202</ele>
        <time>2012-09-16T14:22:42Z</time>
      </trkpt>
      <trkpt lat="43.62671" lon="7.01492">
        <ele>204</ele>
        <time>2012-09-16T14:22:47Z</time>
      </trkpt>
      <trkpt lat="43.62681" lon="7.01493">
        <ele>206</ele>
        <time>2012-09-16T14:22:52Z</time>
      </trkpt>
      <trkpt lat="43.6269" lon="7.01493">
        <ele>206</ele>
        <time>2012-09-16T14:22:57Z</time>
      </trkpt>
      <trkpt lat="43.627" lon="7.01494">
        <ele>207</ele>
        <time>2012-09-16T14:23:02Z</time>
      </trkpt>
      <trkpt lat="43.62709" lon="7.01495">
        <ele>207</ele>
        <time>2012-09-16T14:23:07Z</time>
      </trkpt>
      <trkpt lat="43.62718" lon="7.01496">
        <ele>208</ele>
        <time>2012-09-16T14:23:12Z</time>
      </trkpt>
      <trkpt lat="43.62727" lon="7.01495">
        <ele>210</ele>
        <time>2012-09-16T14:23:17Z</time>
      </trkpt>
      <trkpt lat="43.62736" lon="7.01495">
        <ele>211</ele>
        <time>2012-09-16T14:23:22Z</time>
      </trkpt>
      <trkpt lat="43.62745" lon="7.01496">
        <ele>211</ele>
        <time>2012-09-16T14:23:27Z</time>
      </trkpt>
      <trkpt lat="43.62754" lon="7.01498">
        <ele>213</ele>
        <time>2012-09-16T14:23:32Z</time>
      </trkpt>
      <trkpt lat="43.62762" lon="7.01498">
        <ele>215</ele>
        <time>2012-09-16T14:23:37Z</time>
      </trkpt>
      <trkpt lat="43.62771" lon="7.01498">
        <ele>216</ele>
        <time>2012-09-16T14:23:42Z</time>
      </trkpt>
      <trkpt lat="43.6278" lon="7.015">
        <ele>217</ele>
        <time>2012-09-16T14:23:47Z</time>
      </trkpt>
      <trkpt lat="43.62789" lon="7.01503">
        <ele>218</ele>
        <time>2012-09-16T14:23:52Z</time>
      </trkpt>
      <trkpt lat="43.62798" lon="7.01503">
        <ele>219</ele>
        <time>2012-09-16T14:23:57Z</time>
      </trkpt>
      <trkpt lat="43.62808" lon="7.01503">
        <ele>221</ele>
        <time>2012-09-16T14:24:02Z</time>
      </trkpt>
      <trkpt lat="43.62817" lon="7.01505">
        <ele>222</ele>
        <time>2012-09-16T14:24:07Z</time>
      </trkpt>
      <trkpt lat="43.62825" lon="7.01507">
        <ele>222</ele>
        <time>2012-09-16T14:24:12Z</time>
      </trkpt>
      <trkpt lat="43.62834" lon="7.01508">
        <ele>223</ele>
        <time>2012-09-16T14:24:17Z</time>
      </trkpt>
      <trkpt lat="43.62843" lon="7.01509">
        <ele>224</ele>
        <time>2012-09-16T14:24:22Z</time>
      </trkpt>
      <trkpt lat="43.62853" lon="7.01511">
        <ele>225</ele>
        <time>2012-09-16T14:24:27Z</time>
      </trkpt>
      <trkpt lat="43.62862" lon="7.01512">
        <ele>227</ele>
        <time>2012-09-16T14:24:32Z</time>
      </trkpt>
      <trkpt lat="43.62869" lon="7.01514">
        <ele>229</ele>
        <time>2012-09-16T14:24:37Z</time>
      </trkpt>
      <trkpt lat="43.62877" lon="7.01516">
        <ele>232</ele>
        <time>2012-09-16T14:24:42Z</time>
      </trkpt>
      <trkpt lat="43.62886" lon="7.01516">
        <ele>235</ele>
        <time>2012-09-16T14:24:47Z</time>
      </trkpt>
      <trkpt lat="43.62895" lon="7.01517">
        <ele>235</ele>
        <time>2012-09-16T14:24:52Z</time>
      </trkpt>
      <trkpt lat="43.62904" lon="7.01517">
        <ele>239</ele>
        <time>2012-09-16T14:24:57Z</time>
      </trkpt>
      <trkpt lat="43.62914" lon="7.01518">
        <ele>241</ele>
        <time>2012-09-16T14:25:02Z</time>
      </trkpt>
      <trkpt lat="43.62923" lon="7.01525">
        <ele>241</ele>
        <time>2012-09-16T14:25:07Z</time>
      </trkpt>
      <trkpt lat="43.62936" lon="7.01533">
        <ele>241</ele>
        <time>2012-09-16T14:25:12Z</time>
      </trkpt>
      <trkpt lat="43.62954" lon="7.01542">
        <ele>241</ele>
        <time>2012-09-16T14:25:17Z</time>
      </trkpt>
      <trkpt lat="43.6297" lon="7.01548">
        <ele>243</ele>
        <time>2012-09-16T14:25:22Z</time>
      </trkpt>
      <trkpt lat="43.62982" lon="7.01552">
        <ele>243</ele>
        <time>2012-09-16T14:25:27Z</time>
      </trkpt>
      <trkpt lat="43.62996" lon="7.01553">
        <ele>243</ele>
        <time>2012-09-16T14:25:32Z</time>
      </trkpt>
      <trkpt lat="43.63011" lon="7.01563">
        <ele>243</ele>
        <time>2012-09-16T14:25:37Z</time>
      </trkpt>
      <trkpt lat="43.63031" lon="7.01565">
        <ele>243</ele>
        <time>2012-09-16T14:25:42Z</time>
      </trkpt>
      <trkpt lat="43.63047" lon="7.0157">
        <ele>243</ele>
        <time>2012-09-16T14:25:47Z</time>
      </trkpt>
      <trkpt lat="43.63061" lon="7.01579">
        <ele>243</ele>
        <time>2012-09-16T14:25:52Z</time>
      </trkpt>
      <trkpt lat="43.6307" lon="7.01596">
        <ele>243</ele>
        <time>2012-09-16T14:25:57Z</time>
      </trkpt>
      <trkpt lat="43.6308" lon="7.01621">
        <ele>239</ele>
        <time>2012-09-16T14:26:03Z</time>
      </trkpt>
      <trkpt lat="43.63081" lon="7.01646">
        <ele>237</ele>
        <time>2012-09-16T14:26:08Z</time>
      </trkpt>
      <trkpt lat="43.63085" lon="7.01665">
        <ele>235</ele>
        <time>2012-09-16T14:26:13Z</time>
      </trkpt>
      <trkpt lat="43.63089" lon="7.01687">
        <ele>232</ele>
        <time>2012-09-16T14:26:18Z</time>
      </trkpt>
      <trkpt lat="43.63088" lon="7.01717">
        <ele>229</ele>
        <time>2012-09-16T14:26:23Z</time>
      </trkpt>
      <trkpt lat="43.63082" lon="7.01747">
        <ele>229</ele>
        <time>2012-09-16T14:26:28Z</time>
      </trkpt>
      <trkpt lat="43.63076" lon="7.01774">
        <ele>229</ele>
        <time>2012-09-16T14:26:33Z</time>
      </trkpt>
      <trkpt lat="43.63078" lon="7.01807">
        <ele>231</ele>
        <time>2012-09-16T14:26:38Z</time>
      </trkpt>
      <trkpt lat="43.63076" lon="7.01849">
        <ele>235</ele>
        <time>2012-09-16T14:26:43Z</time>
      </trkpt>
      <trkpt lat="43.63081" lon="7.01893">
        <ele>235</ele>
        <time>2012-09-16T14:26:48Z</time>
      </trkpt>
      <trkpt lat="43.6308" lon="7.0193">
        <ele>235</ele>
        <time>2012-09-16T14:26:53Z</time>
      </trkpt>
      <trkpt lat="43.63068" lon="7.01961">
        <ele>234</ele>
        <time>2012-09-16T14:26:58Z</time>
      </trkpt>
      <trkpt lat="43.63041" lon="7.01986">
        <ele>230</ele>
        <time>2012-09-16T14:27:03Z</time>
      </trkpt>
      <trkpt lat="43.63032" lon="7.02034">
        <ele>225</ele>
        <time>2012-09-16T14:27:08Z</time>
      </trkpt>
      <trkpt lat="43.63027" lon="7.02086">
        <ele>220</ele>
        <time>2012-09-16T14:27:13Z</time>
      </trkpt>
      <trkpt lat="43.63017" lon="7.02134">
        <ele>216</ele>
        <time>2012-09-16T14:27:18Z</time>
      </trkpt>
      <trkpt lat="43.63001" lon="7.02194">
        <ele>216</ele>
        <time>2012-09-16T14:27:24Z</time>
      </trkpt>
      <trkpt lat="43.62997" lon="7.02235">
        <ele>220</ele>
        <time>2012-09-16T14:27:30Z</time>
      </trkpt>
      <trkpt lat="43.62988" lon="7.02248">
        <ele>220</ele>
        <time>2012-09-16T14:27:35Z</time>
      </trkpt>
      <trkpt lat="43.62978" lon="7.0225">
        <ele>221</ele>
        <time>2012-09-16T14:27:40Z</time>
      </trkpt>
      <trkpt lat="43.62964" lon="7.02251">
        <ele>221</ele>
        <time>2012-09-16T14:27:45Z</time>
      </trkpt>
      <trkpt lat="43.62944" lon="7.02258">
        <ele>221</ele>
        <time>2012-09-16T14:27:50Z</time>
      </trkpt>
      <trkpt lat="43.62921" lon="7.02277">
        <ele>221</ele>
        <time>2012-09-16T14:27:56Z</time>
      </trkpt>
      <trkpt lat="43.629" lon="7.02299">
        <ele>221</ele>
        <time>2012-09-16T14:28:02Z</time>
      </trkpt>
      <trkpt lat="43.62883" lon="7.02307">
        <ele>221</ele>
        <time>2012-09-16T14:28:07Z</time>
      </trkpt>
      <trkpt lat="43.62873" lon="7.02309">
        <ele>215</ele>
        <time>2012-09-16T14:28:13Z</time>
      </trkpt>
      <trkpt lat="43.62864" lon="7.02336">
        <ele>210</ele>
        <time>2012-09-16T14:28:18Z</time>
      </trkpt>
      <trkpt lat="43.62862" lon="7.02391">
        <ele>206</ele>
        <time>2012-09-16T14:28:24Z</time>
      </trkpt>
      <trkpt lat="43.62869" lon="7.02449">
        <ele>201</ele>
        <time>2012-09-16T14:28:29Z</time>
      </trkpt>
      <trkpt lat="43.62886" lon="7.02498">
        <ele>196</ele>
        <time>2012-09-16T14:28:34Z</time>
      </trkpt>
      <trkpt lat="43.62917" lon="7.0253">
        <ele>191</ele>
        <time>2012-09-16T14:28:39Z</time>
      </trkpt>
      <trkpt lat="43.62953" lon="7.02571">
        <ele>186</ele>
        <time>2012-09-16T14:28:44Z</time>
      </trkpt>
      <trkpt lat="43.62985" lon="7.02597">
        <ele>183</ele>
        <time>2012-09-16T14:28:49Z</time>
      </trkpt>
      <trkpt lat="43.63027" lon="7.02598">
        <ele>183</ele>
        <time>2012-09-16T14:28:54Z</time>
      </trkpt>
      <trkpt lat="43.63051" lon="7.02594">
        <ele>182</ele>
        <time>2012-09-16T14:29:00Z</time>
      </trkpt>
      <trkpt lat="43.63049" lon="7.02602">
        <ele>179</ele>
        <time>2012-09-16T14:29:05Z</time>
      </trkpt>
      <trkpt lat="43.63041" lon="7.02618">
        <ele>177</ele>
        <time>2012-09-16T14:29:10Z</time>
      </trkpt>
      <trkpt lat="43.63026" lon="7.0264">
        <ele>177</ele>
        <time>2012-09-16T14:29:16Z</time>
      </trkpt>
      <trkpt lat="43.63012" lon="7.0266">
        <ele>175</ele>
        <time>2012-09-16T14:29:21Z</time>
      </trkpt>
      <trkpt lat="43.63001" lon="7.02677">
        <ele>174</ele>
        <time>2012-09-16T14:29:26Z</time>
      </trkpt>
      <trkpt lat="43.6299" lon="7.02696">
        <ele>171</ele>
        <time>2012-09-16T14:29:31Z</time>
      </trkpt>
      <trkpt lat="43.62973" lon="7.02726">
        <ele>167</ele>
        <time>2012-09-16T14:29:37Z</time>
      </trkpt>
      <trkpt lat="43.62958" lon="7.02741">
        <ele>163</ele>
        <time>2012-09-16T14:29:42Z</time>
      </trkpt>
      <trkpt lat="43.62942" lon="7.02762">
        <ele>162</ele>
        <time>2012-09-16T14:29:47Z</time>
      </trkpt>
      <trkpt lat="43.62933" lon="7.02782">
        <ele>162</ele>
        <time>2012-09-16T14:29:52Z</time>
      </trkpt>
      <trkpt lat="43.62932" lon="7.02785">
        <ele>162</ele>
        <time>2012-09-16T14:29:59Z</time>
      </trkpt>
      <trkpt lat="43.62931" lon="7.02789">
        <ele>160</ele>
        <time>2012-09-16T14:30:08Z</time>
      </trkpt>
      <trkpt lat="43.62922" lon="7.02791">
        <ele>158</ele>
        <time>2012-09-16T14:30:13Z</time>
      </trkpt>
      <trkpt lat="43.62912" lon="7.02796">
        <ele>158</ele>
        <time>2012-09-16T14:30:18Z</time>
      </trkpt>
      <trkpt lat="43.62906" lon="7.02805">
        <ele>158</ele>
        <time>2012-09-16T14:30:23Z</time>
      </trkpt>
      <trkpt lat="43.62905" lon="7.0282">
        <ele>158</ele>
        <time>2012-09-16T14:30:29Z</time>
      </trkpt>
      <trkpt lat="43.62906" lon="7.02833">
        <ele>158</ele>
        <time>2012-09-16T14:30:34Z</time>
      </trkpt>
      <trkpt lat="43.62907" lon="7.02845">
        <ele>159</ele>
        <time>2012-09-16T14:30:39Z</time>
      </trkpt>
      <trkpt lat="43.62909" lon="7.02857">
        <ele>161</ele>
        <time>2012-09-16T14:30:44Z</time>
      </trkpt>
      <trkpt lat="43.62909" lon="7.0287">
        <ele>162</ele>
        <time>2012-09-16T14:30:49Z</time>
      </trkpt>
      <trkpt lat="43.62911" lon="7.02881">
        <ele>163</ele>
        <time>2012-09-16T14:30:54Z</time>
      </trkpt>
      <trkpt lat="43.62913" lon="7.02894">
        <ele>165</ele>
        <time>2012-09-16T14:30:59Z</time>
      </trkpt>
      <trkpt lat="43.62913" lon="7.02906">
        <ele>166</ele>
        <time>2012-09-16T14:31:04Z</time>
      </trkpt>
      <trkpt lat="43.62913" lon="7.02918">
        <ele>167</ele>
        <time>2012-09-16T14:31:09Z</time>
      </trkpt>
      <trkpt lat="43.62913" lon="7.02932">
        <ele>170</ele>
        <time>2012-09-16T14:31:14Z</time>
      </trkpt>
      <trkpt lat="43.62913" lon="7.02944">
        <ele>171</ele>
        <time>2012-09-16T14:31:19Z</time>
      </trkpt>
      <trkpt lat="43.62912" lon="7.02959">
        <ele>174</ele>
        <time>2012-09-16T14:31:25Z</time>
      </trkpt>
      <trkpt lat="43.62909" lon="7.02972">
        <ele>176</ele>
        <time>2012-09-16T14:31:30Z</time>
      </trkpt>
      <trkpt lat="43.62907" lon="7.02987">
        <ele>177</ele>
        <time>2012-09-16T14:31:35Z</time>
      </trkpt>
      <trkpt lat="43.62902" lon="7.03001">
        <ele>179</ele>
        <time>2012-09-16T14:31:40Z</time>
      </trkpt>
      <trkpt lat="43.62899" lon="7.03016">
        <ele>180</ele>
        <time>2012-09-16T14:31:45Z</time>
      </trkpt>
      <trkpt lat="43.62895" lon="7.03033">
        <ele>182</ele>
        <time>2012-09-16T14:31:50Z</time>
      </trkpt>
      <trkpt lat="43.62894" lon="7.03051">
        <ele>183</ele>
        <time>2012-09-16T14:31:55Z</time>
      </trkpt>
      <trkpt lat="43.62894" lon="7.03068">
        <ele>185</ele>
        <time>2012-09-16T14:32:00Z</time>
      </trkpt>
      <trkpt lat="43.62896" lon="7.03084">
        <ele>186</ele>
        <time>2012-09-16T14:32:05Z</time>
      </trkpt>
      <trkpt lat="43.629" lon="7.031">
        <ele>187</ele>
        <time>2012-09-16T14:32:10Z</time>
      </trkpt>
      <trkpt lat="43.62903" lon="7.03117">
        <ele>187</ele>
        <time>2012-09-16T14:32:15Z</time>
      </trkpt>
      <trkpt lat="43.62902" lon="7.03136">
        <ele>187</ele>
        <time>2012-09-16T14:32:20Z</time>
      </trkpt>
      <trkpt lat="43.62897" lon="7.03154">
        <ele>187</ele>
        <time>2012-09-16T14:32:25Z</time>
      </trkpt>
      <trkpt lat="43.62891" lon="7.03172">
        <ele>187</ele>
        <time>2012-09-16T14:32:30Z</time>
      </trkpt>
      <trkpt lat="43.62885" lon="7.03188">
        <ele>187</ele>
        <time>2012-09-16T14:32:35Z</time>
      </trkpt>
      <trkpt lat="43.62879" lon="7.03205">
        <ele>188</ele>
        <time>2012-09-16T14:32:40Z</time>
      </trkpt>
      <trkpt lat="43.62877" lon="7.03214">
        <ele>192</ele>
        <time>2012-09-16T14:33:02Z</time>
      </trkpt>
      <trkpt lat="43.62877" lon="7.03224">
        <ele>192</ele>
        <time>2012-09-16T14:33:07Z</time>
      </trkpt>
      <trkpt lat="43.62879" lon="7.0324">
        <ele>192</ele>
        <time>2012-09-16T14:33:12Z</time>
      </trkpt>
      <trkpt lat="43.62888" lon="7.03253">
        <ele>192</ele>
        <time>2012-09-16T14:33:17Z</time>
      </trkpt>
      <trkpt lat="43.62897" lon="7.03267">
        <ele>192</ele>
        <time>2012-09-16T14:33:22Z</time>
      </trkpt>
      <trkpt lat="43.62907" lon="7.03285">
        <ele>192</ele>
        <time>2012-09-16T14:33:27Z</time>
      </trkpt>
      <trkpt lat="43.62914" lon="7.03303">
        <ele>192</ele>
        <time>2012-09-16T14:33:32Z</time>
      </trkpt>
      <trkpt lat="43.62918" lon="7.03321">
        <ele>192</ele>
        <time>2012-09-16T14:33:37Z</time>
      </trkpt>
      <trkpt lat="43.62918" lon="7.0334">
        <ele>192</ele>
        <time>2012-09-16T14:33:42Z</time>
      </trkpt>
      <trkpt lat="43.62917" lon="7.03359">
        <ele>194</ele>
        <time>2012-09-16T14:33:47Z</time>
      </trkpt>
      <trkpt lat="43.62916" lon="7.03378">
        <ele>195</ele>
        <time>2012-09-16T14:33:52Z</time>
      </trkpt>
      <trkpt lat="43.62914" lon="7.03398">
        <ele>196</ele>
        <time>2012-09-16T14:33:57Z</time>
      </trkpt>
      <trkpt lat="43.62909" lon="7.03414">
        <ele>198</ele>
        <time>2012-09-16T14:34:02Z</time>
      </trkpt>
      <trkpt lat="43.62903" lon="7.03429">
        <ele>199</ele>
        <time>2012-09-16T14:34:07Z</time>
      </trkpt>
      <trkpt lat="43.62895" lon="7.03444">
        <ele>200</ele>
        <time>2012-09-16T14:34:12Z</time>
      </trkpt>
      <trkpt lat="43.62888" lon="7.03456">
        <ele>201</ele>
        <time>2012-09-16T14:34:17Z</time>
      </trkpt>
      <trkpt lat="43.62882" lon="7.03466">
        <ele>201</ele>
        <time>2012-09-16T14:34:22Z</time>
      </trkpt>
      <trkpt lat="43.62875" lon="7.03478">
        <ele>202</ele>
        <time>2012-09-16T14:34:27Z</time>
      </trkpt>
      <trkpt lat="43.62868" lon="7.0349">
        <ele>202</ele>
        <time>2012-09-16T14:34:32Z</time>
      </trkpt>
      <trkpt lat="43.62871" lon="7.0348">
        <ele>202</ele>
        <time>2012-09-16T14:34:37Z</time>
      </trkpt>
      <trkpt lat="43.6288" lon="7.03465">
        <ele>202</ele>
        <time>2012-09-16T14:34:42Z</time>
      </trkpt>
      <trkpt lat="43.62893" lon="7.03443">
        <ele>201</ele>
        <time>2012-09-16T14:34:47Z</time>
      </trkpt>
      <trkpt lat="43.62907" lon="7.03418">
        <ele>199</ele>
        <time>2012-09-16T14:34:52Z</time>
      </trkpt>
      <trkpt lat="43.62906" lon="7.03401">
        <ele>196</ele>
        <time>2012-09-16T14:35:02Z</time>
      </trkpt>
      <trkpt lat="43.62903" lon="7.03396">
        <ele>196</ele>
        <time>2012-09-16T14:35:07Z</time>
      </trkpt>
      <trkpt lat="43.629" lon="7.03378">
        <ele>195</ele>
        <time>2012-09-16T14:35:12Z</time>
      </trkpt>
      <trkpt lat="43.62897" lon="7.03352">
        <ele>195</ele>
        <time>2012-09-16T14:35:17Z</time>
      </trkpt>
      <trkpt lat="43.62897" lon="7.03325">
        <ele>195</ele>
        <time>2012-09-16T14:35:22Z</time>
      </trkpt>
      <trkpt lat="43.62893" lon="7.03298">
        <ele>195</ele>
        <time>2012-09-16T14:35:27Z</time>
      </trkpt>
      <trkpt lat="43.62886" lon="7.03287">
        <ele>195</ele>
        <time>2012-09-16T14:35:32Z</time>
      </trkpt>
      <trkpt lat="43.62877" lon="7.03276">
        <ele>194</ele>
        <time>2012-09-16T14:35:37Z</time>
      </trkpt>
      <trkpt lat="43.62874" lon="7.03268">
        <ele>194</ele>
        <time>2012-09-16T14:35:43Z</time>
      </trkpt>
      <trkpt lat="43.6287" lon="7.03262">
        <ele>194</ele>
        <time>2012-09-16T14:35:48Z</time>
      </trkpt>
      <trkpt lat="43.6286" lon="7.03251">
        <ele>194</ele>
        <time>2012-09-16T14:35:53Z</time>
      </trkpt>
      <trkpt lat="43.62852" lon="7.03239">
        <ele>194</ele>
        <time>2012-09-16T14:35:58Z</time>
      </trkpt>
      <trkpt lat="43.6285" lon="7.03224">
        <ele>194</ele>
        <time>2012-09-16T14:36:03Z</time>
      </trkpt>
      <trkpt lat="43.62855" lon="7.03207">
        <ele>194</ele>
        <time>2012-09-16T14:36:08Z</time>
      </trkpt>
      <trkpt lat="43.62859" lon="7.03192">
        <ele>194</ele>
        <time>2012-09-16T14:36:13Z</time>
      </trkpt>
      <trkpt lat="43.62864" lon="7.03167">
        <ele>194</ele>
        <time>2012-09-16T14:36:18Z</time>
      </trkpt>
      <trkpt lat="43.62869" lon="7.03156">
        <ele>189</ele>
        <time>2012-09-16T14:36:23Z</time>
      </trkpt>
      <trkpt lat="43.62875" lon="7.03135">
        <ele>187</ele>
        <time>2012-09-16T14:36:28Z</time>
      </trkpt>
      <trkpt lat="43.6288" lon="7.0311">
        <ele>186</ele>
        <time>2012-09-16T14:36:33Z</time>
      </trkpt>
      <trkpt lat="43.62877" lon="7.03081">
        <ele>184</ele>
        <time>2012-09-16T14:36:38Z</time>
      </trkpt>
      <trkpt lat="43.62875" lon="7.03051">
        <ele>182</ele>
        <time>2012-09-16T14:36:43Z</time>
      </trkpt>
      <trkpt lat="43.62879" lon="7.03027">
        <ele>180</ele>
        <time>2012-09-16T14:36:48Z</time>
      </trkpt>
      <trkpt lat="43.62886" lon="7.03011">
        <ele>178</ele>
        <time>2012-09-16T14:36:53Z</time>
      </trkpt>
      <trkpt lat="43.62889" lon="7.02993">
        <ele>177</ele>
        <time>2012-09-16T14:36:58Z</time>
      </trkpt>
      <trkpt lat="43.62891" lon="7.02975">
        <ele>177</ele>
        <time>2012-09-16T14:37:03Z</time>
      </trkpt>
      <trkpt lat="43.62893" lon="7.02956">
        <ele>177</ele>
        <time>2012-09-16T14:37:08Z</time>
      </trkpt>
      <trkpt lat="43.62894" lon="7.02935">
        <ele>177</ele>
        <time>2012-09-16T14:37:13Z</time>
      </trkpt>
      <trkpt lat="43.62893" lon="7.0291">
        <ele>174</ele>
        <time>2012-09-16T14:37:18Z</time>
      </trkpt>
      <trkpt lat="43.62891" lon="7.02887">
        <ele>172</ele>
        <time>2012-09-16T14:37:23Z</time>
      </trkpt>
      <trkpt lat="43.62893" lon="7.02868">
        <ele>171</ele>
        <time>2012-09-16T14:37:28Z</time>
      </trkpt>
      <trkpt lat="43.62893" lon="7.02842">
        <ele>171</ele>
        <time>2012-09-16T14:37:33Z</time>
      </trkpt>
      <trkpt lat="43.62887" lon="7.02813">
        <ele>170</ele>
        <time>2012-09-16T14:37:38Z</time>
      </trkpt>
      <trkpt lat="43.62877" lon="7.02791">
        <ele>168</ele>
        <time>2012-09-16T14:37:43Z</time>
      </trkpt>
      <trkpt lat="43.62873" lon="7.02781">
        <ele>167</ele>
        <time>2012-09-16T14:37:48Z</time>
      </trkpt>
      <trkpt lat="43.62865" lon="7.02768">
        <ele>166</ele>
        <time>2012-09-16T14:37:53Z</time>
      </trkpt>
      <trkpt lat="43.62856" lon="7.02763">
        <ele>166</ele>
        <time>2012-09-16T14:37:58Z</time>
      </trkpt>
      <trkpt lat="43.62848" lon="7.02751">
        <ele>166</ele>
        <time>2012-09-16T14:38:03Z</time>
      </trkpt>
      <trkpt lat="43.62837" lon="7.02739">
        <ele>166</ele>
        <time>2012-09-16T14:38:08Z</time>
      </trkpt>
      <trkpt lat="43.62826" lon="7.02729">
        <ele>166</ele>
        <time>2012-09-16T14:38:13Z</time>
      </trkpt>
      <trkpt lat="43.62816" lon="7.02723">
        <ele>166</ele>
        <time>2012-09-16T14:38:18Z</time>
      </trkpt>
      <trkpt lat="43.62805" lon="7.02718">
        <ele>168</ele>
        <time>2012-09-16T14:38:23Z</time>
      </trkpt>
      <trkpt lat="43.62794" lon="7.02711">
        <ele>169</ele>
        <time>2012-09-16T14:38:28Z</time>
      </trkpt>
      <trkpt lat="43.62785" lon="7.02703">
        <ele>170</ele>
        <time>2012-09-16T14:38:33Z</time>
      </trkpt>
      <trkpt lat="43.62777" lon="7.02693">
        <ele>171</ele>
        <time>2012-09-16T14:38:38Z</time>
      </trkpt>
      <trkpt lat="43.62771" lon="7.02683">
        <ele>174</ele>
        <time>2012-09-16T14:38:43Z</time>
      </trkpt>
      <trkpt lat="43.62766" lon="7.02672">
        <ele>175</ele>
        <time>2012-09-16T14:38:48Z</time>
      </trkpt>
      <trkpt lat="43.62761" lon="7.0266">
        <ele>175</ele>
        <time>2012-09-16T14:38:53Z</time>
      </trkpt>
      <trkpt lat="43.62756" lon="7.02648">
        <ele>175</ele>
        <time>2012-09-16T14:38:58Z</time>
      </trkpt>
      <trkpt lat="43.6275" lon="7.02636">
        <ele>177</ele>
        <time>2012-09-16T14:39:03Z</time>
      </trkpt>
      <trkpt lat="43.62743" lon="7.02628">
        <ele>178</ele>
        <time>2012-09-16T14:39:08Z</time>
      </trkpt>
      <trkpt lat="43.62735" lon="7.0262">
        <ele>179</ele>
        <time>2012-09-16T14:39:13Z</time>
      </trkpt>
      <trkpt lat="43.62725" lon="7.02616">
        <ele>179</ele>
        <time>2012-09-16T14:39:18Z</time>
      </trkpt>
      <trkpt lat="43.62716" lon="7.02612">
        <ele>179</ele>
        <time>2012-09-16T14:39:23Z</time>
      </trkpt>
      <trkpt lat="43.62706" lon="7.0261">
        <ele>180</ele>
        <time>2012-09-16T14:39:29Z</time>
      </trkpt>
      <trkpt lat="43.62693" lon="7.02607">
        <ele>181</ele>
        <time>2012-09-16T14:39:34Z</time>
      </trkpt>
      <trkpt lat="43.62682" lon="7.02609">
        <ele>182</ele>
        <time>2012-09-16T14:39:39Z</time>
      </trkpt>
      <trkpt lat="43.62671" lon="7.02611">
        <ele>184</ele>
        <time>2012-09-16T14:39:44Z</time>
      </trkpt>
      <trkpt lat="43.62661" lon="7.02613">
        <ele>185</ele>
        <time>2012-09-16T14:39:49Z</time>
      </trkpt>
      <trkpt lat="43.62651" lon="7.02618">
        <ele>185</ele>
        <time>2012-09-16T14:39:54Z</time>
      </trkpt>
      <trkpt lat="43.62641" lon="7.02623">
        <ele>185</ele>
        <time>2012-09-16T14:39:59Z</time>
      </trkpt>
      <trkpt lat="43.62632" lon="7.0263">
        <ele>185</ele>
        <time>2012-09-16T14:40:04Z</time>
      </trkpt>
      <trkpt lat="43.62622" lon="7.02638">
        <ele>185</ele>
        <time>2012-09-16T14:40:09Z</time>
      </trkpt>
      <trkpt lat="43.62613" lon="7.02644">
        <ele>185</ele>
        <time>2012-09-16T14:40:14Z</time>
      </trkpt>
      <trkpt lat="43.62604" lon="7.02648">
        <ele>185</ele>
        <time>2012-09-16T14:40:19Z</time>
      </trkpt>
      <trkpt lat="43.62598" lon="7.02651">
        <ele>185</ele>
        <time>2012-09-16T14:40:24Z</time>
      </trkpt>
      <trkpt lat="43.62589" lon="7.02653">
        <ele>186</ele>
        <time>2012-09-16T14:40:29Z</time>
      </trkpt>
      <trkpt lat="43.62578" lon="7.02655">
        <ele>187</ele>
        <time>2012-09-16T14:40:34Z</time>
      </trkpt>
      <trkpt lat="43.62568" lon="7.02656">
        <ele>188</ele>
        <time>2012-09-16T14:40:39Z</time>
      </trkpt>
      <trkpt lat="43.62557" lon="7.02654">
        <ele>189</ele>
        <time>2012-09-16T14:40:44Z</time>
      </trkpt>
      <trkpt lat="43.62547" lon="7.02652">
        <ele>190</ele>
        <time>2012-09-16T14:40:49Z</time>
      </trkpt>
      <trkpt lat="43.62537" lon="7.0265">
        <ele>192</ele>
        <time>2012-09-16T14:40:54Z</time>
      </trkpt>
      <trkpt lat="43.62528" lon="7.02648">
        <ele>192</ele>
        <time>2012-09-16T14:40:59Z</time>
      </trkpt>
      <trkpt lat="43.62518" lon="7.02649">
        <ele>193</ele>
        <time>2012-09-16T14:41:04Z</time>
      </trkpt>
      <trkpt lat="43.62508" lon="7.02649">
        <ele>194</ele>
        <time>2012-09-16T14:41:09Z</time>
      </trkpt>
      <trkpt lat="43.62495" lon="7.02649">
        <ele>194</ele>
        <time>2012-09-16T14:41:14Z</time>
      </trkpt>
      <trkpt lat="43.62484" lon="7.02649">
        <ele>195</ele>
        <time>2012-09-16T14:41:19Z</time>
      </trkpt>
      <trkpt lat="43.62472" lon="7.02648">
        <ele>196</ele>
        <time>2012-09-16T14:41:24Z</time>
      </trkpt>
      <trkpt lat="43.6246" lon="7.02645">
        <ele>197</ele>
        <time>2012-09-16T14:41:29Z</time>
      </trkpt>
      <trkpt lat="43.62446" lon="7.02639">
        <ele>198</ele>
        <time>2012-09-16T14:41:34Z</time>
      </trkpt>
      <trkpt lat="43.62432" lon="7.02628">
        <ele>199</ele>
        <time>2012-09-16T14:41:39Z</time>
      </trkpt>
      <trkpt lat="43.62416" lon="7.02613">
        <ele>200</ele>
        <time>2012-09-16T14:41:44Z</time>
      </trkpt>
      <trkpt lat="43.62402" lon="7.02593">
        <ele>200</ele>
        <time>2012-09-16T14:41:49Z</time>
      </trkpt>
      <trkpt lat="43.62394" lon="7.02568">
        <ele>201</ele>
        <time>2012-09-16T14:41:54Z</time>
      </trkpt>
      <trkpt lat="43.62383" lon="7.02545">
        <ele>203</ele>
        <time>2012-09-16T14:41:59Z</time>
      </trkpt>
      <trkpt lat="43.62372" lon="7.02523">
        <ele>205</ele>
        <time>2012-09-16T14:42:04Z</time>
      </trkpt>
      <trkpt lat="43.62365" lon="7.025">
        <ele>206</ele>
        <time>2012-09-16T14:42:09Z</time>
      </trkpt>
      <trkpt lat="43.62362" lon="7.02484">
        <ele>207</ele>
        <time>2012-09-16T14:42:14Z</time>
      </trkpt>
      <trkpt lat="43.62369" lon="7.02489">
        <ele>208</ele>
        <time>2012-09-16T14:42:19Z</time>
      </trkpt>
      <trkpt lat="43.62377" lon="7.02502">
        <ele>208</ele>
        <time>2012-09-16T14:42:25Z</time>
      </trkpt>
      <trkpt lat="43.62376" lon="7.02496">
        <ele>208</ele>
        <time>2012-09-16T14:42:30Z</time>
      </trkpt>
      <trkpt lat="43.62367" lon="7.02488">
        <ele>208</ele>
        <time>2012-09-16T14:42:35Z</time>
      </trkpt>
      <trkpt lat="43.62361" lon="7.02472">
        <ele>208</ele>
        <time>2012-09-16T14:42:40Z</time>
      </trkpt>
      <trkpt lat="43.62363" lon="7.02456">
        <ele>208</ele>
        <time>2012-09-16T14:42:45Z</time>
      </trkpt>
      <trkpt lat="43.62373" lon="7.02452">
        <ele>208</ele>
        <time>2012-09-16T14:42:50Z</time>
      </trkpt>
      <trkpt lat="43.62391" lon="7.02447">
        <ele>208</ele>
        <time>2012-09-16T14:42:55Z</time>
      </trkpt>
      <trkpt lat="43.62416" lon="7.02444">
        <ele>211</ele>
        <time>2012-09-16T14:43:00Z</time>
      </trkpt>
      <trkpt lat="43.62436" lon="7.02442">
        <ele>213</ele>
        <time>2012-09-16T14:43:05Z</time>
      </trkpt>
      <trkpt lat="43.62455" lon="7.0244">
        <ele>213</ele>
        <time>2012-09-16T14:43:10Z</time>
      </trkpt>
      <trkpt lat="43.62469" lon="7.02441">
        <ele>213</ele>
        <time>2012-09-16T14:43:15Z</time>
      </trkpt>
      <trkpt lat="43.62484" lon="7.02444">
        <ele>213</ele>
        <time>2012-09-16T14:43:20Z</time>
      </trkpt>
      <trkpt lat="43.62487" lon="7.02444">
        <ele>213</ele>
        <time>2012-09-16T14:43:25Z</time>
      </trkpt>
      <trkpt lat="43.6249" lon="7.02445">
        <ele>213</ele>
        <time>2012-09-16T14:43:30Z</time>
      </trkpt>
      <trkpt lat="43.62503" lon="7.02448">
        <ele>213</ele>
        <time>2012-09-16T14:43:35Z</time>
      </trkpt>
      <trkpt lat="43.62527" lon="7.02445">
        <ele>211</ele>
        <time>2012-09-16T14:43:40Z</time>
      </trkpt>
      <trkpt lat="43.62548" lon="7.02438">
        <ele>205</ele>
        <time>2012-09-16T14:43:45Z</time>
      </trkpt>
      <trkpt lat="43.6255" lon="7.02437">
        <ele>202</ele>
        <time>2012-09-16T14:43:50Z</time>
      </trkpt>
      <trkpt lat="43.62552" lon="7.02436">
        <ele>201</ele>
        <time>2012-09-16T14:43:56Z</time>
      </trkpt>
      <trkpt lat="43.62555" lon="7.02435">
        <ele>198</ele>
        <time>2012-09-16T14:44:03Z</time>
      </trkpt>
      <trkpt lat="43.62561" lon="7.0244">
        <ele>197</ele>
        <time>2012-09-16T14:44:09Z</time>
      </trkpt>
      <trkpt lat="43.62568" lon="7.02442">
        <ele>195</ele>
        <time>2012-09-16T14:44:14Z</time>
      </trkpt>
      <trkpt lat="43.6258" lon="7.02438">
        <ele>192</ele>
        <time>2012-09-16T14:44:19Z</time>
      </trkpt>
      <trkpt lat="43.62583" lon="7.02436">
        <ele>187</ele>
        <time>2012-09-16T14:44:26Z</time>
      </trkpt>
      <trkpt lat="43.62578" lon="7.02438">
        <ele>187</ele>
        <time>2012-09-16T14:44:32Z</time>
      </trkpt>
      <trkpt lat="43.62572" lon="7.02441">
        <ele>187</ele>
        <time>2012-09-16T14:44:38Z</time>
      </trkpt>
      <trkpt lat="43.62565" lon="7.0244">
        <ele>187</ele>
        <time>2012-09-16T14:44:43Z</time>
      </trkpt>
      <trkpt lat="43.62559" lon="7.02438">
        <ele>188</ele>
        <time>2012-09-16T14:44:48Z</time>
      </trkpt>
      <trkpt lat="43.62553" lon="7.02437">
        <ele>191</ele>
        <time>2012-09-16T14:44:53Z</time>
      </trkpt>
      <trkpt lat="43.62551" lon="7.02436">
        <ele>191</ele>
        <time>2012-09-16T14:44:58Z</time>
      </trkpt>
      <trkpt lat="43.62545" lon="7.02437">
        <ele>191</ele>
        <time>2012-09-16T14:45:04Z</time>
      </trkpt>
      <trkpt lat="43.62536" lon="7.02439">
        <ele>191</ele>
        <time>2012-09-16T14:45:09Z</time>
      </trkpt>
      <trkpt lat="43.62528" lon="7.02439">
        <ele>191</ele>
        <time>2012-09-16T14:45:14Z</time>
      </trkpt>
      <trkpt lat="43.62525" lon="7.02439">
        <ele>191</ele>
        <time>2012-09-16T14:45:20Z</time>
      </trkpt>
      <trkpt lat="43.62519" lon="7.02442">
        <ele>194</ele>
        <time>2012-09-16T14:45:25Z</time>
      </trkpt>
      <trkpt lat="43.62511" lon="7.02444">
        <ele>196</ele>
        <time>2012-09-16T14:45:30Z</time>
      </trkpt>
      <trkpt lat="43.625" lon="7.02443">
        <ele>197</ele>
        <time>2012-09-16T14:45:35Z</time>
      </trkpt>
      <trkpt lat="43.62491" lon="7.02441">
        <ele>197</ele>
        <time>2012-09-16T14:45:40Z</time>
      </trkpt>
      <trkpt lat="43.62485" lon="7.02441">
        <ele>199</ele>
        <time>2012-09-16T14:45:46Z</time>
      </trkpt>
      <trkpt lat="43.62482" lon="7.02442">
        <ele>200</ele>
        <time>2012-09-16T14:45:51Z</time>
      </trkpt>
      <trkpt lat="43.62478" lon="7.02442">
        <ele>201</ele>
        <time>2012-09-16T14:45:57Z</time>
      </trkpt>
      <trkpt lat="43.62469" lon="7.02439">
        <ele>201</ele>
        <time>2012-09-16T14:46:02Z</time>
      </trkpt>
      <trkpt lat="43.62459" lon="7.02439">
        <ele>202</ele>
        <time>2012-09-16T14:46:07Z</time>
      </trkpt>
      <trkpt lat="43.62447" lon="7.02438">
        <ele>202</ele>
        <time>2012-09-16T14:46:12Z</time>
      </trkpt>
      <trkpt lat="43.62436" lon="7.0244">
        <ele>202</ele>
        <time>2012-09-16T14:46:17Z</time>
      </trkpt>
      <trkpt lat="43.62423" lon="7.02441">
        <ele>202</ele>
        <time>2012-09-16T14:46:22Z</time>
      </trkpt>
      <trkpt lat="43.6241" lon="7.02443">
        <ele>202</ele>
        <time>2012-09-16T14:46:27Z</time>
      </trkpt>
      <trkpt lat="43.62398" lon="7.02445">
        <ele>203</ele>
        <time>2012-09-16T14:46:32Z</time>
      </trkpt>
      <trkpt lat="43.62387" lon="7.02447">
        <ele>203</ele>
        <time>2012-09-16T14:46:37Z</time>
      </trkpt>
      <trkpt lat="43.62375" lon="7.02451">
        <ele>203</ele>
        <time>2012-09-16T14:46:42Z</time>
      </trkpt>
      <trkpt lat="43.62366" lon="7.0245">
        <ele>203</ele>
        <time>2012-09-16T14:46:47Z</time>
      </trkpt>
      <trkpt lat="43.62371" lon="7.02441">
        <ele>206</ele>
        <time>2012-09-16T14:46:52Z</time>
      </trkpt>
      <trkpt lat="43.6238" lon="7.02433">
        <ele>209</ele>
        <time>2012-09-16T14:46:57Z</time>
      </trkpt>
      <trkpt lat="43.62391" lon="7.02425">
        <ele>211</ele>
        <time>2012-09-16T14:47:02Z</time>
      </trkpt>
      <trkpt lat="43.62398" lon="7.02416">
        <ele>214</ele>
        <time>2012-09-16T14:47:07Z</time>
      </trkpt>
      <trkpt lat="43.62405" lon="7.02408">
        <ele>215</ele>
        <time>2012-09-16T14:47:12Z</time>
      </trkpt>
      <trkpt lat="43.62412" lon="7.02402">
        <ele>217</ele>
        <time>2012-09-16T14:47:17Z</time>
      </trkpt>
      <trkpt lat="43.62417" lon="7.02394">
        <ele>219</ele>
        <time>2012-09-16T14:47:22Z</time>
      </trkpt>
      <trkpt lat="43.62424" lon="7.02384">
        <ele>220</ele>
        <time>2012-09-16T14:47:27Z</time>
      </trkpt>
      <trkpt lat="43.6243" lon="7.02375">
        <ele>220</ele>
        <time>2012-09-16T14:47:32Z</time>
      </trkpt>
      <trkpt lat="43.62438" lon="7.02368">
        <ele>221</ele>
        <time>2012-09-16T14:47:37Z</time>
      </trkpt>
      <trkpt lat="43.62444" lon="7.02362">
        <ele>223</ele>
        <time>2012-09-16T14:47:42Z</time>
      </trkpt>
      <trkpt lat="43.62452" lon="7.02356">
        <ele>225</ele>
        <time>2012-09-16T14:47:47Z</time>
      </trkpt>
      <trkpt lat="43.6246" lon="7.0235">
        <ele>225</ele>
        <time>2012-09-16T14:47:52Z</time>
      </trkpt>
      <trkpt lat="43.62466" lon="7.02347">
        <ele>228</ele>
        <time>2012-09-16T14:47:57Z</time>
      </trkpt>
      <trkpt lat="43.62475" lon="7.0234">
        <ele>230</ele>
        <time>2012-09-16T14:48:02Z</time>
      </trkpt>
      <trkpt lat="43.62483" lon="7.02332">
        <ele>232</ele>
        <time>2012-09-16T14:48:07Z</time>
      </trkpt>
      <trkpt lat="43.62489" lon="7.02321">
        <ele>232</ele>
        <time>2012-09-16T14:48:12Z</time>
      </trkpt>
      <trkpt lat="43.62493" lon="7.0231">
        <ele>232</ele>
        <time>2012-09-16T14:48:17Z</time>
      </trkpt>
      <trkpt lat="43.62495" lon="7.02297">
        <ele>232</ele>
        <time>2012-09-16T14:48:22Z</time>
      </trkpt>
      <trkpt lat="43.62497" lon="7.02281">
        <ele>232</ele>
        <time>2012-09-16T14:48:27Z</time>
      </trkpt>
      <trkpt lat="43.62498" lon="7.02263">
        <ele>232</ele>
        <time>2012-09-16T14:48:32Z</time>
      </trkpt>
      <trkpt lat="43.62496" lon="7.02241">
        <ele>232</ele>
        <time>2012-09-16T14:48:37Z</time>
      </trkpt>
      <trkpt lat="43.62491" lon="7.02219">
        <ele>232</ele>
        <time>2012-09-16T14:48:42Z</time>
      </trkpt>
      <trkpt lat="43.62482" lon="7.02195">
        <ele>232</ele>
        <time>2012-09-16T14:48:47Z</time>
      </trkpt>
      <trkpt lat="43.62473" lon="7.02175">
        <ele>232</ele>
        <time>2012-09-16T14:48:52Z</time>
      </trkpt>
      <trkpt lat="43.62465" lon="7.02142">
        <ele>232</ele>
        <time>2012-09-16T14:48:57Z</time>
      </trkpt>
      <trkpt lat="43.62456" lon="7.02103">
        <ele>232</ele>
        <time>2012-09-16T14:49:02Z</time>
      </trkpt>
      <trkpt lat="43.62455" lon="7.02074">
        <ele>232</ele>
        <time>2012-09-16T14:49:07Z</time>
      </trkpt>
      <trkpt lat="43.62461" lon="7.02048">
        <ele>232</ele>
        <time>2012-09-16T14:49:12Z</time>
      </trkpt>
      <trkpt lat="43.62468" lon="7.02026">
        <ele>232</ele>
        <time>2012-09-16T14:49:17Z</time>
      </trkpt>
      <trkpt lat="43.62475" lon="7.02">
        <ele>232</ele>
        <time>2012-09-16T14:49:22Z</time>
      </trkpt>
      <trkpt lat="43.62488" lon="7.0197">
        <ele>232</ele>
        <time>2012-09-16T14:49:27Z</time>
      </trkpt>
      <trkpt lat="43.62493" lon="7.01936">
        <ele>228</ele>
        <time>2012-09-16T14:49:32Z</time>
      </trkpt>
      <trkpt lat="43.62498" lon="7.01895">
        <ele>226</ele>
        <time>2012-09-16T14:49:37Z</time>
      </trkpt>
      <trkpt lat="43.62481" lon="7.01861">
        <ele>225</ele>
        <time>2012-09-16T14:49:42Z</time>
      </trkpt>
      <trkpt lat="43.62466" lon="7.01824">
        <ele>222</ele>
        <time>2012-09-16T14:49:47Z</time>
      </trkpt>
      <trkpt lat="43.62474" lon="7.0178">
        <ele>219</ele>
        <time>2012-09-16T14:49:52Z</time>
      </trkpt>
      <trkpt lat="43.62468" lon="7.01727">
        <ele>218</ele>
        <time>2012-09-16T14:49:57Z</time>
      </trkpt>
      <trkpt lat="43.62461" lon="7.01683">
        <ele>218</ele>
        <time>2012-09-16T14:50:02Z</time>
      </trkpt>
      <trkpt lat="43.62442" lon="7.01651">
        <ele>215</ele>
        <time>2012-09-16T14:50:07Z</time>
      </trkpt>
      <trkpt lat="43.62437" lon="7.01607">
        <ele>210</ele>
        <time>2012-09-16T14:50:12Z</time>
      </trkpt>
      <trkpt lat="43.62426" lon="7.01592">
        <ele>205</ele>
        <time>2012-09-16T14:50:18Z</time>
      </trkpt>
      <trkpt lat="43.62423" lon="7.01587">
        <ele>204</ele>
        <time>2012-09-16T14:50:23Z</time>
      </trkpt>
      <trkpt lat="43.62423" lon="7.01576">
        <ele>203</ele>
        <time>2012-09-16T14:50:28Z</time>
      </trkpt>
      <trkpt lat="43.62433" lon="7.01565">
        <ele>199</ele>
        <time>2012-09-16T14:50:33Z</time>
      </trkpt>
      <trkpt lat="43.62457" lon="7.01563">
        <ele>197</ele>
        <time>2012-09-16T14:50:38Z</time>
      </trkpt>
      <trkpt lat="43.62485" lon="7.01551">
        <ele>195</ele>
        <time>2012-09-16T14:50:43Z</time>
      </trkpt>
      <trkpt lat="43.62509" lon="7.0154">
        <ele>194</ele>
        <time>2012-09-16T14:50:48Z</time>
      </trkpt>
      <trkpt lat="43.62533" lon="7.01528">
        <ele>194</ele>
        <time>2012-09-16T14:50:53Z</time>
      </trkpt>
      <trkpt lat="43.62559" lon="7.01517">
        <ele>194</ele>
        <time>2012-09-16T14:50:58Z</time>
      </trkpt>
      <trkpt lat="43.62572" lon="7.01497">
        <ele>194</ele>
        <time>2012-09-16T14:51:03Z</time>
      </trkpt>
      <trkpt lat="43.62575" lon="7.01475">
        <ele>194</ele>
        <time>2012-09-16T14:51:08Z</time>
      </trkpt>
      <trkpt lat="43.62579" lon="7.01455">
        <ele>194</ele>
        <time>2012-09-16T14:51:13Z</time>
      </trkpt>
      <trkpt lat="43.62584" lon="7.01437">
        <ele>194</ele>
        <time>2012-09-16T14:51:18Z</time>
      </trkpt>
      <trkpt lat="43.62588" lon="7.01422">
        <ele>194</ele>
        <time>2012-09-16T14:51:23Z</time>
      </trkpt>
      <trkpt lat="43.6259" lon="7.01413">
        <ele>195</ele>
        <time>2012-09-16T14:51:29Z</time>
      </trkpt>
      <trkpt lat="43.62592" lon="7.01409">
        <ele>195</ele>
        <time>2012-09-16T14:51:35Z</time>
      </trkpt>
      <trkpt lat="43.62596" lon="7.01403">
        <ele>196</ele>
        <time>2012-09-16T14:51:40Z</time>
      </trkpt>
      <trkpt lat="43.62601" lon="7.01392">
        <ele>197</ele>
        <time>2012-09-16T14:51:45Z</time>
      </trkpt>
      <trkpt lat="43.62606" lon="7.01375">
        <ele>198</ele>
        <time>2012-09-16T14:51:50Z</time>
      </trkpt>
      <trkpt lat="43.6261" lon="7.01357">
        <ele>199</ele>
        <time>2012-09-16T14:51:55Z</time>
      </trkpt>
      <trkpt lat="43.62616" lon="7.01343">
        <ele>200</ele>
        <time>2012-09-16T14:52:00Z</time>
      </trkpt>
      <trkpt lat="43.62618" lon="7.01327">
        <ele>201</ele>
        <time>2012-09-16T14:52:05Z</time>
      </trkpt>
      <trkpt lat="43.62624" lon="7.01312">
        <ele>201</ele>
        <time>2012-09-16T14:52:10Z</time>
      </trkpt>
      <trkpt lat="43.62629" lon="7.01297">
        <ele>201</ele>
        <time>2012-09-16T14:52:15Z</time>
      </trkpt>
      <trkpt lat="43.62635" lon="7.01287">
        <ele>201</ele>
        <time>2012-09-16T14:52:20Z</time>
      </trkpt>
      <trkpt lat="43.6264" lon="7.01273">
        <ele>201</ele>
        <time>2012-09-16T14:52:25Z</time>
      </trkpt>
      <trkpt lat="43.62643" lon="7.01257">
        <ele>203</ele>
        <time>2012-09-16T14:52:30Z</time>
      </trkpt>
      <trkpt lat="43.62644" lon="7.01242">
        <ele>205</ele>
        <time>2012-09-16T14:52:35Z</time>
      </trkpt>
      <trkpt lat="43.62646" lon="7.01225">
        <ele>206</ele>
        <time>2012-09-16T14:52:40Z</time>
      </trkpt>
      <trkpt lat="43.62645" lon="7.01203">
        <ele>206</ele>
        <time>2012-09-16T14:52:45Z</time>
      </trkpt>
      <trkpt lat="43.62645" lon="7.01188">
        <ele>209</ele>
        <time>2012-09-16T14:52:50Z</time>
      </trkpt>
      <trkpt lat="43.62645" lon="7.0117">
        <ele>209</ele>
        <time>2012-09-16T14:52:55Z</time>
      </trkpt>
      <trkpt lat="43.62643" lon="7.01152">
        <ele>211</ele>
        <time>2012-09-16T14:53:00Z</time>
      </trkpt>
      <trkpt lat="43.62642" lon="7.01136">
        <ele>212</ele>
        <time>2012-09-16T14:53:05Z</time>
      </trkpt>
      <trkpt lat="43.62642" lon="7.0112">
        <ele>212</ele>
        <time>2012-09-16T14:53:10Z</time>
      </trkpt>
      <trkpt lat="43.62642" lon="7.01103">
        <ele>212</ele>
        <time>2012-09-16T14:53:15Z</time>
      </trkpt>
      <trkpt lat="43.62644" lon="7.01088">
        <ele>212</ele>
        <time>2012-09-16T14:53:20Z</time>
      </trkpt>
      <trkpt lat="43.62648" lon="7.01074">
        <ele>212</ele>
        <time>2012-09-16T14:53:25Z</time>
      </trkpt>
      <trkpt lat="43.62651" lon="7.01055">
        <ele>212</ele>
        <time>2012-09-16T14:53:30Z</time>
      </trkpt>
      <trkpt lat="43.62652" lon="7.01039">
        <ele>212</ele>
        <time>2012-09-16T14:53:35Z</time>
      </trkpt>
      <trkpt lat="43.62653" lon="7.01021">
        <ele>212</ele>
        <time>2012-09-16T14:53:40Z</time>
      </trkpt>
      <trkpt lat="43.62658" lon="7.01004">
        <ele>212</ele>
        <time>2012-09-16T14:53:45Z</time>
      </trkpt>
      <trkpt lat="43.62665" lon="7.00987">
        <ele>212</ele>
        <time>2012-09-16T14:53:50Z</time>
      </trkpt>
      <trkpt lat="43.62671" lon="7.00968">
        <ele>212</ele>
        <time>2012-09-16T14:53:55Z</time>
      </trkpt>
      <trkpt lat="43.62676" lon="7.00954">
        <ele>212</ele>
        <time>2012-09-16T14:54:00Z</time>
      </trkpt>
      <trkpt lat="43.62683" lon="7.0094">
        <ele>212</ele>
        <time>2012-09-16T14:54:05Z</time>
      </trkpt>
      <trkpt lat="43.62688" lon="7.00923">
        <ele>212</ele>
        <time>2012-09-16T14:54:10Z</time>
      </trkpt>
      <trkpt lat="43.62694" lon="7.00907">
        <ele>214</ele>
        <time>2012-09-16T14:54:15Z</time>
      </trkpt>
      <trkpt lat="43.627" lon="7.00892">
        <ele>215</ele>
        <time>2012-09-16T14:54:20Z</time>
      </trkpt>
      <trkpt lat="43.62706" lon="7.00878">
        <ele>217</ele>
        <time>2012-09-16T14:54:25Z</time>
      </trkpt>
      <trkpt lat="43.62711" lon="7.00866">
        <ele>218</ele>
        <time>2012-09-16T14:54:30Z</time>
      </trkpt>
      <trkpt lat="43.62717" lon="7.00856">
        <ele>219</ele>
        <time>2012-09-16T14:54:35Z</time>
      </trkpt>
      <trkpt lat="43.62722" lon="7.00848">
        <ele>221</ele>
        <time>2012-09-16T14:54:40Z</time>
      </trkpt>
      <trkpt lat="43.62727" lon="7.00839">
        <ele>221</ele>
        <time>2012-09-16T14:54:46Z</time>
      </trkpt>
      <trkpt lat="43.62733" lon="7.00829">
        <ele>222</ele>
        <time>2012-09-16T14:54:51Z</time>
      </trkpt>
      <trkpt lat="43.62738" lon="7.0082">
        <ele>223</ele>
        <time>2012-09-16T14:54:56Z</time>
      </trkpt>
      <trkpt lat="43.62742" lon="7.00811">
        <ele>225</ele>
        <time>2012-09-16T14:55:01Z</time>
      </trkpt>
      <trkpt lat="43.62744" lon="7.00807">
        <ele>226</ele>
        <time>2012-09-16T14:55:07Z</time>
      </trkpt>
      <trkpt lat="43.62748" lon="7.00801">
        <ele>226</ele>
        <time>2012-09-16T14:55:13Z</time>
      </trkpt>
      <trkpt lat="43.62751" lon="7.00795">
        <ele>226</ele>
        <time>2012-09-16T14:55:19Z</time>
      </trkpt>
      <trkpt lat="43.62752" lon="7.00788">
        <ele>227</ele>
        <time>2012-09-16T14:55:25Z</time>
      </trkpt>
      <trkpt lat="43.62754" lon="7.00781">
        <ele>228</ele>
        <time>2012-09-16T14:55:31Z</time>
      </trkpt>
      <trkpt lat="43.62758" lon="7.00775">
        <ele>228</ele>
        <time>2012-09-16T14:55:37Z</time>
      </trkpt>
      <trkpt lat="43.62761" lon="7.00768">
        <ele>229</ele>
        <time>2012-09-16T14:55:43Z</time>
      </trkpt>
      <trkpt lat="43.62762" lon="7.00765">
        <ele>229</ele>
        <time>2012-09-16T14:55:48Z</time>
      </trkpt>
      <trkpt lat="43.62765" lon="7.00758">
        <ele>229</ele>
        <time>2012-09-16T14:55:53Z</time>
      </trkpt>
      <trkpt lat="43.62769" lon="7.00749">
        <ele>229</ele>
        <time>2012-09-16T14:55:58Z</time>
      </trkpt>
      <trkpt lat="43.62775" lon="7.0074">
        <ele>229</ele>
        <time>2012-09-16T14:56:03Z</time>
      </trkpt>
      <trkpt lat="43.62781" lon="7.00728">
        <ele>230</ele>
        <time>2012-09-16T14:56:08Z</time>
      </trkpt>
      <trkpt lat="43.62786" lon="7.00717">
        <ele>231</ele>
        <time>2012-09-16T14:56:13Z</time>
      </trkpt>
      <trkpt lat="43.62791" lon="7.00707">
        <ele>233</ele>
        <time>2012-09-16T14:56:18Z</time>
      </trkpt>
      <trkpt lat="43.62795" lon="7.00696">
        <ele>234</ele>
        <time>2012-09-16T14:56:23Z</time>
      </trkpt>
      <trkpt lat="43.62803" lon="7.00688">
        <ele>235</ele>
        <time>2012-09-16T14:56:28Z</time>
      </trkpt>
      <trkpt lat="43.62809" lon="7.00677">
        <ele>235</ele>
        <time>2012-09-16T14:56:33Z</time>
      </trkpt>
      <trkpt lat="43.62814" lon="7.00667">
        <ele>236</ele>
        <time>2012-09-16T14:56:38Z</time>
      </trkpt>
      <trkpt lat="43.6282" lon="7.00658">
        <ele>238</ele>
        <time>2012-09-16T14:56:43Z</time>
      </trkpt>
      <trkpt lat="43.62826" lon="7.00647">
        <ele>240</ele>
        <time>2012-09-16T14:56:48Z</time>
      </trkpt>
      <trkpt lat="43.62831" lon="7.00636">
        <ele>241</ele>
        <time>2012-09-16T14:56:53Z</time>
      </trkpt>
      <trkpt lat="43.62837" lon="7.00626">
        <ele>241</ele>
        <time>2012-09-16T14:56:58Z</time>
      </trkpt>
      <trkpt lat="43.62841" lon="7.00611">
        <ele>241</ele>
        <time>2012-09-16T14:57:03Z</time>
      </trkpt>
      <trkpt lat="43.62832" lon="7.00607">
        <ele>241</ele>
        <time>2012-09-16T14:57:08Z</time>
      </trkpt>
      <trkpt lat="43.62815" lon="7.00606">
        <ele>241</ele>
        <time>2012-09-16T14:57:13Z</time>
      </trkpt>
      <trkpt lat="43.62793" lon="7.00599">
        <ele>241</ele>
        <time>2012-09-16T14:57:18Z</time>
      </trkpt>
      <trkpt lat="43.62769" lon="7.00585">
        <ele>241</ele>
        <time>2012-09-16T14:57:23Z</time>
      </trkpt>
      <trkpt lat="43.62741" lon="7.00572">
        <ele>241</ele>
        <time>2012-09-16T14:57:28Z</time>
      </trkpt>
      <trkpt lat="43.6271" lon="7.00559">
        <ele>239</ele>
        <time>2012-09-16T14:57:33Z</time>
      </trkpt>
      <trkpt lat="43.62671" lon="7.00552">
        <ele>236</ele>
        <time>2012-09-16T14:57:38Z</time>
      </trkpt>
      <trkpt lat="43.62634" lon="7.00553">
        <ele>233</ele>
        <time>2012-09-16T14:57:43Z</time>
      </trkpt>
      <trkpt lat="43.62603" lon="7.00553">
        <ele>232</ele>
        <time>2012-09-16T14:57:48Z</time>
      </trkpt>
      <trkpt lat="43.6258" lon="7.00564">
        <ele>232</ele>
        <time>2012-09-16T14:57:53Z</time>
      </trkpt>
      <trkpt lat="43.62561" lon="7.00579">
        <ele>232</ele>
        <time>2012-09-16T14:57:58Z</time>
      </trkpt>
      <trkpt lat="43.62561" lon="7.00583">
        <ele>231</ele>
        <time>2012-09-16T14:58:03Z</time>
      </trkpt>
      <trkpt lat="43.62565" lon="7.00578">
        <ele>231</ele>
        <time>2012-09-16T14:58:09Z</time>
      </trkpt>
      <trkpt lat="43.62569" lon="7.0057">
        <ele>231</ele>
        <time>2012-09-16T14:58:15Z</time>
      </trkpt>
      <trkpt lat="43.62555" lon="7.00556">
        <ele>231</ele>
        <time>2012-09-16T14:58:20Z</time>
      </trkpt>
      <trkpt lat="43.62541" lon="7.00535">
        <ele>231</ele>
        <time>2012-09-16T14:58:25Z</time>
      </trkpt>
      <trkpt lat="43.62539" lon="7.0052">
        <ele>231</ele>
        <time>2012-09-16T14:58:30Z</time>
      </trkpt>
      <trkpt lat="43.62533" lon="7.00503">
        <ele>231</ele>
        <time>2012-09-16T14:58:35Z</time>
      </trkpt>
      <trkpt lat="43.62524" lon="7.00485">
        <ele>231</ele>
        <time>2012-09-16T14:58:40Z</time>
      </trkpt>
      <trkpt lat="43.62514" lon="7.00466">
        <ele>232</ele>
        <time>2012-09-16T14:58:45Z</time>
      </trkpt>
      <trkpt lat="43.62502" lon="7.00449">
        <ele>233</ele>
        <time>2012-09-16T14:58:50Z</time>
      </trkpt>
      <trkpt lat="43.62489" lon="7.00433">
        <ele>233</ele>
        <time>2012-09-16T14:58:55Z</time>
      </trkpt>
      <trkpt lat="43.62482" lon="7.00423">
        <ele>235</ele>
        <time>2012-09-16T14:59:01Z</time>
      </trkpt>
      <trkpt lat="43.62489" lon="7.00435">
        <ele>235</ele>
        <time>2012-09-16T14:59:06Z</time>
      </trkpt>
      <trkpt lat="43.62503" lon="7.0045">
        <ele>234</ele>
        <time>2012-09-16T14:59:11Z</time>
      </trkpt>
      <trkpt lat="43.62518" lon="7.00469">
        <ele>234</ele>
        <time>2012-09-16T14:59:16Z</time>
      </trkpt>
      <trkpt lat="43.6253" lon="7.00494">
        <ele>234</ele>
        <time>2012-09-16T14:59:21Z</time>
      </trkpt>
      <trkpt lat="43.6254" lon="7.00518">
        <ele>234</ele>
        <time>2012-09-16T14:59:26Z</time>
      </trkpt>
      <trkpt lat="43.62548" lon="7.00545">
        <ele>234</ele>
        <time>2012-09-16T14:59:31Z</time>
      </trkpt>
      <trkpt lat="43.62567" lon="7.00565">
        <ele>233</ele>
        <time>2012-09-16T14:59:36Z</time>
      </trkpt>
      <trkpt lat="43.62567" lon="7.00575">
        <ele>232</ele>
        <time>2012-09-16T14:59:41Z</time>
      </trkpt>
      <trkpt lat="43.62537" lon="7.00598">
        <ele>227</ele>
        <time>2012-09-16T14:59:46Z</time>
      </trkpt>
      <trkpt lat="43.62495" lon="7.00633">
        <ele>223</ele>
        <time>2012-09-16T14:59:51Z</time>
      </trkpt>
      <trkpt lat="43.62455" lon="7.00664">
        <ele>221</ele>
        <time>2012-09-16T14:59:56Z</time>
      </trkpt>
      <trkpt lat="43.6242" lon="7.00693">
        <ele>221</ele>
        <time>2012-09-16T15:00:01Z</time>
      </trkpt>
      <trkpt lat="43.6239" lon="7.00717">
        <ele>220</ele>
        <time>2012-09-16T15:00:06Z</time>
      </trkpt>
      <trkpt lat="43.62378" lon="7.00712">
        <ele>220</ele>
        <time>2012-09-16T15:00:11Z</time>
      </trkpt>
      <trkpt lat="43.6238" lon="7.00709">
        <ele>220</ele>
        <time>2012-09-16T15:00:18Z</time>
      </trkpt>
      <trkpt lat="43.62383" lon="7.00715">
        <ele>220</ele>
        <time>2012-09-16T15:00:24Z</time>
      </trkpt>
      <trkpt lat="43.62379" lon="7.0071">
        <ele>220</ele>
        <time>2012-09-16T15:00:29Z</time>
      </trkpt>
      <trkpt lat="43.62381" lon="7.00691">
        <ele>220</ele>
        <time>2012-09-16T15:00:34Z</time>
      </trkpt>
      <trkpt lat="43.62384" lon="7.0067">
        <ele>220</ele>
        <time>2012-09-16T15:00:39Z</time>
      </trkpt>
      <trkpt lat="43.62385" lon="7.00644">
        <ele>220</ele>
        <time>2012-09-16T15:00:44Z</time>
      </trkpt>
      <trkpt lat="43.62384" lon="7.00619">
        <ele>220</ele>
        <time>2012-09-16T15:00:49Z</time>
      </trkpt>
      <trkpt lat="43.62384" lon="7.00593">
        <ele>221</ele>
        <time>2012-09-16T15:00:54Z</time>
      </trkpt>
      <trkpt lat="43.62385" lon="7.00568">
        <ele>222</ele>
        <time>2012-09-16T15:00:59Z</time>
      </trkpt>
      <trkpt lat="43.62386" lon="7.00541">
        <ele>223</ele>
        <time>2012-09-16T15:01:04Z</time>
      </trkpt>
      <trkpt lat="43.62387" lon="7.00512">
        <ele>223</ele>
        <time>2012-09-16T15:01:09Z</time>
      </trkpt>
      <trkpt lat="43.62387" lon="7.00484">
        <ele>224</ele>
        <time>2012-09-16T15:01:14Z</time>
      </trkpt>
      <trkpt lat="43.62385" lon="7.00457">
        <ele>226</ele>
        <time>2012-09-16T15:01:19Z</time>
      </trkpt>
      <trkpt lat="43.62382" lon="7.00428">
        <ele>229</ele>
        <time>2012-09-16T15:01:24Z</time>
      </trkpt>
      <trkpt lat="43.62379" lon="7.00405">
        <ele>230</ele>
        <time>2012-09-16T15:01:29Z</time>
      </trkpt>
      <trkpt lat="43.62376" lon="7.0038">
        <ele>230</ele>
        <time>2012-09-16T15:01:34Z</time>
      </trkpt>
      <trkpt lat="43.62373" lon="7.00354">
        <ele>231</ele>
        <time>2012-09-16T15:01:39Z</time>
      </trkpt>
      <trkpt lat="43.62369" lon="7.00325">
        <ele>231</ele>
        <time>2012-09-16T15:01:44Z</time>
      </trkpt>
      <trkpt lat="43.62366" lon="7.00296">
        <ele>231</ele>
        <time>2012-09-16T15:01:49Z</time>
      </trkpt>
      <trkpt lat="43.62364" lon="7.00266">
        <ele>232</ele>
        <time>2012-09-16T15:01:54Z</time>
      </trkpt>
      <trkpt lat="43.62365" lon="7.00235">
        <ele>233</ele>
        <time>2012-09-16T15:01:59Z</time>
      </trkpt>
      <trkpt lat="43.6237" lon="7.00204">
        <ele>233</ele>
        <time>2012-09-16T15:02:04Z</time>
      </trkpt>
      <trkpt lat="43.62376" lon="7.00172">
        <ele>233</ele>
        <time>2012-09-16T15:02:09Z</time>
      </trkpt>
      <trkpt lat="43.62383" lon="7.00141">
        <ele>234</ele>
        <time>2012-09-16T15:02:14Z</time>
      </trkpt>
      <trkpt lat="43.6239" lon="7.00112">
        <ele>235</ele>
        <time>2012-09-16T15:02:19Z</time>
      </trkpt>
      <trkpt lat="43.62399" lon="7.00085">
        <ele>236</ele>
        <time>2012-09-16T15:02:24Z</time>
      </trkpt>
      <trkpt lat="43.62408" lon="7.00059">
        <ele>237</ele>
        <time>2012-09-16T15:02:29Z</time>
      </trkpt>
      <trkpt lat="43.62416" lon="7.00039">
        <ele>237</ele>
        <time>2012-09-16T15:02:34Z</time>
      </trkpt>
      <trkpt lat="43.62418" lon="7.00035">
        <ele>237</ele>
        <time>2012-09-16T15:02:55Z</time>
      </trkpt>
      <trkpt lat="43.62423" lon="7.0002">
        <ele>237</ele>
        <time>2012-09-16T15:03:00Z</time>
      </trkpt>
      <trkpt lat="43.62431" lon="6.99997">
        <ele>237</ele>
        <time>2012-09-16T15:03:05Z</time>
      </trkpt>
      <trkpt lat="43.62438" lon="6.99971">
        <ele>237</ele>
        <time>2012-09-16T15:03:10Z</time>
      </trkpt>
      <trkpt lat="43.62442" lon="6.99943">
        <ele>237</ele>
        <time>2012-09-16T15:03:15Z</time>
      </trkpt>
      <trkpt lat="43.62446" lon="6.9992">
        <ele>237</ele>
        <time>2012-09-16T15:03:20Z</time>
      </trkpt>
      <trkpt lat="43.62446" lon="6.99903">
        <ele>238</ele>
        <time>2012-09-16T15:03:25Z</time>
      </trkpt>
      <trkpt lat="43.62439" lon="6.99899">
        <ele>238</ele>
        <time>2012-09-16T15:03:30Z</time>
      </trkpt>
      <trkpt lat="43.62432" lon="6.99892">
        <ele>238</ele>
        <time>2012-09-16T15:03:35Z</time>
      </trkpt>
      <trkpt lat="43.62441" lon="6.99879">
        <ele>239</ele>
        <time>2012-09-16T15:03:40Z</time>
      </trkpt>
      <trkpt lat="43.62448" lon="6.99863">
        <ele>240</ele>
        <time>2012-09-16T15:03:45Z</time>
      </trkpt>
      <trkpt lat="43.62444" lon="6.99853">
        <ele>240</ele>
        <time>2012-09-16T15:03:50Z</time>
      </trkpt>
      <trkpt lat="43.62432" lon="6.99843">
        <ele>240</ele>
        <time>2012-09-16T15:03:55Z</time>
      </trkpt>
      <trkpt lat="43.62415" lon="6.99835">
        <ele>241</ele>
        <time>2012-09-16T15:04:00Z</time>
      </trkpt>
      <trkpt lat="43.62398" lon="6.99826">
        <ele>242</ele>
        <time>2012-09-16T15:04:05Z</time>
      </trkpt>
      <trkpt lat="43.62381" lon="6.99814">
        <ele>242</ele>
        <time>2012-09-16T15:04:10Z</time>
      </trkpt>
      <trkpt lat="43.62365" lon="6.99801">
        <ele>243</ele>
        <time>2012-09-16T15:04:15Z</time>
      </trkpt>
      <trkpt lat="43.62348" lon="6.9979">
        <ele>244</ele>
        <time>2012-09-16T15:04:20Z</time>
      </trkpt>
      <trkpt lat="43.62329" lon="6.99778">
        <ele>245</ele>
        <time>2012-09-16T15:04:25Z</time>
      </trkpt>
      <trkpt lat="43.62309" lon="6.99767">
        <ele>245</ele>
        <time>2012-09-16T15:04:30Z</time>
      </trkpt>
      <trkpt lat="43.62289" lon="6.99754">
        <ele>245</ele>
        <time>2012-09-16T15:04:35Z</time>
      </trkpt>
      <trkpt lat="43.62268" lon="6.99741">
        <ele>245</ele>
        <time>2012-09-16T15:04:40Z</time>
      </trkpt>
      <trkpt lat="43.62246" lon="6.9972">
        <ele>245</ele>
        <time>2012-09-16T15:04:45Z</time>
      </trkpt>
      <trkpt lat="43.62223" lon="6.99693">
        <ele>245</ele>
        <time>2012-09-16T15:04:50Z</time>
      </trkpt>
      <trkpt lat="43.62204" lon="6.99648">
        <ele>244</ele>
        <time>2012-09-16T15:04:55Z</time>
      </trkpt>
      <trkpt lat="43.62191" lon="6.99622">
        <ele>240</ele>
        <time>2012-09-16T15:05:00Z</time>
      </trkpt>
      <trkpt lat="43.62186" lon="6.99622">
        <ele>238</ele>
        <time>2012-09-16T15:05:05Z</time>
      </trkpt>
      <trkpt lat="43.62179" lon="6.99644">
        <ele>236</ele>
        <time>2012-09-16T15:05:10Z</time>
      </trkpt>
      <trkpt lat="43.62165" lon="6.99668">
        <ele>234</ele>
        <time>2012-09-16T15:05:15Z</time>
      </trkpt>
      <trkpt lat="43.62147" lon="6.99695">
        <ele>234</ele>
        <time>2012-09-16T15:05:20Z</time>
      </trkpt>
      <trkpt lat="43.62127" lon="6.99726">
        <ele>234</ele>
        <time>2012-09-16T15:05:25Z</time>
      </trkpt>
      <trkpt lat="43.62114" lon="6.99749">
        <ele>234</ele>
        <time>2012-09-16T15:05:30Z</time>
      </trkpt>
      <trkpt lat="43.62113" lon="6.99758">
        <ele>234</ele>
        <time>2012-09-16T15:05:35Z</time>
      </trkpt>
      <trkpt lat="43.62118" lon="6.99745">
        <ele>234</ele>
        <time>2012-09-16T15:05:40Z</time>
      </trkpt>
      <trkpt lat="43.62126" lon="6.99727">
        <ele>234</ele>
        <time>2012-09-16T15:05:45Z</time>
      </trkpt>
      <trkpt lat="43.62138" lon="6.99708">
        <ele>234</ele>
        <time>2012-09-16T15:05:50Z</time>
      </trkpt>
      <trkpt lat="43.62151" lon="6.9969">
        <ele>234</ele>
        <time>2012-09-16T15:05:55Z</time>
      </trkpt>
      <trkpt lat="43.62163" lon="6.99671">
        <ele>234</ele>
        <time>2012-09-16T15:06:00Z</time>
      </trkpt>
      <trkpt lat="43.62175" lon="6.99652">
        <ele>234</ele>
        <time>2012-09-16T15:06:05Z</time>
      </trkpt>
      <trkpt lat="43.62185" lon="6.99633">
        <ele>236</ele>
        <time>2012-09-16T15:06:10Z</time>
      </trkpt>
      <trkpt lat="43.62183" lon="6.99612">
        <ele>237</ele>
        <time>2012-09-16T15:06:15Z</time>
      </trkpt>
      <trkpt lat="43.62167" lon="6.99595">
        <ele>237</ele>
        <time>2012-09-16T15:06:20Z</time>
      </trkpt>
      <trkpt lat="43.6215" lon="6.99581">
        <ele>239</ele>
        <time>2012-09-16T15:06:25Z</time>
      </trkpt>
      <trkpt lat="43.62132" lon="6.99569">
        <ele>240</ele>
        <time>2012-09-16T15:06:30Z</time>
      </trkpt>
      <trkpt lat="43.62116" lon="6.99559">
        <ele>240</ele>
        <time>2012-09-16T15:06:35Z</time>
      </trkpt>
      <trkpt lat="43.62097" lon="6.99549">
        <ele>240</ele>
        <time>2012-09-16T15:06:40Z</time>
      </trkpt>
      <trkpt lat="43.62077" lon="6.9954">
        <ele>240</ele>
        <time>2012-09-16T15:06:45Z</time>
      </trkpt>
      <trkpt lat="43.62058" lon="6.99531">
        <ele>240</ele>
        <time>2012-09-16T15:06:50Z</time>
      </trkpt>
      <trkpt lat="43.62038" lon="6.99522">
        <ele>240</ele>
        <time>2012-09-16T15:06:55Z</time>
      </trkpt>
      <trkpt lat="43.62017" lon="6.99511">
        <ele>240</ele>
        <time>2012-09-16T15:07:00Z</time>
      </trkpt>
      <trkpt lat="43.61996" lon="6.99503">
        <ele>240</ele>
        <time>2012-09-16T15:07:05Z</time>
      </trkpt>
      <trkpt lat="43.61977" lon="6.9949">
        <ele>240</ele>
        <time>2012-09-16T15:07:10Z</time>
      </trkpt>
      <trkpt lat="43.61957" lon="6.99477">
        <ele>240</ele>
        <time>2012-09-16T15:07:15Z</time>
      </trkpt>
      <trkpt lat="43.61939" lon="6.99462">
        <ele>240</ele>
        <time>2012-09-16T15:07:20Z</time>
      </trkpt>
      <trkpt lat="43.61921" lon="6.99448">
        <ele>240</ele>
        <time>2012-09-16T15:07:25Z</time>
      </trkpt>
      <trkpt lat="43.61901" lon="6.99435">
        <ele>240</ele>
        <time>2012-09-16T15:07:30Z</time>
      </trkpt>
      <trkpt lat="43.61879" lon="6.99422">
        <ele>240</ele>
        <time>2012-09-16T15:07:35Z</time>
      </trkpt>
      <trkpt lat="43.61859" lon="6.99413">
        <ele>240</ele>
        <time>2012-09-16T15:07:40Z</time>
      </trkpt>
      <trkpt lat="43.61839" lon="6.99403">
        <ele>240</ele>
        <time>2012-09-16T15:07:45Z</time>
      </trkpt>
      <trkpt lat="43.61817" lon="6.99389">
        <ele>241</ele>
        <time>2012-09-16T15:07:50Z</time>
      </trkpt>
      <trkpt lat="43.61795" lon="6.99378">
        <ele>242</ele>
        <time>2012-09-16T15:07:55Z</time>
      </trkpt>
      <trkpt lat="43.61774" lon="6.99367">
        <ele>245</ele>
        <time>2012-09-16T15:08:00Z</time>
      </trkpt>
      <trkpt lat="43.61753" lon="6.99356">
        <ele>246</ele>
        <time>2012-09-16T15:08:05Z</time>
      </trkpt>
      <trkpt lat="43.61736" lon="6.99344">
        <ele>248</ele>
        <time>2012-09-16T15:08:10Z</time>
      </trkpt>
      <trkpt lat="43.61722" lon="6.99333">
        <ele>249</ele>
        <time>2012-09-16T15:08:15Z</time>
      </trkpt>
      <trkpt lat="43.61706" lon="6.99321">
        <ele>251</ele>
        <time>2012-09-16T15:08:20Z</time>
      </trkpt>
      <trkpt lat="43.61684" lon="6.99294">
        <ele>251</ele>
        <time>2012-09-16T15:08:25Z</time>
      </trkpt>
      <trkpt lat="43.61655" lon="6.9925">
        <ele>251</ele>
        <time>2012-09-16T15:08:30Z</time>
      </trkpt>
      <trkpt lat="43.61621" lon="6.99199">
        <ele>248</ele>
        <time>2012-09-16T15:08:35Z</time>
      </trkpt>
      <trkpt lat="43.6159" lon="6.99158">
        <ele>246</ele>
        <time>2012-09-16T15:08:40Z</time>
      </trkpt>
      <trkpt lat="43.61566" lon="6.99126">
        <ele>246</ele>
        <time>2012-09-16T15:08:45Z</time>
      </trkpt>
      <trkpt lat="43.61548" lon="6.99101">
        <ele>245</ele>
        <time>2012-09-16T15:08:50Z</time>
      </trkpt>
      <trkpt lat="43.61531" lon="6.99077">
        <ele>245</ele>
        <time>2012-09-16T15:08:55Z</time>
      </trkpt>
      <trkpt lat="43.61526" lon="6.99058">
        <ele>242</ele>
        <time>2012-09-16T15:09:00Z</time>
      </trkpt>
      <trkpt lat="43.61539" lon="6.99039">
        <ele>242</ele>
        <time>2012-09-16T15:09:05Z</time>
      </trkpt>
      <trkpt lat="43.61554" lon="6.99026">
        <ele>242</ele>
        <time>2012-09-16T15:09:10Z</time>
      </trkpt>
      <trkpt lat="43.61571" lon="6.99016">
        <ele>242</ele>
        <time>2012-09-16T15:09:15Z</time>
      </trkpt>
      <trkpt lat="43.61587" lon="6.99006">
        <ele>244</ele>
        <time>2012-09-16T15:09:20Z</time>
      </trkpt>
      <trkpt lat="43.61603" lon="6.98997">
        <ele>246</ele>
        <time>2012-09-16T15:09:25Z</time>
      </trkpt>
      <trkpt lat="43.61618" lon="6.98988">
        <ele>246</ele>
        <time>2012-09-16T15:09:30Z</time>
      </trkpt>
      <trkpt lat="43.61632" lon="6.98978">
        <ele>246</ele>
        <time>2012-09-16T15:09:35Z</time>
      </trkpt>
      <trkpt lat="43.61645" lon="6.98968">
        <ele>246</ele>
        <time>2012-09-16T15:09:40Z</time>
      </trkpt>
      <trkpt lat="43.6165" lon="6.98952">
        <ele>247</ele>
        <time>2012-09-16T15:09:45Z</time>
      </trkpt>
      <trkpt lat="43.61649" lon="6.98931">
        <ele>248</ele>
        <time>2012-09-16T15:09:50Z</time>
      </trkpt>
      <trkpt lat="43.6165" lon="6.98908">
        <ele>249</ele>
        <time>2012-09-16T15:09:55Z</time>
      </trkpt>
      <trkpt lat="43.61649" lon="6.98886">
        <ele>250</ele>
        <time>2012-09-16T15:10:00Z</time>
      </trkpt>
      <trkpt lat="43.6165" lon="6.98864">
        <ele>251</ele>
        <time>2012-09-16T15:10:05Z</time>
      </trkpt>
      <trkpt lat="43.6165" lon="6.98839">
        <ele>251</ele>
        <time>2012-09-16T15:10:10Z</time>
      </trkpt>
      <trkpt lat="43.6165" lon="6.98816">
        <ele>252</ele>
        <time>2012-09-16T15:10:15Z</time>
      </trkpt>
      <trkpt lat="43.61651" lon="6.98798">
        <ele>253</ele>
        <time>2012-09-16T15:10:20Z</time>
      </trkpt>
      <trkpt lat="43.61653" lon="6.98774">
        <ele>253</ele>
        <time>2012-09-16T15:10:25Z</time>
      </trkpt>
      <trkpt lat="43.61654" lon="6.98751">
        <ele>254</ele>
        <time>2012-09-16T15:10:30Z</time>
      </trkpt>
      <trkpt lat="43.61657" lon="6.98729">
        <ele>255</ele>
        <time>2012-09-16T15:10:35Z</time>
      </trkpt>
      <trkpt lat="43.61663" lon="6.98709">
        <ele>255</ele>
        <time>2012-09-16T15:10:40Z</time>
      </trkpt>
      <trkpt lat="43.61673" lon="6.98687">
        <ele>255</ele>
        <time>2012-09-16T15:10:45Z</time>
      </trkpt>
      <trkpt lat="43.61686" lon="6.98655">
        <ele>254</ele>
        <time>2012-09-16T15:10:50Z</time>
      </trkpt>
      <trkpt lat="43.61691" lon="6.9864">
        <ele>252</ele>
        <time>2012-09-16T15:10:55Z</time>
      </trkpt>
      <trkpt lat="43.61699" lon="6.98617">
        <ele>250</ele>
        <time>2012-09-16T15:11:00Z</time>
      </trkpt>
      <trkpt lat="43.61703" lon="6.98605">
        <ele>248</ele>
        <time>2012-09-16T15:11:05Z</time>
      </trkpt>
      <trkpt lat="43.61702" lon="6.9861">
        <ele>248</ele>
        <time>2012-09-16T15:11:10Z</time>
      </trkpt>
      <trkpt lat="43.61708" lon="6.98593">
        <ele>247</ele>
        <time>2012-09-16T15:11:15Z</time>
      </trkpt>
      <trkpt lat="43.61721" lon="6.9857">
        <ele>244</ele>
        <time>2012-09-16T15:11:20Z</time>
      </trkpt>
      <trkpt lat="43.61734" lon="6.98555">
        <ele>240</ele>
        <time>2012-09-16T15:11:25Z</time>
      </trkpt>
      <trkpt lat="43.61757" lon="6.98543">
        <ele>236</ele>
        <time>2012-09-16T15:11:30Z</time>
      </trkpt>
      <trkpt lat="43.61787" lon="6.98525">
        <ele>231</ele>
        <time>2012-09-16T15:11:35Z</time>
      </trkpt>
      <trkpt lat="43.6181" lon="6.98497">
        <ele>226</ele>
        <time>2012-09-16T15:11:40Z</time>
      </trkpt>
      <trkpt lat="43.61835" lon="6.98474">
        <ele>221</ele>
        <time>2012-09-16T15:11:45Z</time>
      </trkpt>
      <trkpt lat="43.61854" lon="6.98463">
        <ele>218</ele>
        <time>2012-09-16T15:11:50Z</time>
      </trkpt>
      <trkpt lat="43.61856" lon="6.98452">
        <ele>217</ele>
        <time>2012-09-16T15:11:55Z</time>
      </trkpt>
      <trkpt lat="43.61856" lon="6.98427">
        <ele>213</ele>
        <time>2012-09-16T15:12:00Z</time>
      </trkpt>
      <trkpt lat="43.61854" lon="6.98398">
        <ele>208</ele>
        <time>2012-09-16T15:12:05Z</time>
      </trkpt>
      <trkpt lat="43.61852" lon="6.98373">
        <ele>203</ele>
        <time>2012-09-16T15:12:10Z</time>
      </trkpt>
      <trkpt lat="43.61844" lon="6.98367">
        <ele>198</ele>
        <time>2012-09-16T15:12:15Z</time>
      </trkpt>
      <trkpt lat="43.61836" lon="6.98364">
        <ele>197</ele>
        <time>2012-09-16T15:12:20Z</time>
      </trkpt>
      <trkpt lat="43.61821" lon="6.98366">
        <ele>197</ele>
        <time>2012-09-16T15:12:25Z</time>
      </trkpt>
      <trkpt lat="43.61806" lon="6.98357">
        <ele>196</ele>
        <time>2012-09-16T15:12:30Z</time>
      </trkpt>
      <trkpt lat="43.61804" lon="6.98337">
        <ele>194</ele>
        <time>2012-09-16T15:12:35Z</time>
      </trkpt>
      <trkpt lat="43.61808" lon="6.98317">
        <ele>189</ele>
        <time>2012-09-16T15:12:40Z</time>
      </trkpt>
      <trkpt lat="43.61809" lon="6.98294">
        <ele>184</ele>
        <time>2012-09-16T15:12:45Z</time>
      </trkpt>
      <trkpt lat="43.61805" lon="6.98273">
        <ele>179</ele>
        <time>2012-09-16T15:12:50Z</time>
      </trkpt>
      <trkpt lat="43.618" lon="6.98257">
        <ele>174</ele>
        <time>2012-09-16T15:12:55Z</time>
      </trkpt>
      <trkpt lat="43.61804" lon="6.9825">
        <ele>170</ele>
        <time>2012-09-16T15:13:00Z</time>
      </trkpt>
      <trkpt lat="43.61815" lon="6.98243">
        <ele>170</ele>
        <time>2012-09-16T15:13:05Z</time>
      </trkpt>
      <trkpt lat="43.61832" lon="6.98236">
        <ele>170</ele>
        <time>2012-09-16T15:13:10Z</time>
      </trkpt>
      <trkpt lat="43.61849" lon="6.98231">
        <ele>170</ele>
        <time>2012-09-16T15:13:15Z</time>
      </trkpt>
      <trkpt lat="43.61866" lon="6.98226">
        <ele>170</ele>
        <time>2012-09-16T15:13:20Z</time>
      </trkpt>
      <trkpt lat="43.61885" lon="6.98221">
        <ele>170</ele>
        <time>2012-09-16T15:13:25Z</time>
      </trkpt>
      <trkpt lat="43.61903" lon="6.98216">
        <ele>170</ele>
        <time>2012-09-16T15:13:30Z</time>
      </trkpt>
      <trkpt lat="43.61917" lon="6.98204">
        <ele>170</ele>
        <time>2012-09-16T15:13:35Z</time>
      </trkpt>
      <trkpt lat="43.61932" lon="6.98191">
        <ele>170</ele>
        <time>2012-09-16T15:13:40Z</time>
      </trkpt>
      <trkpt lat="43.6195" lon="6.98185">
        <ele>170</ele>
        <time>2012-09-16T15:13:45Z</time>
      </trkpt>
      <trkpt lat="43.61971" lon="6.98176">
        <ele>171</ele>
        <time>2012-09-16T15:13:50Z</time>
      </trkpt>
      <trkpt lat="43.61989" lon="6.98161">
        <ele>172</ele>
        <time>2012-09-16T15:13:55Z</time>
      </trkpt>
      <trkpt lat="43.62004" lon="6.98146">
        <ele>172</ele>
        <time>2012-09-16T15:14:00Z</time>
      </trkpt>
      <trkpt lat="43.62017" lon="6.9814">
        <ele>172</ele>
        <time>2012-09-16T15:14:05Z</time>
      </trkpt>
      <trkpt lat="43.62035" lon="6.98134">
        <ele>172</ele>
        <time>2012-09-16T15:14:10Z</time>
      </trkpt>
      <trkpt lat="43.62054" lon="6.9813">
        <ele>172</ele>
        <time>2012-09-16T15:14:15Z</time>
      </trkpt>
      <trkpt lat="43.62074" lon="6.9813">
        <ele>172</ele>
        <time>2012-09-16T15:14:20Z</time>
      </trkpt>
      <trkpt lat="43.62094" lon="6.98135">
        <ele>172</ele>
        <time>2012-09-16T15:14:25Z</time>
      </trkpt>
      <trkpt lat="43.62113" lon="6.98134">
        <ele>172</ele>
        <time>2012-09-16T15:14:30Z</time>
      </trkpt>
      <trkpt lat="43.62135" lon="6.98126">
        <ele>172</ele>
        <time>2012-09-16T15:14:35Z</time>
      </trkpt>
      <trkpt lat="43.62154" lon="6.9812">
        <ele>172</ele>
        <time>2012-09-16T15:14:40Z</time>
      </trkpt>
      <trkpt lat="43.6216" lon="6.98118">
        <ele>172</ele>
        <time>2012-09-16T15:14:48Z</time>
      </trkpt>
      <trkpt lat="43.62163" lon="6.98117">
        <ele>172</ele>
        <time>2012-09-16T15:14:55Z</time>
      </trkpt>
      <trkpt lat="43.62165" lon="6.98117">
        <ele>175</ele>
        <time>2012-09-16T15:15:00Z</time>
      </trkpt>
      <trkpt lat="43.62172" lon="6.981">
        <ele>175</ele>
        <time>2012-09-16T15:15:05Z</time>
      </trkpt>
      <trkpt lat="43.62184" lon="6.9808">
        <ele>175</ele>
        <time>2012-09-16T15:15:10Z</time>
      </trkpt>
      <trkpt lat="43.62203" lon="6.98072">
        <ele>175</ele>
        <time>2012-09-16T15:15:15Z</time>
      </trkpt>
      <trkpt lat="43.62223" lon="6.98083">
        <ele>175</ele>
        <time>2012-09-16T15:15:20Z</time>
      </trkpt>
      <trkpt lat="43.62239" lon="6.98096">
        <ele>175</ele>
        <time>2012-09-16T15:15:25Z</time>
      </trkpt>
      <trkpt lat="43.62255" lon="6.98097">
        <ele>175</ele>
        <time>2012-09-16T15:15:30Z</time>
      </trkpt>
      <trkpt lat="43.62274" lon="6.98096">
        <ele>175</ele>
        <time>2012-09-16T15:15:35Z</time>
      </trkpt>
      <trkpt lat="43.62296" lon="6.98096">
        <ele>175</ele>
        <time>2012-09-16T15:15:40Z</time>
      </trkpt>
      <trkpt lat="43.62321" lon="6.98098">
        <ele>175</ele>
        <time>2012-09-16T15:15:45Z</time>
      </trkpt>
      <trkpt lat="43.62346" lon="6.98105">
        <ele>175</ele>
        <time>2012-09-16T15:15:50Z</time>
      </trkpt>
      <trkpt lat="43.62364" lon="6.98107">
        <ele>175</ele>
        <time>2012-09-16T15:15:55Z</time>
      </trkpt>
      <trkpt lat="43.62373" lon="6.98099">
        <ele>175</ele>
        <time>2012-09-16T15:16:00Z</time>
      </trkpt>
      <trkpt lat="43.62378" lon="6.98079">
        <ele>175</ele>
        <time>2012-09-16T15:16:05Z</time>
      </trkpt>
      <trkpt lat="43.62381" lon="6.98051">
        <ele>175</ele>
        <time>2012-09-16T15:16:10Z</time>
      </trkpt>
      <trkpt lat="43.62395" lon="6.98032">
        <ele>175</ele>
        <time>2012-09-16T15:16:15Z</time>
      </trkpt>
      <trkpt lat="43.62408" lon="6.98026">
        <ele>175</ele>
        <time>2012-09-16T15:16:20Z</time>
      </trkpt>
      <trkpt lat="43.6242" lon="6.98027">
        <ele>175</ele>
        <time>2012-09-16T15:16:25Z</time>
      </trkpt>
      <trkpt lat="43.62441" lon="6.98034">
        <ele>175</ele>
        <time>2012-09-16T15:16:30Z</time>
      </trkpt>
      <trkpt lat="43.62464" lon="6.98042">
        <ele>175</ele>
        <time>2012-09-16T15:16:35Z</time>
      </trkpt>
      <trkpt lat="43.62486" lon="6.98049">
        <ele>174</ele>
        <time>2012-09-16T15:16:40Z</time>
      </trkpt>
      <trkpt lat="43.62504" lon="6.98048">
        <ele>174</ele>
        <time>2012-09-16T15:16:45Z</time>
      </trkpt>
      <trkpt lat="43.62525" lon="6.98041">
        <ele>174</ele>
        <time>2012-09-16T15:16:50Z</time>
      </trkpt>
      <trkpt lat="43.62547" lon="6.9804">
        <ele>174</ele>
        <time>2012-09-16T15:16:55Z</time>
      </trkpt>
      <trkpt lat="43.62556" lon="6.98028">
        <ele>174</ele>
        <time>2012-09-16T15:17:00Z</time>
      </trkpt>
      <trkpt lat="43.62566" lon="6.98004">
        <ele>174</ele>
        <time>2012-09-16T15:17:05Z</time>
      </trkpt>
      <trkpt lat="43.62579" lon="6.97991">
        <ele>174</ele>
        <time>2012-09-16T15:17:10Z</time>
      </trkpt>
      <trkpt lat="43.62603" lon="6.97994">
        <ele>174</ele>
        <time>2012-09-16T15:17:15Z</time>
      </trkpt>
      <trkpt lat="43.62627" lon="6.97981">
        <ele>174</ele>
        <time>2012-09-16T15:17:20Z</time>
      </trkpt>
      <trkpt lat="43.62647" lon="6.97984">
        <ele>174</ele>
        <time>2012-09-16T15:17:25Z</time>
      </trkpt>
      <trkpt lat="43.62661" lon="6.97992">
        <ele>174</ele>
        <time>2012-09-16T15:17:30Z</time>
      </trkpt>
      <trkpt lat="43.62665" lon="6.98011">
        <ele>174</ele>
        <time>2012-09-16T15:17:35Z</time>
      </trkpt>
      <trkpt lat="43.62668" lon="6.98013">
        <ele>174</ele>
        <time>2012-09-16T15:17:44Z</time>
      </trkpt>
      <trkpt lat="43.62673" lon="6.98009">
        <ele>174</ele>
        <time>2012-09-16T15:17:50Z</time>
      </trkpt>
      <trkpt lat="43.62676" lon="6.98001">
        <ele>174</ele>
        <time>2012-09-16T15:17:55Z</time>
      </trkpt>
      <trkpt lat="43.62685" lon="6.97989">
        <ele>174</ele>
        <time>2012-09-16T15:18:00Z</time>
      </trkpt>
      <trkpt lat="43.62696" lon="6.97972">
        <ele>174</ele>
        <time>2012-09-16T15:18:05Z</time>
      </trkpt>
      <trkpt lat="43.62713" lon="6.9796">
        <ele>174</ele>
        <time>2012-09-16T15:18:10Z</time>
      </trkpt>
      <trkpt lat="43.62733" lon="6.97961">
        <ele>174</ele>
        <time>2012-09-16T15:18:15Z</time>
      </trkpt>
      <trkpt lat="43.62754" lon="6.97966">
        <ele>174</ele>
        <time>2012-09-16T15:18:20Z</time>
      </trkpt>
      <trkpt lat="43.62775" lon="6.97961">
        <ele>174</ele>
        <time>2012-09-16T15:18:25Z</time>
      </trkpt>
      <trkpt lat="43.62795" lon="6.97957">
        <ele>174</ele>
        <time>2012-09-16T15:18:31Z</time>
      </trkpt>
      <trkpt lat="43.62812" lon="6.9796">
        <ele>174</ele>
        <time>2012-09-16T15:18:36Z</time>
      </trkpt>
      <trkpt lat="43.62828" lon="6.97959">
        <ele>174</ele>
        <time>2012-09-16T15:18:41Z</time>
      </trkpt>
      <trkpt lat="43.62834" lon="6.97937">
        <ele>174</ele>
        <time>2012-09-16T15:18:46Z</time>
      </trkpt>
      <trkpt lat="43.62846" lon="6.97914">
        <ele>174</ele>
        <time>2012-09-16T15:18:51Z</time>
      </trkpt>
      <trkpt lat="43.62867" lon="6.97904">
        <ele>174</ele>
        <time>2012-09-16T15:18:56Z</time>
      </trkpt>
      <trkpt lat="43.6287" lon="6.97873">
        <ele>174</ele>
        <time>2012-09-16T15:19:02Z</time>
      </trkpt>
      <trkpt lat="43.62874" lon="6.97841">
        <ele>175</ele>
        <time>2012-09-16T15:19:07Z</time>
      </trkpt>
      <trkpt lat="43.62884" lon="6.97814">
        <ele>176</ele>
        <time>2012-09-16T15:19:12Z</time>
      </trkpt>
      <trkpt lat="43.62899" lon="6.97795">
        <ele>176</ele>
        <time>2012-09-16T15:19:17Z</time>
      </trkpt>
      <trkpt lat="43.62915" lon="6.97781">
        <ele>176</ele>
        <time>2012-09-16T15:19:22Z</time>
      </trkpt>
      <trkpt lat="43.62909" lon="6.97765">
        <ele>176</ele>
        <time>2012-09-16T15:19:28Z</time>
      </trkpt>
      <trkpt lat="43.62897" lon="6.97743">
        <ele>176</ele>
        <time>2012-09-16T15:19:33Z</time>
      </trkpt>
      <trkpt lat="43.62893" lon="6.9772">
        <ele>176</ele>
        <time>2012-09-16T15:19:38Z</time>
      </trkpt>
      <trkpt lat="43.629" lon="6.97701">
        <ele>176</ele>
        <time>2012-09-16T15:19:43Z</time>
      </trkpt>
      <trkpt lat="43.62904" lon="6.97694">
        <ele>176</ele>
        <time>2012-09-16T15:19:50Z</time>
      </trkpt>
      <trkpt lat="43.62907" lon="6.97697">
        <ele>176</ele>
        <time>2012-09-16T15:19:55Z</time>
      </trkpt>
      <trkpt lat="43.62907" lon="6.977">
        <ele>176</ele>
        <time>2012-09-16T15:20:01Z</time>
      </trkpt>
      <trkpt lat="43.62902" lon="6.97684">
        <ele>176</ele>
        <time>2012-09-16T15:20:06Z</time>
      </trkpt>
      <trkpt lat="43.62903" lon="6.97664">
        <ele>176</ele>
        <time>2012-09-16T15:20:11Z</time>
      </trkpt>
      <trkpt lat="43.62907" lon="6.97644">
        <ele>176</ele>
        <time>2012-09-16T15:20:16Z</time>
      </trkpt>
      <trkpt lat="43.62918" lon="6.97631">
        <ele>176</ele>
        <time>2012-09-16T15:20:21Z</time>
      </trkpt>
      <trkpt lat="43.62937" lon="6.97635">
        <ele>175</ele>
        <time>2012-09-16T15:20:26Z</time>
      </trkpt>
      <trkpt lat="43.6295" lon="6.97645">
        <ele>174</ele>
        <time>2012-09-16T15:20:31Z</time>
      </trkpt>
      <trkpt lat="43.62967" lon="6.97659">
        <ele>173</ele>
        <time>2012-09-16T15:20:37Z</time>
      </trkpt>
      <trkpt lat="43.62983" lon="6.9767">
        <ele>172</ele>
        <time>2012-09-16T15:20:42Z</time>
      </trkpt>
      <trkpt lat="43.63" lon="6.9768">
        <ele>171</ele>
        <time>2012-09-16T15:20:48Z</time>
      </trkpt>
      <trkpt lat="43.63011" lon="6.97671">
        <ele>171</ele>
        <time>2012-09-16T15:20:53Z</time>
      </trkpt>
      <trkpt lat="43.63017" lon="6.97645">
        <ele>171</ele>
        <time>2012-09-16T15:20:58Z</time>
      </trkpt>
      <trkpt lat="43.63027" lon="6.97623">
        <ele>171</ele>
        <time>2012-09-16T15:21:03Z</time>
      </trkpt>
      <trkpt lat="43.63047" lon="6.9762">
        <ele>171</ele>
        <time>2012-09-16T15:21:08Z</time>
      </trkpt>
      <trkpt lat="43.63069" lon="6.97625">
        <ele>171</ele>
        <time>2012-09-16T15:21:13Z</time>
      </trkpt>
      <trkpt lat="43.63086" lon="6.9761">
        <ele>171</ele>
        <time>2012-09-16T15:21:18Z</time>
      </trkpt>
      <trkpt lat="43.63091" lon="6.97578">
        <ele>171</ele>
        <time>2012-09-16T15:21:24Z</time>
      </trkpt>
      <trkpt lat="43.63095" lon="6.97552">
        <ele>171</ele>
        <time>2012-09-16T15:21:29Z</time>
      </trkpt>
      <trkpt lat="43.63108" lon="6.97534">
        <ele>171</ele>
        <time>2012-09-16T15:21:34Z</time>
      </trkpt>
      <trkpt lat="43.63121" lon="6.97517">
        <ele>171</ele>
        <time>2012-09-16T15:21:40Z</time>
      </trkpt>
      <trkpt lat="43.63126" lon="6.97505">
        <ele>171</ele>
        <time>2012-09-16T15:21:45Z</time>
      </trkpt>
      <trkpt lat="43.63133" lon="6.97484">
        <ele>171</ele>
        <time>2012-09-16T15:21:50Z</time>
      </trkpt>
      <trkpt lat="43.63144" lon="6.97466">
        <ele>171</ele>
        <time>2012-09-16T15:21:55Z</time>
      </trkpt>
      <trkpt lat="43.63162" lon="6.97461">
        <ele>171</ele>
        <time>2012-09-16T15:22:00Z</time>
      </trkpt>
      <trkpt lat="43.63188" lon="6.97468">
        <ele>171</ele>
        <time>2012-09-16T15:22:06Z</time>
      </trkpt>
      <trkpt lat="43.63201" lon="6.97462">
        <ele>171</ele>
        <time>2012-09-16T15:22:12Z</time>
      </trkpt>
      <trkpt lat="43.63218" lon="6.97447">
        <ele>171</ele>
        <time>2012-09-16T15:22:17Z</time>
      </trkpt>
      <trkpt lat="43.63235" lon="6.9743">
        <ele>171</ele>
        <time>2012-09-16T15:22:22Z</time>
      </trkpt>
      <trkpt lat="43.63259" lon="6.97417">
        <ele>171</ele>
        <time>2012-09-16T15:22:28Z</time>
      </trkpt>
      <trkpt lat="43.63281" lon="6.97408">
        <ele>171</ele>
        <time>2012-09-16T15:22:33Z</time>
      </trkpt>
      <trkpt lat="43.63301" lon="6.97403">
        <ele>171</ele>
        <time>2012-09-16T15:22:38Z</time>
      </trkpt>
      <trkpt lat="43.6333" lon="6.9741">
        <ele>171</ele>
        <time>2012-09-16T15:22:44Z</time>
      </trkpt>
      <trkpt lat="43.63347" lon="6.97431">
        <ele>171</ele>
        <time>2012-09-16T15:22:50Z</time>
      </trkpt>
      <trkpt lat="43.63364" lon="6.97432">
        <ele>171</ele>
        <time>2012-09-16T15:22:55Z</time>
      </trkpt>
      <trkpt lat="43.63383" lon="6.97441">
        <ele>171</ele>
        <time>2012-09-16T15:23:00Z</time>
      </trkpt>
      <trkpt lat="43.63401" lon="6.97441">
        <ele>171</ele>
        <time>2012-09-16T15:23:05Z</time>
      </trkpt>
      <trkpt lat="43.63406" lon="6.97424">
        <ele>171</ele>
        <time>2012-09-16T15:23:10Z</time>
      </trkpt>
      <trkpt lat="43.63407" lon="6.97399">
        <ele>171</ele>
        <time>2012-09-16T15:23:15Z</time>
      </trkpt>
      <trkpt lat="43.63418" lon="6.97383">
        <ele>171</ele>
        <time>2012-09-16T15:23:20Z</time>
      </trkpt>
      <trkpt lat="43.6343" lon="6.97368">
        <ele>171</ele>
        <time>2012-09-16T15:23:25Z</time>
      </trkpt>
      <trkpt lat="43.63432" lon="6.97348">
        <ele>171</ele>
        <time>2012-09-16T15:23:30Z</time>
      </trkpt>
      <trkpt lat="43.6341" lon="6.97339">
        <ele>171</ele>
        <time>2012-09-16T15:23:36Z</time>
      </trkpt>
      <trkpt lat="43.634" lon="6.97334">
        <ele>171</ele>
        <time>2012-09-16T15:23:41Z</time>
      </trkpt>
      <trkpt lat="43.6339" lon="6.97327">
        <ele>171</ele>
        <time>2012-09-16T15:23:46Z</time>
      </trkpt>
      <trkpt lat="43.63377" lon="6.97304">
        <ele>174</ele>
        <time>2012-09-16T15:23:52Z</time>
      </trkpt>
      <trkpt lat="43.63367" lon="6.9728">
        <ele>176</ele>
        <time>2012-09-16T15:23:57Z</time>
      </trkpt>
      <trkpt lat="43.63365" lon="6.97251">
        <ele>176</ele>
        <time>2012-09-16T15:24:02Z</time>
      </trkpt>
      <trkpt lat="43.63371" lon="6.97219">
        <ele>176</ele>
        <time>2012-09-16T15:24:08Z</time>
      </trkpt>
      <trkpt lat="43.63376" lon="6.97213">
        <ele>176</ele>
        <time>2012-09-16T15:24:14Z</time>
      </trkpt>
      <trkpt lat="43.63377" lon="6.97214">
        <ele>175</ele>
        <time>2012-09-16T15:24:21Z</time>
      </trkpt>
      <trkpt lat="43.63385" lon="6.9721">
        <ele>175</ele>
        <time>2012-09-16T15:24:26Z</time>
      </trkpt>
      <trkpt lat="43.634" lon="6.97211">
        <ele>175</ele>
        <time>2012-09-16T15:24:31Z</time>
      </trkpt>
      <trkpt lat="43.63417" lon="6.97218">
        <ele>174</ele>
        <time>2012-09-16T15:24:36Z</time>
      </trkpt>
      <trkpt lat="43.63437" lon="6.97224">
        <ele>174</ele>
        <time>2012-09-16T15:24:41Z</time>
      </trkpt>
      <trkpt lat="43.63455" lon="6.97226">
        <ele>174</ele>
        <time>2012-09-16T15:24:46Z</time>
      </trkpt>
      <trkpt lat="43.63473" lon="6.9722">
        <ele>174</ele>
        <time>2012-09-16T15:24:51Z</time>
      </trkpt>
      <trkpt lat="43.63488" lon="6.97213">
        <ele>174</ele>
        <time>2012-09-16T15:24:56Z</time>
      </trkpt>
      <trkpt lat="43.63499" lon="6.97206">
        <ele>174</ele>
        <time>2012-09-16T15:25:01Z</time>
      </trkpt>
      <trkpt lat="43.63518" lon="6.97201">
        <ele>174</ele>
        <time>2012-09-16T15:25:06Z</time>
      </trkpt>
      <trkpt lat="43.63545" lon="6.97195">
        <ele>174</ele>
        <time>2012-09-16T15:25:12Z</time>
      </trkpt>
      <trkpt lat="43.63567" lon="6.97196">
        <ele>174</ele>
        <time>2012-09-16T15:25:17Z</time>
      </trkpt>
      <trkpt lat="43.63588" lon="6.97193">
        <ele>174</ele>
        <time>2012-09-16T15:25:22Z</time>
      </trkpt>
      <trkpt lat="43.63603" lon="6.97174">
        <ele>174</ele>
        <time>2012-09-16T15:25:27Z</time>
      </trkpt>
      <trkpt lat="43.6361" lon="6.97148">
        <ele>174</ele>
        <time>2012-09-16T15:25:32Z</time>
      </trkpt>
      <trkpt lat="43.63625" lon="6.97154">
        <ele>174</ele>
        <time>2012-09-16T15:25:37Z</time>
      </trkpt>
      <trkpt lat="43.63644" lon="6.97173">
        <ele>174</ele>
        <time>2012-09-16T15:25:42Z</time>
      </trkpt>
      <trkpt lat="43.63665" lon="6.97177">
        <ele>173</ele>
        <time>2012-09-16T15:25:47Z</time>
      </trkpt>
      <trkpt lat="43.63687" lon="6.97179">
        <ele>173</ele>
        <time>2012-09-16T15:25:52Z</time>
      </trkpt>
      <trkpt lat="43.63703" lon="6.97173">
        <ele>173</ele>
        <time>2012-09-16T15:25:57Z</time>
      </trkpt>
      <trkpt lat="43.6371" lon="6.97155">
        <ele>173</ele>
        <time>2012-09-16T15:26:02Z</time>
      </trkpt>
      <trkpt lat="43.63712" lon="6.97124">
        <ele>173</ele>
        <time>2012-09-16T15:26:07Z</time>
      </trkpt>
      <trkpt lat="43.6371" lon="6.97096">
        <ele>173</ele>
        <time>2012-09-16T15:26:12Z</time>
      </trkpt>
      <trkpt lat="43.63705" lon="6.97075">
        <ele>173</ele>
        <time>2012-09-16T15:26:17Z</time>
      </trkpt>
      <trkpt lat="43.637" lon="6.97058">
        <ele>173</ele>
        <time>2012-09-16T15:26:22Z</time>
      </trkpt>
      <trkpt lat="43.63699" lon="6.9705">
        <ele>173</ele>
        <time>2012-09-16T15:26:28Z</time>
      </trkpt>
      <trkpt lat="43.63701" lon="6.97048">
        <ele>174</ele>
        <time>2012-09-16T15:26:33Z</time>
      </trkpt>
      <trkpt lat="43.63701" lon="6.97038">
        <ele>174</ele>
        <time>2012-09-16T15:26:39Z</time>
      </trkpt>
      <trkpt lat="43.63699" lon="6.9703">
        <ele>174</ele>
        <time>2012-09-16T15:26:44Z</time>
      </trkpt>
      <trkpt lat="43.63699" lon="6.97022">
        <ele>174</ele>
        <time>2012-09-16T15:26:49Z</time>
      </trkpt>
      <trkpt lat="43.63699" lon="6.97012">
        <ele>174</ele>
        <time>2012-09-16T15:26:54Z</time>
      </trkpt>
      <trkpt lat="43.63699" lon="6.96999">
        <ele>174</ele>
        <time>2012-09-16T15:26:59Z</time>
      </trkpt>
      <trkpt lat="43.63707" lon="6.96979">
        <ele>174</ele>
        <time>2012-09-16T15:27:04Z</time>
      </trkpt>
      <trkpt lat="43.63725" lon="6.96969">
        <ele>174</ele>
        <time>2012-09-16T15:27:09Z</time>
      </trkpt>
      <trkpt lat="43.63748" lon="6.96963">
        <ele>174</ele>
        <time>2012-09-16T15:27:14Z</time>
      </trkpt>
      <trkpt lat="43.63771" lon="6.9697">
        <ele>174</ele>
        <time>2012-09-16T15:27:19Z</time>
      </trkpt>
      <trkpt lat="43.63789" lon="6.96981">
        <ele>174</ele>
        <time>2012-09-16T15:27:24Z</time>
      </trkpt>
      <trkpt lat="43.63807" lon="6.96998">
        <ele>174</ele>
        <time>2012-09-16T15:27:29Z</time>
      </trkpt>
      <trkpt lat="43.63824" lon="6.97008">
        <ele>174</ele>
        <time>2012-09-16T15:27:34Z</time>
      </trkpt>
      <trkpt lat="43.63839" lon="6.96999">
        <ele>174</ele>
        <time>2012-09-16T15:27:39Z</time>
      </trkpt>
      <trkpt lat="43.63853" lon="6.96973">
        <ele>174</ele>
        <time>2012-09-16T15:27:44Z</time>
      </trkpt>
      <trkpt lat="43.63866" lon="6.96947">
        <ele>174</ele>
        <time>2012-09-16T15:27:49Z</time>
      </trkpt>
      <trkpt lat="43.63883" lon="6.96934">
        <ele>174</ele>
        <time>2012-09-16T15:27:54Z</time>
      </trkpt>
      <trkpt lat="43.63895" lon="6.96913">
        <ele>174</ele>
        <time>2012-09-16T15:27:59Z</time>
      </trkpt>
      <trkpt lat="43.63908" lon="6.96889">
        <ele>175</ele>
        <time>2012-09-16T15:28:04Z</time>
      </trkpt>
      <trkpt lat="43.63921" lon="6.96864">
        <ele>175</ele>
        <time>2012-09-16T15:28:09Z</time>
      </trkpt>
      <trkpt lat="43.63928" lon="6.96833">
        <ele>175</ele>
        <time>2012-09-16T15:28:14Z</time>
      </trkpt>
      <trkpt lat="43.63936" lon="6.9681">
        <ele>175</ele>
        <time>2012-09-16T15:28:19Z</time>
      </trkpt>
      <trkpt lat="43.63952" lon="6.96797">
        <ele>175</ele>
        <time>2012-09-16T15:28:24Z</time>
      </trkpt>
      <trkpt lat="43.63974" lon="6.96788">
        <ele>175</ele>
        <time>2012-09-16T15:28:29Z</time>
      </trkpt>
      <trkpt lat="43.63995" lon="6.96769">
        <ele>175</ele>
        <time>2012-09-16T15:28:34Z</time>
      </trkpt>
      <trkpt lat="43.64003" lon="6.96736">
        <ele>175</ele>
        <time>2012-09-16T15:28:39Z</time>
      </trkpt>
      <trkpt lat="43.64014" lon="6.96713">
        <ele>175</ele>
        <time>2012-09-16T15:28:44Z</time>
      </trkpt>
      <trkpt lat="43.64035" lon="6.96715">
        <ele>175</ele>
        <time>2012-09-16T15:28:49Z</time>
      </trkpt>
      <trkpt lat="43.64049" lon="6.96735">
        <ele>175</ele>
        <time>2012-09-16T15:28:54Z</time>
      </trkpt>
      <trkpt lat="43.64068" lon="6.96746">
        <ele>175</ele>
        <time>2012-09-16T15:28:59Z</time>
      </trkpt>
      <trkpt lat="43.6408" lon="6.96749">
        <ele>175</ele>
        <time>2012-09-16T15:29:04Z</time>
      </trkpt>
      <trkpt lat="43.64088" lon="6.96733">
        <ele>175</ele>
        <time>2012-09-16T15:29:09Z</time>
      </trkpt>
      <trkpt lat="43.64092" lon="6.96714">
        <ele>175</ele>
        <time>2012-09-16T15:29:14Z</time>
      </trkpt>
      <trkpt lat="43.64088" lon="6.96705">
        <ele>175</ele>
        <time>2012-09-16T15:29:19Z</time>
      </trkpt>
      <trkpt lat="43.64075" lon="6.96694">
        <ele>175</ele>
        <time>2012-09-16T15:29:24Z</time>
      </trkpt>
      <trkpt lat="43.64061" lon="6.96671">
        <ele>175</ele>
        <time>2012-09-16T15:29:29Z</time>
      </trkpt>
      <trkpt lat="43.64049" lon="6.96642">
        <ele>175</ele>
        <time>2012-09-16T15:29:34Z</time>
      </trkpt>
      <trkpt lat="43.64045" lon="6.96617">
        <ele>176</ele>
        <time>2012-09-16T15:29:39Z</time>
      </trkpt>
      <trkpt lat="43.64049" lon="6.96588">
        <ele>176</ele>
        <time>2012-09-16T15:29:44Z</time>
      </trkpt>
      <trkpt lat="43.64055" lon="6.96558">
        <ele>176</ele>
        <time>2012-09-16T15:29:49Z</time>
      </trkpt>
      <trkpt lat="43.64062" lon="6.96524">
        <ele>176</ele>
        <time>2012-09-16T15:29:54Z</time>
      </trkpt>
      <trkpt lat="43.64077" lon="6.96494">
        <ele>176</ele>
        <time>2012-09-16T15:29:59Z</time>
      </trkpt>
      <trkpt lat="43.64088" lon="6.96479">
        <ele>176</ele>
        <time>2012-09-16T15:30:04Z</time>
      </trkpt>
      <trkpt lat="43.64098" lon="6.96461">
        <ele>176</ele>
        <time>2012-09-16T15:30:09Z</time>
      </trkpt>
      <trkpt lat="43.64115" lon="6.96442">
        <ele>176</ele>
        <time>2012-09-16T15:30:14Z</time>
      </trkpt>
      <trkpt lat="43.64138" lon="6.96433">
        <ele>176</ele>
        <time>2012-09-16T15:30:19Z</time>
      </trkpt>
      <trkpt lat="43.64161" lon="6.96431">
        <ele>176</ele>
        <time>2012-09-16T15:30:24Z</time>
      </trkpt>
      <trkpt lat="43.64181" lon="6.9643">
        <ele>177</ele>
        <time>2012-09-16T15:30:29Z</time>
      </trkpt>
      <trkpt lat="43.64196" lon="6.96415">
        <ele>177</ele>
        <time>2012-09-16T15:30:34Z</time>
      </trkpt>
      <trkpt lat="43.64209" lon="6.96399">
        <ele>177</ele>
        <time>2012-09-16T15:30:39Z</time>
      </trkpt>
      <trkpt lat="43.64217" lon="6.96389">
        <ele>177</ele>
        <time>2012-09-16T15:30:44Z</time>
      </trkpt>
      <trkpt lat="43.64228" lon="6.96373">
        <ele>177</ele>
        <time>2012-09-16T15:30:49Z</time>
      </trkpt>
      <trkpt lat="43.64238" lon="6.9636">
        <ele>177</ele>
        <time>2012-09-16T15:30:54Z</time>
      </trkpt>
      <trkpt lat="43.64251" lon="6.96344">
        <ele>177</ele>
        <time>2012-09-16T15:30:59Z</time>
      </trkpt>
      <trkpt lat="43.64269" lon="6.96328">
        <ele>177</ele>
        <time>2012-09-16T15:31:04Z</time>
      </trkpt>
      <trkpt lat="43.64292" lon="6.96324">
        <ele>177</ele>
        <time>2012-09-16T15:31:09Z</time>
      </trkpt>
      <trkpt lat="43.64315" lon="6.96311">
        <ele>178</ele>
        <time>2012-09-16T15:31:14Z</time>
      </trkpt>
      <trkpt lat="43.64332" lon="6.96293">
        <ele>179</ele>
        <time>2012-09-16T15:31:19Z</time>
      </trkpt>
      <trkpt lat="43.6435" lon="6.96279">
        <ele>179</ele>
        <time>2012-09-16T15:31:24Z</time>
      </trkpt>
      <trkpt lat="43.64375" lon="6.96274">
        <ele>179</ele>
        <time>2012-09-16T15:31:29Z</time>
      </trkpt>
      <trkpt lat="43.64398" lon="6.96269">
        <ele>179</ele>
        <time>2012-09-16T15:31:34Z</time>
      </trkpt>
      <trkpt lat="43.64419" lon="6.96272">
        <ele>179</ele>
        <time>2012-09-16T15:31:39Z</time>
      </trkpt>
      <trkpt lat="43.64441" lon="6.96268">
        <ele>179</ele>
        <time>2012-09-16T15:31:44Z</time>
      </trkpt>
      <trkpt lat="43.64463" lon="6.96255">
        <ele>179</ele>
        <time>2012-09-16T15:31:49Z</time>
      </trkpt>
      <trkpt lat="43.64489" lon="6.96246">
        <ele>179</ele>
        <time>2012-09-16T15:31:54Z</time>
      </trkpt>
      <trkpt lat="43.64515" lon="6.96239">
        <ele>179</ele>
        <time>2012-09-16T15:31:59Z</time>
      </trkpt>
      <trkpt lat="43.64537" lon="6.96234">
        <ele>179</ele>
        <time>2012-09-16T15:32:04Z</time>
      </trkpt>
      <trkpt lat="43.64557" lon="6.96236">
        <ele>179</ele>
        <time>2012-09-16T15:32:09Z</time>
      </trkpt>
      <trkpt lat="43.64574" lon="6.96233">
        <ele>179</ele>
        <time>2012-09-16T15:32:14Z</time>
      </trkpt>
      <trkpt lat="43.64588" lon="6.96219">
        <ele>179</ele>
        <time>2012-09-16T15:32:19Z</time>
      </trkpt>
      <trkpt lat="43.64608" lon="6.9621">
        <ele>179</ele>
        <time>2012-09-16T15:32:24Z</time>
      </trkpt>
      <trkpt lat="43.64625" lon="6.96203">
        <ele>179</ele>
        <time>2012-09-16T15:32:29Z</time>
      </trkpt>
      <trkpt lat="43.64646" lon="6.96204">
        <ele>179</ele>
        <time>2012-09-16T15:32:34Z</time>
      </trkpt>
      <trkpt lat="43.64666" lon="6.96212">
        <ele>179</ele>
        <time>2012-09-16T15:32:39Z</time>
      </trkpt>
      <trkpt lat="43.64689" lon="6.96217">
        <ele>179</ele>
        <time>2012-09-16T15:32:44Z</time>
      </trkpt>
      <trkpt lat="43.64706" lon="6.96217">
        <ele>179</ele>
        <time>2012-09-16T15:32:49Z</time>
      </trkpt>
      <trkpt lat="43.64727" lon="6.96214">
        <ele>179</ele>
        <time>2012-09-16T15:32:54Z</time>
      </trkpt>
      <trkpt lat="43.64747" lon="6.96207">
        <ele>179</ele>
        <time>2012-09-16T15:32:59Z</time>
      </trkpt>
      <trkpt lat="43.64753" lon="6.96205">
        <ele>179</ele>
        <time>2012-09-16T15:33:04Z</time>
      </trkpt>
      <trkpt lat="43.64754" lon="6.96205">
        <ele>179</ele>
        <time>2012-09-16T15:33:09Z</time>
      </trkpt>
      <trkpt lat="43.64761" lon="6.96191">
        <ele>179</ele>
        <time>2012-09-16T15:33:14Z</time>
      </trkpt>
      <trkpt lat="43.6477" lon="6.96173">
        <ele>179</ele>
        <time>2012-09-16T15:33:19Z</time>
      </trkpt>
      <trkpt lat="43.64777" lon="6.96161">
        <ele>179</ele>
        <time>2012-09-16T15:33:24Z</time>
      </trkpt>
      <trkpt lat="43.6478" lon="6.96157">
        <ele>179</ele>
        <time>2012-09-16T15:33:30Z</time>
      </trkpt>
      <trkpt lat="43.64788" lon="6.96147">
        <ele>179</ele>
        <time>2012-09-16T15:33:35Z</time>
      </trkpt>
      <trkpt lat="43.64797" lon="6.96128">
        <ele>179</ele>
        <time>2012-09-16T15:33:40Z</time>
      </trkpt>
      <trkpt lat="43.64806" lon="6.96103">
        <ele>179</ele>
        <time>2012-09-16T15:33:45Z</time>
      </trkpt>
      <trkpt lat="43.64822" lon="6.96087">
        <ele>179</ele>
        <time>2012-09-16T15:33:50Z</time>
      </trkpt>
      <trkpt lat="43.64844" lon="6.96081">
        <ele>179</ele>
        <time>2012-09-16T15:33:55Z</time>
      </trkpt>
      <trkpt lat="43.64864" lon="6.96077">
        <ele>179</ele>
        <time>2012-09-16T15:34:00Z</time>
      </trkpt>
      <trkpt lat="43.6487" lon="6.9606">
        <ele>179</ele>
        <time>2012-09-16T15:34:05Z</time>
      </trkpt>
      <trkpt lat="43.64863" lon="6.96037">
        <ele>179</ele>
        <time>2012-09-16T15:34:10Z</time>
      </trkpt>
      <trkpt lat="43.64856" lon="6.96014">
        <ele>179</ele>
        <time>2012-09-16T15:34:15Z</time>
      </trkpt>
      <trkpt lat="43.64852" lon="6.95987">
        <ele>178</ele>
        <time>2012-09-16T15:34:20Z</time>
      </trkpt>
      <trkpt lat="43.6486" lon="6.95959">
        <ele>178</ele>
        <time>2012-09-16T15:34:25Z</time>
      </trkpt>
      <trkpt lat="43.64882" lon="6.95942">
        <ele>178</ele>
        <time>2012-09-16T15:34:30Z</time>
      </trkpt>
      <trkpt lat="43.64904" lon="6.95933">
        <ele>178</ele>
        <time>2012-09-16T15:34:35Z</time>
      </trkpt>
      <trkpt lat="43.64918" lon="6.95933">
        <ele>178</ele>
        <time>2012-09-16T15:34:41Z</time>
      </trkpt>
      <trkpt lat="43.6492" lon="6.95935">
        <ele>178</ele>
        <time>2012-09-16T15:34:52Z</time>
      </trkpt>
      <trkpt lat="43.64921" lon="6.95936">
        <ele>178</ele>
        <time>2012-09-16T15:34:57Z</time>
      </trkpt>
      <trkpt lat="43.64927" lon="6.9594">
        <ele>178</ele>
        <time>2012-09-16T15:35:02Z</time>
      </trkpt>
      <trkpt lat="43.64938" lon="6.95951">
        <ele>178</ele>
        <time>2012-09-16T15:35:07Z</time>
      </trkpt>
      <trkpt lat="43.64948" lon="6.95964">
        <ele>178</ele>
        <time>2012-09-16T15:35:12Z</time>
      </trkpt>
      <trkpt lat="43.64968" lon="6.95996">
        <ele>178</ele>
        <time>2012-09-16T15:35:17Z</time>
      </trkpt>
      <trkpt lat="43.64983" lon="6.96009">
        <ele>178</ele>
        <time>2012-09-16T15:35:22Z</time>
      </trkpt>
      <trkpt lat="43.64985" lon="6.96012">
        <ele>178</ele>
        <time>2012-09-16T15:35:30Z</time>
      </trkpt>
      <trkpt lat="43.64991" lon="6.96019">
        <ele>178</ele>
        <time>2012-09-16T15:35:35Z</time>
      </trkpt>
      <trkpt lat="43.64998" lon="6.96023">
        <ele>178</ele>
        <time>2012-09-16T15:35:40Z</time>
      </trkpt>
      <trkpt lat="43.65009" lon="6.96026">
        <ele>178</ele>
        <time>2012-09-16T15:35:45Z</time>
      </trkpt>
      <trkpt lat="43.65025" lon="6.96031">
        <ele>178</ele>
        <time>2012-09-16T15:35:50Z</time>
      </trkpt>
      <trkpt lat="43.65038" lon="6.96041">
        <ele>178</ele>
        <time>2012-09-16T15:35:55Z</time>
      </trkpt>
      <trkpt lat="43.65051" lon="6.9606">
        <ele>178</ele>
        <time>2012-09-16T15:36:00Z</time>
      </trkpt>
      <trkpt lat="43.65064" lon="6.96081">
        <ele>178</ele>
        <time>2012-09-16T15:36:05Z</time>
      </trkpt>
      <trkpt lat="43.65079" lon="6.961">
        <ele>178</ele>
        <time>2012-09-16T15:36:10Z</time>
      </trkpt>
      <trkpt lat="43.65099" lon="6.96107">
        <ele>178</ele>
        <time>2012-09-16T15:36:15Z</time>
      </trkpt>
      <trkpt lat="43.65118" lon="6.96097">
        <ele>178</ele>
        <time>2012-09-16T15:36:20Z</time>
      </trkpt>
      <trkpt lat="43.65141" lon="6.96091">
        <ele>178</ele>
        <time>2012-09-16T15:36:25Z</time>
      </trkpt>
      <trkpt lat="43.65157" lon="6.96121">
        <ele>178</ele>
        <time>2012-09-16T15:36:30Z</time>
      </trkpt>
      <trkpt lat="43.65164" lon="6.96159">
        <ele>178</ele>
        <time>2012-09-16T15:36:35Z</time>
      </trkpt>
      <trkpt lat="43.65166" lon="6.96194">
        <ele>178</ele>
        <time>2012-09-16T15:36:40Z</time>
      </trkpt>
      <trkpt lat="43.65165" lon="6.9623">
        <ele>178</ele>
        <time>2012-09-16T15:36:45Z</time>
      </trkpt>
      <trkpt lat="43.65167" lon="6.96261">
        <ele>178</ele>
        <time>2012-09-16T15:36:50Z</time>
      </trkpt>
      <trkpt lat="43.65179" lon="6.96272">
        <ele>177</ele>
        <time>2012-09-16T15:36:55Z</time>
      </trkpt>
      <trkpt lat="43.65197" lon="6.96262">
        <ele>177</ele>
        <time>2012-09-16T15:37:00Z</time>
      </trkpt>
      <trkpt lat="43.65221" lon="6.96268">
        <ele>177</ele>
        <time>2012-09-16T15:37:05Z</time>
      </trkpt>
      <trkpt lat="43.65244" lon="6.96276">
        <ele>177</ele>
        <time>2012-09-16T15:37:10Z</time>
      </trkpt>
      <trkpt lat="43.65256" lon="6.96275">
        <ele>177</ele>
        <time>2012-09-16T15:37:15Z</time>
      </trkpt>
      <trkpt lat="43.65255" lon="6.9627">
        <ele>177</ele>
        <time>2012-09-16T15:37:21Z</time>
      </trkpt>
      <trkpt lat="43.65248" lon="6.96254">
        <ele>177</ele>
        <time>2012-09-16T15:37:26Z</time>
      </trkpt>
      <trkpt lat="43.65233" lon="6.9624">
        <ele>177</ele>
        <time>2012-09-16T15:37:31Z</time>
      </trkpt>
      <trkpt lat="43.6522" lon="6.96215">
        <ele>177</ele>
        <time>2012-09-16T15:37:36Z</time>
      </trkpt>
      <trkpt lat="43.65214" lon="6.96187">
        <ele>177</ele>
        <time>2012-09-16T15:37:41Z</time>
      </trkpt>
      <trkpt lat="43.65218" lon="6.96159">
        <ele>177</ele>
        <time>2012-09-16T15:37:46Z</time>
      </trkpt>
      <trkpt lat="43.65221" lon="6.96129">
        <ele>177</ele>
        <time>2012-09-16T15:37:51Z</time>
      </trkpt>
      <trkpt lat="43.65224" lon="6.96096">
        <ele>177</ele>
        <time>2012-09-16T15:37:56Z</time>
      </trkpt>
      <trkpt lat="43.65239" lon="6.96064">
        <ele>177</ele>
        <time>2012-09-16T15:38:01Z</time>
      </trkpt>
      <trkpt lat="43.65246" lon="6.96037">
        <ele>177</ele>
        <time>2012-09-16T15:38:06Z</time>
      </trkpt>
      <trkpt lat="43.65238" lon="6.96011">
        <ele>177</ele>
        <time>2012-09-16T15:38:11Z</time>
      </trkpt>
      <trkpt lat="43.65232" lon="6.95983">
        <ele>177</ele>
        <time>2012-09-16T15:38:16Z</time>
      </trkpt>
      <trkpt lat="43.65236" lon="6.95954">
        <ele>177</ele>
        <time>2012-09-16T15:38:21Z</time>
      </trkpt>
      <trkpt lat="43.65245" lon="6.95933">
        <ele>177</ele>
        <time>2012-09-16T15:38:26Z</time>
      </trkpt>
      <trkpt lat="43.6526" lon="6.9591">
        <ele>177</ele>
        <time>2012-09-16T15:38:31Z</time>
      </trkpt>
      <trkpt lat="43.65278" lon="6.95892">
        <ele>177</ele>
        <time>2012-09-16T15:38:36Z</time>
      </trkpt>
      <trkpt lat="43.65303" lon="6.95881">
        <ele>177</ele>
        <time>2012-09-16T15:38:41Z</time>
      </trkpt>
      <trkpt lat="43.65317" lon="6.95878">
        <ele>179</ele>
        <time>2012-09-16T15:38:46Z</time>
      </trkpt>
      <trkpt lat="43.65318" lon="6.95876">
        <ele>179</ele>
        <time>2012-09-16T15:38:52Z</time>
      </trkpt>
      <trkpt lat="43.65326" lon="6.9588">
        <ele>179</ele>
        <time>2012-09-16T15:38:57Z</time>
      </trkpt>
      <trkpt lat="43.65338" lon="6.95886">
        <ele>179</ele>
        <time>2012-09-16T15:39:02Z</time>
      </trkpt>
      <trkpt lat="43.65356" lon="6.959">
        <ele>179</ele>
        <time>2012-09-16T15:39:07Z</time>
      </trkpt>
      <trkpt lat="43.65374" lon="6.95919">
        <ele>179</ele>
        <time>2012-09-16T15:39:12Z</time>
      </trkpt>
      <trkpt lat="43.65391" lon="6.95917">
        <ele>179</ele>
        <time>2012-09-16T15:39:17Z</time>
      </trkpt>
      <trkpt lat="43.65395" lon="6.9589">
        <ele>179</ele>
        <time>2012-09-16T15:39:22Z</time>
      </trkpt>
      <trkpt lat="43.65399" lon="6.95861">
        <ele>179</ele>
        <time>2012-09-16T15:39:27Z</time>
      </trkpt>
      <trkpt lat="43.65411" lon="6.95835">
        <ele>179</ele>
        <time>2012-09-16T15:39:32Z</time>
      </trkpt>
      <trkpt lat="43.65429" lon="6.95823">
        <ele>179</ele>
        <time>2012-09-16T15:39:37Z</time>
      </trkpt>
      <trkpt lat="43.6545" lon="6.95823">
        <ele>179</ele>
        <time>2012-09-16T15:39:42Z</time>
      </trkpt>
      <trkpt lat="43.65469" lon="6.95816">
        <ele>179</ele>
        <time>2012-09-16T15:39:47Z</time>
      </trkpt>
      <trkpt lat="43.6549" lon="6.95805">
        <ele>179</ele>
        <time>2012-09-16T15:39:52Z</time>
      </trkpt>
      <trkpt lat="43.65506" lon="6.9579">
        <ele>181</ele>
        <time>2012-09-16T15:39:57Z</time>
      </trkpt>
      <trkpt lat="43.65521" lon="6.95773">
        <ele>182</ele>
        <time>2012-09-16T15:40:02Z</time>
      </trkpt>
      <trkpt lat="43.65536" lon="6.95761">
        <ele>182</ele>
        <time>2012-09-16T15:40:07Z</time>
      </trkpt>
      <trkpt lat="43.65545" lon="6.95752">
        <ele>182</ele>
        <time>2012-09-16T15:40:12Z</time>
      </trkpt>
      <trkpt lat="43.65557" lon="6.95737">
        <ele>182</ele>
        <time>2012-09-16T15:40:17Z</time>
      </trkpt>
      <trkpt lat="43.65574" lon="6.95718">
        <ele>182</ele>
        <time>2012-09-16T15:40:22Z</time>
      </trkpt>
      <trkpt lat="43.65588" lon="6.95716">
        <ele>182</ele>
        <time>2012-09-16T15:40:30Z</time>
      </trkpt>
      <trkpt lat="43.65607" lon="6.95715">
        <ele>182</ele>
        <time>2012-09-16T15:40:35Z</time>
      </trkpt>
      <trkpt lat="43.6563" lon="6.95711">
        <ele>182</ele>
        <time>2012-09-16T15:40:40Z</time>
      </trkpt>
      <trkpt lat="43.65646" lon="6.95696">
        <ele>180</ele>
        <time>2012-09-16T15:40:45Z</time>
      </trkpt>
      <trkpt lat="43.65664" lon="6.95674">
        <ele>179</ele>
        <time>2012-09-16T15:40:50Z</time>
      </trkpt>
      <trkpt lat="43.65688" lon="6.95665">
        <ele>179</ele>
        <time>2012-09-16T15:40:55Z</time>
      </trkpt>
      <trkpt lat="43.65715" lon="6.95654">
        <ele>179</ele>
        <time>2012-09-16T15:41:00Z</time>
      </trkpt>
      <trkpt lat="43.65739" lon="6.95656">
        <ele>179</ele>
        <time>2012-09-16T15:41:05Z</time>
      </trkpt>
      <trkpt lat="43.65753" lon="6.95667">
        <ele>179</ele>
        <time>2012-09-16T15:41:10Z</time>
      </trkpt>
      <trkpt lat="43.65774" lon="6.95659">
        <ele>179</ele>
        <time>2012-09-16T15:41:15Z</time>
      </trkpt>
      <trkpt lat="43.65799" lon="6.95646">
        <ele>179</ele>
        <time>2012-09-16T15:41:20Z</time>
      </trkpt>
      <trkpt lat="43.65822" lon="6.95625">
        <ele>179</ele>
        <time>2012-09-16T15:41:25Z</time>
      </trkpt>
      <trkpt lat="43.6584" lon="6.95607">
        <ele>179</ele>
        <time>2012-09-16T15:41:30Z</time>
      </trkpt>
      <trkpt lat="43.65857" lon="6.95586">
        <ele>179</ele>
        <time>2012-09-16T15:41:35Z</time>
      </trkpt>
      <trkpt lat="43.65882" lon="6.95573">
        <ele>179</ele>
        <time>2012-09-16T15:41:40Z</time>
      </trkpt>
      <trkpt lat="43.65911" lon="6.95571">
        <ele>179</ele>
        <time>2012-09-16T15:41:45Z</time>
      </trkpt>
      <trkpt lat="43.65936" lon="6.95565">
        <ele>179</ele>
        <time>2012-09-16T15:41:50Z</time>
      </trkpt>
      <trkpt lat="43.65957" lon="6.95559">
        <ele>179</ele>
        <time>2012-09-16T15:41:55Z</time>
      </trkpt>
      <trkpt lat="43.65975" lon="6.95541">
        <ele>179</ele>
        <time>2012-09-16T15:42:00Z</time>
      </trkpt>
      <trkpt lat="43.65985" lon="6.95511">
        <ele>179</ele>
        <time>2012-09-16T15:42:05Z</time>
      </trkpt>
      <trkpt lat="43.65996" lon="6.9548">
        <ele>179</ele>
        <time>2012-09-16T15:42:10Z</time>
      </trkpt>
      <trkpt lat="43.65995" lon="6.95454">
        <ele>179</ele>
        <time>2012-09-16T15:42:15Z</time>
      </trkpt>
      <trkpt lat="43.65979" lon="6.95433">
        <ele>179</ele>
        <time>2012-09-16T15:42:20Z</time>
      </trkpt>
      <trkpt lat="43.65968" lon="6.95421">
        <ele>178</ele>
        <time>2012-09-16T15:42:25Z</time>
      </trkpt>
      <trkpt lat="43.65958" lon="6.95403">
        <ele>178</ele>
        <time>2012-09-16T15:42:30Z</time>
      </trkpt>
      <trkpt lat="43.65954" lon="6.95379">
        <ele>178</ele>
        <time>2012-09-16T15:42:35Z</time>
      </trkpt>
      <trkpt lat="43.65957" lon="6.95356">
        <ele>178</ele>
        <time>2012-09-16T15:42:40Z</time>
      </trkpt>
      <trkpt lat="43.65957" lon="6.95328">
        <ele>178</ele>
        <time>2012-09-16T15:42:45Z</time>
      </trkpt>
      <trkpt lat="43.65957" lon="6.95308">
        <ele>178</ele>
        <time>2012-09-16T15:42:50Z</time>
      </trkpt>
      <trkpt lat="43.65958" lon="6.95284">
        <ele>178</ele>
        <time>2012-09-16T15:42:55Z</time>
      </trkpt>
      <trkpt lat="43.65958" lon="6.95256">
        <ele>178</ele>
        <time>2012-09-16T15:43:00Z</time>
      </trkpt>
      <trkpt lat="43.65958" lon="6.95225">
        <ele>178</ele>
        <time>2012-09-16T15:43:05Z</time>
      </trkpt>
      <trkpt lat="43.65963" lon="6.95203">
        <ele>178</ele>
        <time>2012-09-16T15:43:10Z</time>
      </trkpt>
      <trkpt lat="43.65965" lon="6.9519">
        <ele>178</ele>
        <time>2012-09-16T15:43:15Z</time>
      </trkpt>
      <trkpt lat="43.65971" lon="6.95172">
        <ele>178</ele>
        <time>2012-09-16T15:43:20Z</time>
      </trkpt>
      <trkpt lat="43.65976" lon="6.95141">
        <ele>178</ele>
        <time>2012-09-16T15:43:25Z</time>
      </trkpt>
      <trkpt lat="43.65978" lon="6.95113">
        <ele>178</ele>
        <time>2012-09-16T15:43:30Z</time>
      </trkpt>
      <trkpt lat="43.65981" lon="6.95085">
        <ele>178</ele>
        <time>2012-09-16T15:43:35Z</time>
      </trkpt>
      <trkpt lat="43.65983" lon="6.95066">
        <ele>178</ele>
        <time>2012-09-16T15:43:40Z</time>
      </trkpt>
      <trkpt lat="43.65987" lon="6.95053">
        <ele>178</ele>
        <time>2012-09-16T15:43:45Z</time>
      </trkpt>
      <trkpt lat="43.65995" lon="6.95064">
        <ele>178</ele>
        <time>2012-09-16T15:43:50Z</time>
      </trkpt>
      <trkpt lat="43.65991" lon="6.95087">
        <ele>178</ele>
        <time>2012-09-16T15:43:55Z</time>
      </trkpt>
      <trkpt lat="43.65985" lon="6.95114">
        <ele>178</ele>
        <time>2012-09-16T15:44:00Z</time>
      </trkpt>
      <trkpt lat="43.65978" lon="6.95141">
        <ele>178</ele>
        <time>2012-09-16T15:44:05Z</time>
      </trkpt>
      <trkpt lat="43.65969" lon="6.95169">
        <ele>178</ele>
        <time>2012-09-16T15:44:10Z</time>
      </trkpt>
      <trkpt lat="43.65965" lon="6.95198">
        <ele>178</ele>
        <time>2012-09-16T15:44:15Z</time>
      </trkpt>
      <trkpt lat="43.65966" lon="6.95227">
        <ele>178</ele>
        <time>2012-09-16T15:44:20Z</time>
      </trkpt>
      <trkpt lat="43.65966" lon="6.95255">
        <ele>178</ele>
        <time>2012-09-16T15:44:25Z</time>
      </trkpt>
      <trkpt lat="43.65968" lon="6.95284">
        <ele>179</ele>
        <time>2012-09-16T15:44:30Z</time>
      </trkpt>
      <trkpt lat="43.65972" lon="6.95316">
        <ele>180</ele>
        <time>2012-09-16T15:44:35Z</time>
      </trkpt>
      <trkpt lat="43.65973" lon="6.95349">
        <ele>182</ele>
        <time>2012-09-16T15:44:40Z</time>
      </trkpt>
      <trkpt lat="43.65975" lon="6.95389">
        <ele>182</ele>
        <time>2012-09-16T15:44:45Z</time>
      </trkpt>
      <trkpt lat="43.65987" lon="6.9543">
        <ele>182</ele>
        <time>2012-09-16T15:44:50Z</time>
      </trkpt>
      <trkpt lat="43.66004" lon="6.95466">
        <ele>182</ele>
        <time>2012-09-16T15:44:55Z</time>
      </trkpt>
      <trkpt lat="43.65997" lon="6.95502">
        <ele>182</ele>
        <time>2012-09-16T15:45:00Z</time>
      </trkpt>
      <trkpt lat="43.65987" lon="6.95534">
        <ele>182</ele>
        <time>2012-09-16T15:45:05Z</time>
      </trkpt>
      <trkpt lat="43.65974" lon="6.95565">
        <ele>182</ele>
        <time>2012-09-16T15:45:10Z</time>
      </trkpt>
      <trkpt lat="43.65953" lon="6.95581">
        <ele>182</ele>
        <time>2012-09-16T15:45:15Z</time>
      </trkpt>
      <trkpt lat="43.65936" lon="6.95582">
        <ele>182</ele>
        <time>2012-09-16T15:45:20Z</time>
      </trkpt>
      <trkpt lat="43.65928" lon="6.95571">
        <ele>182</ele>
        <time>2012-09-16T15:45:25Z</time>
      </trkpt>
      <trkpt lat="43.65913" lon="6.95576">
        <ele>182</ele>
        <time>2012-09-16T15:45:30Z</time>
      </trkpt>
      <trkpt lat="43.65892" lon="6.95578">
        <ele>181</ele>
        <time>2012-09-16T15:45:35Z</time>
      </trkpt>
      <trkpt lat="43.65871" lon="6.95581">
        <ele>181</ele>
        <time>2012-09-16T15:45:40Z</time>
      </trkpt>
      <trkpt lat="43.65851" lon="6.95595">
        <ele>181</ele>
        <time>2012-09-16T15:45:45Z</time>
      </trkpt>
      <trkpt lat="43.65833" lon="6.95614">
        <ele>181</ele>
        <time>2012-09-16T15:45:50Z</time>
      </trkpt>
      <trkpt lat="43.65815" lon="6.95632">
        <ele>181</ele>
        <time>2012-09-16T15:45:55Z</time>
      </trkpt>
      <trkpt lat="43.65797" lon="6.9565">
        <ele>181</ele>
        <time>2012-09-16T15:46:00Z</time>
      </trkpt>
      <trkpt lat="43.65774" lon="6.95661">
        <ele>181</ele>
        <time>2012-09-16T15:46:05Z</time>
      </trkpt>
      <trkpt lat="43.65752" lon="6.95671">
        <ele>181</ele>
        <time>2012-09-16T15:46:10Z</time>
      </trkpt>
      <trkpt lat="43.65737" lon="6.95662">
        <ele>181</ele>
        <time>2012-09-16T15:46:15Z</time>
      </trkpt>
      <trkpt lat="43.65716" lon="6.95654">
        <ele>181</ele>
        <time>2012-09-16T15:46:20Z</time>
      </trkpt>
      <trkpt lat="43.65692" lon="6.95662">
        <ele>181</ele>
        <time>2012-09-16T15:46:25Z</time>
      </trkpt>
      <trkpt lat="43.65665" lon="6.95673">
        <ele>181</ele>
        <time>2012-09-16T15:46:30Z</time>
      </trkpt>
      <trkpt lat="43.65643" lon="6.95693">
        <ele>181</ele>
        <time>2012-09-16T15:46:35Z</time>
      </trkpt>
      <trkpt lat="43.65626" lon="6.95713">
        <ele>181</ele>
        <time>2012-09-16T15:46:40Z</time>
      </trkpt>
      <trkpt lat="43.65602" lon="6.95716">
        <ele>181</ele>
        <time>2012-09-16T15:46:45Z</time>
      </trkpt>
      <trkpt lat="43.65583" lon="6.95717">
        <ele>181</ele>
        <time>2012-09-16T15:46:50Z</time>
      </trkpt>
      <trkpt lat="43.65569" lon="6.95721">
        <ele>181</ele>
        <time>2012-09-16T15:46:55Z</time>
      </trkpt>
      <trkpt lat="43.65554" lon="6.95739">
        <ele>181</ele>
        <time>2012-09-16T15:47:00Z</time>
      </trkpt>
      <trkpt lat="43.65538" lon="6.95758">
        <ele>181</ele>
        <time>2012-09-16T15:47:05Z</time>
      </trkpt>
      <trkpt lat="43.6552" lon="6.95773">
        <ele>181</ele>
        <time>2012-09-16T15:47:10Z</time>
      </trkpt>
      <trkpt lat="43.65502" lon="6.9579">
        <ele>181</ele>
        <time>2012-09-16T15:47:15Z</time>
      </trkpt>
      <trkpt lat="43.65486" lon="6.95807">
        <ele>181</ele>
        <time>2012-09-16T15:47:20Z</time>
      </trkpt>
      <trkpt lat="43.65465" lon="6.95818">
        <ele>181</ele>
        <time>2012-09-16T15:47:25Z</time>
      </trkpt>
      <trkpt lat="43.65445" lon="6.95825">
        <ele>181</ele>
        <time>2012-09-16T15:47:30Z</time>
      </trkpt>
      <trkpt lat="43.65426" lon="6.95825">
        <ele>181</ele>
        <time>2012-09-16T15:47:35Z</time>
      </trkpt>
      <trkpt lat="43.65408" lon="6.95841">
        <ele>181</ele>
        <time>2012-09-16T15:47:40Z</time>
      </trkpt>
      <trkpt lat="43.65396" lon="6.95879">
        <ele>181</ele>
        <time>2012-09-16T15:47:45Z</time>
      </trkpt>
      <trkpt lat="43.65392" lon="6.95912">
        <ele>181</ele>
        <time>2012-09-16T15:47:50Z</time>
      </trkpt>
      <trkpt lat="43.65376" lon="6.95927">
        <ele>181</ele>
        <time>2012-09-16T15:47:55Z</time>
      </trkpt>
      <trkpt lat="43.65353" lon="6.95902">
        <ele>179</ele>
        <time>2012-09-16T15:48:00Z</time>
      </trkpt>
      <trkpt lat="43.6533" lon="6.95885">
        <ele>178</ele>
        <time>2012-09-16T15:48:05Z</time>
      </trkpt>
      <trkpt lat="43.65313" lon="6.95876">
        <ele>178</ele>
        <time>2012-09-16T15:48:10Z</time>
      </trkpt>
      <trkpt lat="43.6531" lon="6.95875">
        <ele>178</ele>
        <time>2012-09-16T15:48:17Z</time>
      </trkpt>
      <trkpt lat="43.65298" lon="6.95878">
        <ele>178</ele>
        <time>2012-09-16T15:48:22Z</time>
      </trkpt>
      <trkpt lat="43.65278" lon="6.95888">
        <ele>178</ele>
        <time>2012-09-16T15:48:27Z</time>
      </trkpt>
      <trkpt lat="43.65259" lon="6.95905">
        <ele>178</ele>
        <time>2012-09-16T15:48:32Z</time>
      </trkpt>
      <trkpt lat="43.65249" lon="6.95932">
        <ele>178</ele>
        <time>2012-09-16T15:48:37Z</time>
      </trkpt>
      <trkpt lat="43.65237" lon="6.95961">
        <ele>178</ele>
        <time>2012-09-16T15:48:42Z</time>
      </trkpt>
      <trkpt lat="43.65233" lon="6.95994">
        <ele>179</ele>
        <time>2012-09-16T15:48:47Z</time>
      </trkpt>
      <trkpt lat="43.65242" lon="6.96024">
        <ele>179</ele>
        <time>2012-09-16T15:48:52Z</time>
      </trkpt>
      <trkpt lat="43.65247" lon="6.96053">
        <ele>179</ele>
        <time>2012-09-16T15:48:57Z</time>
      </trkpt>
      <trkpt lat="43.65234" lon="6.96079">
        <ele>179</ele>
        <time>2012-09-16T15:49:02Z</time>
      </trkpt>
      <trkpt lat="43.65223" lon="6.9611">
        <ele>179</ele>
        <time>2012-09-16T15:49:07Z</time>
      </trkpt>
      <trkpt lat="43.65221" lon="6.96141">
        <ele>179</ele>
        <time>2012-09-16T15:49:12Z</time>
      </trkpt>
      <trkpt lat="43.65218" lon="6.96168">
        <ele>179</ele>
        <time>2012-09-16T15:49:17Z</time>
      </trkpt>
      <trkpt lat="43.65217" lon="6.96188">
        <ele>179</ele>
        <time>2012-09-16T15:49:22Z</time>
      </trkpt>
      <trkpt lat="43.65217" lon="6.96214">
        <ele>179</ele>
        <time>2012-09-16T15:49:27Z</time>
      </trkpt>
      <trkpt lat="43.65227" lon="6.96237">
        <ele>177</ele>
        <time>2012-09-16T15:49:32Z</time>
      </trkpt>
      <trkpt lat="43.6524" lon="6.96253">
        <ele>176</ele>
        <time>2012-09-16T15:49:37Z</time>
      </trkpt>
      <trkpt lat="43.65251" lon="6.96275">
        <ele>176</ele>
        <time>2012-09-16T15:49:42Z</time>
      </trkpt>
      <trkpt lat="43.65242" lon="6.96281">
        <ele>176</ele>
        <time>2012-09-16T15:49:47Z</time>
      </trkpt>
      <trkpt lat="43.65218" lon="6.96271">
        <ele>176</ele>
        <time>2012-09-16T15:49:52Z</time>
      </trkpt>
      <trkpt lat="43.65193" lon="6.96266">
        <ele>176</ele>
        <time>2012-09-16T15:49:57Z</time>
      </trkpt>
      <trkpt lat="43.65174" lon="6.96275">
        <ele>176</ele>
        <time>2012-09-16T15:50:02Z</time>
      </trkpt>
      <trkpt lat="43.65166" lon="6.96252">
        <ele>176</ele>
        <time>2012-09-16T15:50:07Z</time>
      </trkpt>
      <trkpt lat="43.65164" lon="6.96222">
        <ele>177</ele>
        <time>2012-09-16T15:50:12Z</time>
      </trkpt>
      <trkpt lat="43.65165" lon="6.96192">
        <ele>177</ele>
        <time>2012-09-16T15:50:17Z</time>
      </trkpt>
      <trkpt lat="43.65161" lon="6.96162">
        <ele>178</ele>
        <time>2012-09-16T15:50:22Z</time>
      </trkpt>
      <trkpt lat="43.65156" lon="6.96131">
        <ele>180</ele>
        <time>2012-09-16T15:50:27Z</time>
      </trkpt>
      <trkpt lat="43.65145" lon="6.96099">
        <ele>180</ele>
        <time>2012-09-16T15:50:32Z</time>
      </trkpt>
      <trkpt lat="43.65122" lon="6.96093">
        <ele>180</ele>
        <time>2012-09-16T15:50:37Z</time>
      </trkpt>
      <trkpt lat="43.65102" lon="6.96105">
        <ele>180</ele>
        <time>2012-09-16T15:50:42Z</time>
      </trkpt>
      <trkpt lat="43.6508" lon="6.96103">
        <ele>180</ele>
        <time>2012-09-16T15:50:47Z</time>
      </trkpt>
      <trkpt lat="43.65063" lon="6.96089">
        <ele>180</ele>
        <time>2012-09-16T15:50:52Z</time>
      </trkpt>
      <trkpt lat="43.65051" lon="6.96067">
        <ele>180</ele>
        <time>2012-09-16T15:50:57Z</time>
      </trkpt>
      <trkpt lat="43.65038" lon="6.96046">
        <ele>180</ele>
        <time>2012-09-16T15:51:02Z</time>
      </trkpt>
      <trkpt lat="43.65019" lon="6.96029">
        <ele>180</ele>
        <time>2012-09-16T15:51:07Z</time>
      </trkpt>
      <trkpt lat="43.65001" lon="6.96022">
        <ele>180</ele>
        <time>2012-09-16T15:51:12Z</time>
      </trkpt>
      <trkpt lat="43.64983" lon="6.9601">
        <ele>180</ele>
        <time>2012-09-16T15:51:17Z</time>
      </trkpt>
      <trkpt lat="43.64967" lon="6.96">
        <ele>180</ele>
        <time>2012-09-16T15:51:22Z</time>
      </trkpt>
      <trkpt lat="43.64946" lon="6.95975">
        <ele>180</ele>
        <time>2012-09-16T15:51:27Z</time>
      </trkpt>
      <trkpt lat="43.64928" lon="6.9595">
        <ele>180</ele>
        <time>2012-09-16T15:51:32Z</time>
      </trkpt>
      <trkpt lat="43.64914" lon="6.95939">
        <ele>182</ele>
        <time>2012-09-16T15:51:42Z</time>
      </trkpt>
      <trkpt lat="43.64913" lon="6.95938">
        <ele>183</ele>
        <time>2012-09-16T15:51:54Z</time>
      </trkpt>
      <trkpt lat="43.64906" lon="6.95937">
        <ele>183</ele>
        <time>2012-09-16T15:51:59Z</time>
      </trkpt>
      <trkpt lat="43.64887" lon="6.95942">
        <ele>182</ele>
        <time>2012-09-16T15:52:04Z</time>
      </trkpt>
      <trkpt lat="43.64871" lon="6.95952">
        <ele>181</ele>
        <time>2012-09-16T15:52:09Z</time>
      </trkpt>
      <trkpt lat="43.64857" lon="6.95968">
        <ele>181</ele>
        <time>2012-09-16T15:52:14Z</time>
      </trkpt>
      <trkpt lat="43.64851" lon="6.95994">
        <ele>181</ele>
        <time>2012-09-16T15:52:19Z</time>
      </trkpt>
      <trkpt lat="43.64857" lon="6.96025">
        <ele>180</ele>
        <time>2012-09-16T15:52:24Z</time>
      </trkpt>
      <trkpt lat="43.64865" lon="6.96052">
        <ele>180</ele>
        <time>2012-09-16T15:52:29Z</time>
      </trkpt>
      <trkpt lat="43.64867" lon="6.96076">
        <ele>179</ele>
        <time>2012-09-16T15:52:34Z</time>
      </trkpt>
      <trkpt lat="43.64848" lon="6.96085">
        <ele>178</ele>
        <time>2012-09-16T15:52:39Z</time>
      </trkpt>
      <trkpt lat="43.64827" lon="6.96089">
        <ele>177</ele>
        <time>2012-09-16T15:52:44Z</time>
      </trkpt>
      <trkpt lat="43.64806" lon="6.96104">
        <ele>177</ele>
        <time>2012-09-16T15:52:49Z</time>
      </trkpt>
      <trkpt lat="43.64795" lon="6.96132">
        <ele>177</ele>
        <time>2012-09-16T15:52:54Z</time>
      </trkpt>
      <trkpt lat="43.64781" lon="6.96155">
        <ele>177</ele>
        <time>2012-09-16T15:52:59Z</time>
      </trkpt>
      <trkpt lat="43.64776" lon="6.96161">
        <ele>178</ele>
        <time>2012-09-16T15:53:05Z</time>
      </trkpt>
      <trkpt lat="43.64772" lon="6.96173">
        <ele>178</ele>
        <time>2012-09-16T15:53:10Z</time>
      </trkpt>
      <trkpt lat="43.6476" lon="6.96194">
        <ele>178</ele>
        <time>2012-09-16T15:53:15Z</time>
      </trkpt>
      <trkpt lat="43.64751" lon="6.96202">
        <ele>178</ele>
        <time>2012-09-16T15:53:20Z</time>
      </trkpt>
      <trkpt lat="43.64748" lon="6.96201">
        <ele>178</ele>
        <time>2012-09-16T15:53:26Z</time>
      </trkpt>
      <trkpt lat="43.64738" lon="6.96207">
        <ele>178</ele>
        <time>2012-09-16T15:53:31Z</time>
      </trkpt>
      <trkpt lat="43.64721" lon="6.96211">
        <ele>178</ele>
        <time>2012-09-16T15:53:36Z</time>
      </trkpt>
      <trkpt lat="43.64705" lon="6.96214">
        <ele>178</ele>
        <time>2012-09-16T15:53:41Z</time>
      </trkpt>
      <trkpt lat="43.64693" lon="6.96214">
        <ele>181</ele>
        <time>2012-09-16T15:53:46Z</time>
      </trkpt>
      <trkpt lat="43.64677" lon="6.96208">
        <ele>181</ele>
        <time>2012-09-16T15:53:51Z</time>
      </trkpt>
      <trkpt lat="43.64659" lon="6.96205">
        <ele>181</ele>
        <time>2012-09-16T15:53:56Z</time>
      </trkpt>
      <trkpt lat="43.64638" lon="6.96202">
        <ele>181</ele>
        <time>2012-09-16T15:54:01Z</time>
      </trkpt>
      <trkpt lat="43.64619" lon="6.96204">
        <ele>181</ele>
        <time>2012-09-16T15:54:06Z</time>
      </trkpt>
      <trkpt lat="43.64609" lon="6.9621">
        <ele>181</ele>
        <time>2012-09-16T15:54:11Z</time>
      </trkpt>
      <trkpt lat="43.64595" lon="6.96215">
        <ele>181</ele>
        <time>2012-09-16T15:54:16Z</time>
      </trkpt>
      <trkpt lat="43.64579" lon="6.96226">
        <ele>181</ele>
        <time>2012-09-16T15:54:21Z</time>
      </trkpt>
      <trkpt lat="43.64569" lon="6.96236">
        <ele>181</ele>
        <time>2012-09-16T15:54:26Z</time>
      </trkpt>
      <trkpt lat="43.64557" lon="6.96238">
        <ele>181</ele>
        <time>2012-09-16T15:54:32Z</time>
      </trkpt>
      <trkpt lat="43.64543" lon="6.96236">
        <ele>181</ele>
        <time>2012-09-16T15:54:37Z</time>
      </trkpt>
      <trkpt lat="43.64528" lon="6.96236">
        <ele>181</ele>
        <time>2012-09-16T15:54:42Z</time>
      </trkpt>
      <trkpt lat="43.645" lon="6.96243">
        <ele>181</ele>
        <time>2012-09-16T15:54:47Z</time>
      </trkpt>
      <trkpt lat="43.64464" lon="6.96254">
        <ele>181</ele>
        <time>2012-09-16T15:54:52Z</time>
      </trkpt>
      <trkpt lat="43.64434" lon="6.96271">
        <ele>180</ele>
        <time>2012-09-16T15:54:57Z</time>
      </trkpt>
      <trkpt lat="43.64404" lon="6.96271">
        <ele>180</ele>
        <time>2012-09-16T15:55:02Z</time>
      </trkpt>
      <trkpt lat="43.64377" lon="6.96273">
        <ele>180</ele>
        <time>2012-09-16T15:55:07Z</time>
      </trkpt>
      <trkpt lat="43.64348" lon="6.96278">
        <ele>179</ele>
        <time>2012-09-16T15:55:12Z</time>
      </trkpt>
      <trkpt lat="43.64322" lon="6.96299">
        <ele>179</ele>
        <time>2012-09-16T15:55:17Z</time>
      </trkpt>
      <trkpt lat="43.64298" lon="6.96321">
        <ele>179</ele>
        <time>2012-09-16T15:55:22Z</time>
      </trkpt>
      <trkpt lat="43.64268" lon="6.96329">
        <ele>178</ele>
        <time>2012-09-16T15:55:27Z</time>
      </trkpt>
      <trkpt lat="43.64243" lon="6.9635">
        <ele>178</ele>
        <time>2012-09-16T15:55:32Z</time>
      </trkpt>
      <trkpt lat="43.64222" lon="6.96379">
        <ele>178</ele>
        <time>2012-09-16T15:55:37Z</time>
      </trkpt>
      <trkpt lat="43.64203" lon="6.96406">
        <ele>178</ele>
        <time>2012-09-16T15:55:42Z</time>
      </trkpt>
      <trkpt lat="43.64185" lon="6.96429">
        <ele>178</ele>
        <time>2012-09-16T15:55:47Z</time>
      </trkpt>
      <trkpt lat="43.64171" lon="6.96436">
        <ele>178</ele>
        <time>2012-09-16T15:55:52Z</time>
      </trkpt>
      <trkpt lat="43.64153" lon="6.96435">
        <ele>178</ele>
        <time>2012-09-16T15:55:57Z</time>
      </trkpt>
      <trkpt lat="43.64131" lon="6.96439">
        <ele>178</ele>
        <time>2012-09-16T15:56:02Z</time>
      </trkpt>
      <trkpt lat="43.6411" lon="6.96449">
        <ele>178</ele>
        <time>2012-09-16T15:56:07Z</time>
      </trkpt>
      <trkpt lat="43.64095" lon="6.96468">
        <ele>178</ele>
        <time>2012-09-16T15:56:12Z</time>
      </trkpt>
      <trkpt lat="43.64085" lon="6.96486">
        <ele>178</ele>
        <time>2012-09-16T15:56:17Z</time>
      </trkpt>
      <trkpt lat="43.64079" lon="6.96496">
        <ele>178</ele>
        <time>2012-09-16T15:56:25Z</time>
      </trkpt>
      <trkpt lat="43.64078" lon="6.96498">
        <ele>178</ele>
        <time>2012-09-16T15:56:32Z</time>
      </trkpt>
      <trkpt lat="43.64076" lon="6.96501">
        <ele>178</ele>
        <time>2012-09-16T15:56:41Z</time>
      </trkpt>
      <trkpt lat="43.64069" lon="6.96513">
        <ele>178</ele>
        <time>2012-09-16T15:56:46Z</time>
      </trkpt>
      <trkpt lat="43.64062" lon="6.96534">
        <ele>178</ele>
        <time>2012-09-16T15:56:51Z</time>
      </trkpt>
      <trkpt lat="43.64058" lon="6.96559">
        <ele>178</ele>
        <time>2012-09-16T15:56:56Z</time>
      </trkpt>
      <trkpt lat="43.64053" lon="6.96588">
        <ele>178</ele>
        <time>2012-09-16T15:57:01Z</time>
      </trkpt>
      <trkpt lat="43.64048" lon="6.96616">
        <ele>178</ele>
        <time>2012-09-16T15:57:06Z</time>
      </trkpt>
      <trkpt lat="43.64049" lon="6.96638">
        <ele>178</ele>
        <time>2012-09-16T15:57:11Z</time>
      </trkpt>
      <trkpt lat="43.64056" lon="6.96654">
        <ele>178</ele>
        <time>2012-09-16T15:57:16Z</time>
      </trkpt>
      <trkpt lat="43.64064" lon="6.96672">
        <ele>178</ele>
        <time>2012-09-16T15:57:21Z</time>
      </trkpt>
      <trkpt lat="43.64075" lon="6.9669">
        <ele>178</ele>
        <time>2012-09-16T15:57:26Z</time>
      </trkpt>
      <trkpt lat="43.6409" lon="6.96702">
        <ele>178</ele>
        <time>2012-09-16T15:57:31Z</time>
      </trkpt>
      <trkpt lat="43.64094" lon="6.96712">
        <ele>178</ele>
        <time>2012-09-16T15:57:37Z</time>
      </trkpt>
      <trkpt lat="43.64091" lon="6.96723">
        <ele>178</ele>
        <time>2012-09-16T15:57:42Z</time>
      </trkpt>
      <trkpt lat="43.64085" lon="6.96742">
        <ele>178</ele>
        <time>2012-09-16T15:57:47Z</time>
      </trkpt>
      <trkpt lat="43.64071" lon="6.96751">
        <ele>178</ele>
        <time>2012-09-16T15:57:52Z</time>
      </trkpt>
      <trkpt lat="43.6405" lon="6.96741">
        <ele>178</ele>
        <time>2012-09-16T15:57:57Z</time>
      </trkpt>
      <trkpt lat="43.64034" lon="6.9672">
        <ele>177</ele>
        <time>2012-09-16T15:58:02Z</time>
      </trkpt>
      <trkpt lat="43.64014" lon="6.96714">
        <ele>177</ele>
        <time>2012-09-16T15:58:07Z</time>
      </trkpt>
      <trkpt lat="43.64001" lon="6.96732">
        <ele>177</ele>
        <time>2012-09-16T15:58:12Z</time>
      </trkpt>
      <trkpt lat="43.63997" lon="6.96762">
        <ele>177</ele>
        <time>2012-09-16T15:58:17Z</time>
      </trkpt>
      <trkpt lat="43.63982" lon="6.96786">
        <ele>177</ele>
        <time>2012-09-16T15:58:22Z</time>
      </trkpt>
      <trkpt lat="43.63958" lon="6.96797">
        <ele>177</ele>
        <time>2012-09-16T15:58:27Z</time>
      </trkpt>
      <trkpt lat="43.63936" lon="6.9681">
        <ele>177</ele>
        <time>2012-09-16T15:58:32Z</time>
      </trkpt>
      <trkpt lat="43.63925" lon="6.96838">
        <ele>177</ele>
        <time>2012-09-16T15:58:37Z</time>
      </trkpt>
      <trkpt lat="43.63917" lon="6.96869">
        <ele>177</ele>
        <time>2012-09-16T15:58:42Z</time>
      </trkpt>
      <trkpt lat="43.63907" lon="6.96892">
        <ele>177</ele>
        <time>2012-09-16T15:58:47Z</time>
      </trkpt>
      <trkpt lat="43.63893" lon="6.96918">
        <ele>177</ele>
        <time>2012-09-16T15:58:52Z</time>
      </trkpt>
      <trkpt lat="43.63876" lon="6.96942">
        <ele>177</ele>
        <time>2012-09-16T15:58:57Z</time>
      </trkpt>
      <trkpt lat="43.63858" lon="6.96956">
        <ele>177</ele>
        <time>2012-09-16T15:59:02Z</time>
      </trkpt>
      <trkpt lat="43.63845" lon="6.96984">
        <ele>177</ele>
        <time>2012-09-16T15:59:07Z</time>
      </trkpt>
      <trkpt lat="43.63831" lon="6.97011">
        <ele>177</ele>
        <time>2012-09-16T15:59:12Z</time>
      </trkpt>
      <trkpt lat="43.63818" lon="6.9701">
        <ele>177</ele>
        <time>2012-09-16T15:59:17Z</time>
      </trkpt>
      <trkpt lat="43.63805" lon="6.96992">
        <ele>177</ele>
        <time>2012-09-16T15:59:22Z</time>
      </trkpt>
      <trkpt lat="43.63781" lon="6.96973">
        <ele>177</ele>
        <time>2012-09-16T15:59:27Z</time>
      </trkpt>
      <trkpt lat="43.63756" lon="6.96962">
        <ele>177</ele>
        <time>2012-09-16T15:59:32Z</time>
      </trkpt>
      <trkpt lat="43.63732" lon="6.96965">
        <ele>177</ele>
        <time>2012-09-16T15:59:37Z</time>
      </trkpt>
      <trkpt lat="43.6371" lon="6.96974">
        <ele>177</ele>
        <time>2012-09-16T15:59:42Z</time>
      </trkpt>
      <trkpt lat="43.63699" lon="6.9699">
        <ele>177</ele>
        <time>2012-09-16T15:59:47Z</time>
      </trkpt>
      <trkpt lat="43.63696" lon="6.97006">
        <ele>177</ele>
        <time>2012-09-16T15:59:52Z</time>
      </trkpt>
      <trkpt lat="43.63692" lon="6.97034">
        <ele>177</ele>
        <time>2012-09-16T15:59:57Z</time>
      </trkpt>
      <trkpt lat="43.6369" lon="6.97056">
        <ele>177</ele>
        <time>2012-09-16T16:00:02Z</time>
      </trkpt>
      <trkpt lat="43.63686" lon="6.97036">
        <ele>173</ele>
        <time>2012-09-16T16:00:07Z</time>
      </trkpt>
      <trkpt lat="43.63676" lon="6.96996">
        <ele>168</ele>
        <time>2012-09-16T16:00:12Z</time>
      </trkpt>
      <trkpt lat="43.6367" lon="6.9696">
        <ele>161</ele>
        <time>2012-09-16T16:00:17Z</time>
      </trkpt>
      <trkpt lat="43.63671" lon="6.96929">
        <ele>155</ele>
        <time>2012-09-16T16:00:22Z</time>
      </trkpt>
      <trkpt lat="43.63659" lon="6.96929">
        <ele>150</ele>
        <time>2012-09-16T16:00:27Z</time>
      </trkpt>
      <trkpt lat="43.63643" lon="6.96922">
        <ele>145</ele>
        <time>2012-09-16T16:00:32Z</time>
      </trkpt>
      <trkpt lat="43.63627" lon="6.96887">
        <ele>143</ele>
        <time>2012-09-16T16:00:37Z</time>
      </trkpt>
      <trkpt lat="43.63606" lon="6.96849">
        <ele>140</ele>
        <time>2012-09-16T16:00:42Z</time>
      </trkpt>
      <trkpt lat="43.63579" lon="6.96824">
        <ele>139</ele>
        <time>2012-09-16T16:00:47Z</time>
      </trkpt>
      <trkpt lat="43.63554" lon="6.96806">
        <ele>137</ele>
        <time>2012-09-16T16:00:52Z</time>
      </trkpt>
      <trkpt lat="43.63542" lon="6.96781">
        <ele>137</ele>
        <time>2012-09-16T16:00:57Z</time>
      </trkpt>
      <trkpt lat="43.63522" lon="6.9679">
        <ele>136</ele>
        <time>2012-09-16T16:01:02Z</time>
      </trkpt>
      <trkpt lat="43.63501" lon="6.96805">
        <ele>135</ele>
        <time>2012-09-16T16:01:07Z</time>
      </trkpt>
      <trkpt lat="43.63475" lon="6.96817">
        <ele>135</ele>
        <time>2012-09-16T16:01:12Z</time>
      </trkpt>
      <trkpt lat="43.6345" lon="6.96826">
        <ele>134</ele>
        <time>2012-09-16T16:01:17Z</time>
      </trkpt>
      <trkpt lat="43.63424" lon="6.96833">
        <ele>133</ele>
        <time>2012-09-16T16:01:22Z</time>
      </trkpt>
      <trkpt lat="43.63402" lon="6.96852">
        <ele>133</ele>
        <time>2012-09-16T16:01:27Z</time>
      </trkpt>
      <trkpt lat="43.6338" lon="6.96876">
        <ele>133</ele>
        <time>2012-09-16T16:01:32Z</time>
      </trkpt>
      <trkpt lat="43.6336" lon="6.96902">
        <ele>133</ele>
        <time>2012-09-16T16:01:37Z</time>
      </trkpt>
      <trkpt lat="43.63343" lon="6.96926">
        <ele>133</ele>
        <time>2012-09-16T16:01:42Z</time>
      </trkpt>
      <trkpt lat="43.63327" lon="6.96948">
        <ele>133</ele>
        <time>2012-09-16T16:01:47Z</time>
      </trkpt>
      <trkpt lat="43.63314" lon="6.96968">
        <ele>133</ele>
        <time>2012-09-16T16:01:52Z</time>
      </trkpt>
      <trkpt lat="43.63302" lon="6.96988">
        <ele>133</ele>
        <time>2012-09-16T16:01:57Z</time>
      </trkpt>
      <trkpt lat="43.63291" lon="6.97006">
        <ele>133</ele>
        <time>2012-09-16T16:02:02Z</time>
      </trkpt>
      <trkpt lat="43.63277" lon="6.97028">
        <ele>133</ele>
        <time>2012-09-16T16:02:07Z</time>
      </trkpt>
      <trkpt lat="43.63263" lon="6.97048">
        <ele>133</ele>
        <time>2012-09-16T16:02:12Z</time>
      </trkpt>
      <trkpt lat="43.63251" lon="6.97071">
        <ele>133</ele>
        <time>2012-09-16T16:02:17Z</time>
      </trkpt>
      <trkpt lat="43.63232" lon="6.97082">
        <ele>133</ele>
        <time>2012-09-16T16:02:22Z</time>
      </trkpt>
      <trkpt lat="43.63209" lon="6.97083">
        <ele>133</ele>
        <time>2012-09-16T16:02:27Z</time>
      </trkpt>
      <trkpt lat="43.63186" lon="6.97084">
        <ele>133</ele>
        <time>2012-09-16T16:02:32Z</time>
      </trkpt>
      <trkpt lat="43.63163" lon="6.97083">
        <ele>133</ele>
        <time>2012-09-16T16:02:37Z</time>
      </trkpt>
      <trkpt lat="43.63142" lon="6.97081">
        <ele>133</ele>
        <time>2012-09-16T16:02:42Z</time>
      </trkpt>
      <trkpt lat="43.63121" lon="6.97079">
        <ele>133</ele>
        <time>2012-09-16T16:02:47Z</time>
      </trkpt>
      <trkpt lat="43.63103" lon="6.97061">
        <ele>133</ele>
        <time>2012-09-16T16:02:52Z</time>
      </trkpt>
      <trkpt lat="43.63078" lon="6.97071">
        <ele>133</ele>
        <time>2012-09-16T16:02:57Z</time>
      </trkpt>
      <trkpt lat="43.6305" lon="6.97088">
        <ele>133</ele>
        <time>2012-09-16T16:03:02Z</time>
      </trkpt>
      <trkpt lat="43.63017" lon="6.97105">
        <ele>133</ele>
        <time>2012-09-16T16:03:07Z</time>
      </trkpt>
      <trkpt lat="43.6298" lon="6.97122">
        <ele>133</ele>
        <time>2012-09-16T16:03:12Z</time>
      </trkpt>
      <trkpt lat="43.6297" lon="6.97128">
        <ele>133</ele>
        <time>2012-09-16T16:03:17Z</time>
      </trkpt>
      <trkpt lat="43.62956" lon="6.97133">
        <ele>133</ele>
        <time>2012-09-16T16:03:22Z</time>
      </trkpt>
      <trkpt lat="43.62931" lon="6.9715">
        <ele>133</ele>
        <time>2012-09-16T16:03:27Z</time>
      </trkpt>
      <trkpt lat="43.62907" lon="6.9717">
        <ele>132</ele>
        <time>2012-09-16T16:03:32Z</time>
      </trkpt>
      <trkpt lat="43.62889" lon="6.97193">
        <ele>132</ele>
        <time>2012-09-16T16:03:37Z</time>
      </trkpt>
      <trkpt lat="43.62877" lon="6.97222">
        <ele>132</ele>
        <time>2012-09-16T16:03:42Z</time>
      </trkpt>
      <trkpt lat="43.62857" lon="6.97239">
        <ele>132</ele>
        <time>2012-09-16T16:03:47Z</time>
      </trkpt>
      <trkpt lat="43.62834" lon="6.97246">
        <ele>132</ele>
        <time>2012-09-16T16:03:52Z</time>
      </trkpt>
      <trkpt lat="43.62814" lon="6.9726">
        <ele>132</ele>
        <time>2012-09-16T16:03:57Z</time>
      </trkpt>
      <trkpt lat="43.62794" lon="6.97283">
        <ele>132</ele>
        <time>2012-09-16T16:04:02Z</time>
      </trkpt>
      <trkpt lat="43.62774" lon="6.97307">
        <ele>132</ele>
        <time>2012-09-16T16:04:07Z</time>
      </trkpt>
      <trkpt lat="43.62756" lon="6.97334">
        <ele>132</ele>
        <time>2012-09-16T16:04:12Z</time>
      </trkpt>
      <trkpt lat="43.6274" lon="6.97362">
        <ele>132</ele>
        <time>2012-09-16T16:04:17Z</time>
      </trkpt>
      <trkpt lat="43.62725" lon="6.97389">
        <ele>132</ele>
        <time>2012-09-16T16:04:22Z</time>
      </trkpt>
      <trkpt lat="43.62709" lon="6.97417">
        <ele>132</ele>
        <time>2012-09-16T16:04:27Z</time>
      </trkpt>
      <trkpt lat="43.62694" lon="6.97441">
        <ele>132</ele>
        <time>2012-09-16T16:04:32Z</time>
      </trkpt>
      <trkpt lat="43.62678" lon="6.9746">
        <ele>132</ele>
        <time>2012-09-16T16:04:37Z</time>
      </trkpt>
      <trkpt lat="43.62662" lon="6.97478">
        <ele>132</ele>
        <time>2012-09-16T16:04:42Z</time>
      </trkpt>
      <trkpt lat="43.62646" lon="6.97493">
        <ele>134</ele>
        <time>2012-09-16T16:04:47Z</time>
      </trkpt>
      <trkpt lat="43.6263" lon="6.97509">
        <ele>135</ele>
        <time>2012-09-16T16:04:52Z</time>
      </trkpt>
      <trkpt lat="43.62614" lon="6.97522">
        <ele>137</ele>
        <time>2012-09-16T16:04:57Z</time>
      </trkpt>
      <trkpt lat="43.62599" lon="6.97533">
        <ele>139</ele>
        <time>2012-09-16T16:05:02Z</time>
      </trkpt>
      <trkpt lat="43.62585" lon="6.97544">
        <ele>140</ele>
        <time>2012-09-16T16:05:07Z</time>
      </trkpt>
      <trkpt lat="43.62566" lon="6.97551">
        <ele>140</ele>
        <time>2012-09-16T16:05:12Z</time>
      </trkpt>
      <trkpt lat="43.62543" lon="6.97552">
        <ele>140</ele>
        <time>2012-09-16T16:05:17Z</time>
      </trkpt>
      <trkpt lat="43.62524" lon="6.97539">
        <ele>140</ele>
        <time>2012-09-16T16:05:22Z</time>
      </trkpt>
      <trkpt lat="43.62506" lon="6.97519">
        <ele>140</ele>
        <time>2012-09-16T16:05:27Z</time>
      </trkpt>
      <trkpt lat="43.62488" lon="6.97499">
        <ele>140</ele>
        <time>2012-09-16T16:05:32Z</time>
      </trkpt>
      <trkpt lat="43.62467" lon="6.97477">
        <ele>140</ele>
        <time>2012-09-16T16:05:37Z</time>
      </trkpt>
      <trkpt lat="43.62442" lon="6.97451">
        <ele>140</ele>
        <time>2012-09-16T16:05:42Z</time>
      </trkpt>
      <trkpt lat="43.62415" lon="6.97423">
        <ele>139</ele>
        <time>2012-09-16T16:05:47Z</time>
      </trkpt>
      <trkpt lat="43.62389" lon="6.97394">
        <ele>138</ele>
        <time>2012-09-16T16:05:52Z</time>
      </trkpt>
      <trkpt lat="43.62363" lon="6.97363">
        <ele>136</ele>
        <time>2012-09-16T16:05:57Z</time>
      </trkpt>
      <trkpt lat="43.62343" lon="6.97329">
        <ele>134</ele>
        <time>2012-09-16T16:06:02Z</time>
      </trkpt>
      <trkpt lat="43.62323" lon="6.97294">
        <ele>132</ele>
        <time>2012-09-16T16:06:07Z</time>
      </trkpt>
      <trkpt lat="43.62312" lon="6.97283">
        <ele>132</ele>
        <time>2012-09-16T16:06:12Z</time>
      </trkpt>
      <trkpt lat="43.62309" lon="6.97282">
        <ele>132</ele>
        <time>2012-09-16T16:06:17Z</time>
      </trkpt>
      <trkpt lat="43.62303" lon="6.97278">
        <ele>132</ele>
        <time>2012-09-16T16:06:22Z</time>
      </trkpt>
      <trkpt lat="43.62293" lon="6.97271">
        <ele>132</ele>
        <time>2012-09-16T16:06:27Z</time>
      </trkpt>
      <trkpt lat="43.62289" lon="6.97266">
        <ele>132</ele>
        <time>2012-09-16T16:06:34Z</time>
      </trkpt>
      <trkpt lat="43.62287" lon="6.97263">
        <ele>131</ele>
        <time>2012-09-16T16:06:39Z</time>
      </trkpt>
      <trkpt lat="43.62272" lon="6.9726">
        <ele>129</ele>
        <time>2012-09-16T16:06:44Z</time>
      </trkpt>
      <trkpt lat="43.6225" lon="6.97254">
        <ele>127</ele>
        <time>2012-09-16T16:06:49Z</time>
      </trkpt>
      <trkpt lat="43.62226" lon="6.97244">
        <ele>125</ele>
        <time>2012-09-16T16:06:54Z</time>
      </trkpt>
      <trkpt lat="43.62197" lon="6.97232">
        <ele>125</ele>
        <time>2012-09-16T16:06:59Z</time>
      </trkpt>
      <trkpt lat="43.62164" lon="6.9722">
        <ele>123</ele>
        <time>2012-09-16T16:07:04Z</time>
      </trkpt>
      <trkpt lat="43.6213" lon="6.97207">
        <ele>122</ele>
        <time>2012-09-16T16:07:09Z</time>
      </trkpt>
      <trkpt lat="43.62097" lon="6.97193">
        <ele>122</ele>
        <time>2012-09-16T16:07:15Z</time>
      </trkpt>
      <trkpt lat="43.62072" lon="6.97182">
        <ele>122</ele>
        <time>2012-09-16T16:07:21Z</time>
      </trkpt>
      <trkpt lat="43.62064" lon="6.97159">
        <ele>122</ele>
        <time>2012-09-16T16:07:26Z</time>
      </trkpt>
      <trkpt lat="43.62058" lon="6.9713">
        <ele>124</ele>
        <time>2012-09-16T16:07:31Z</time>
      </trkpt>
      <trkpt lat="43.62051" lon="6.97107">
        <ele>127</ele>
        <time>2012-09-16T16:07:37Z</time>
      </trkpt>
      <trkpt lat="43.62041" lon="6.9709">
        <ele>131</ele>
        <time>2012-09-16T16:07:43Z</time>
      </trkpt>
      <trkpt lat="43.62027" lon="6.97086">
        <ele>136</ele>
        <time>2012-09-16T16:07:48Z</time>
      </trkpt>
      <trkpt lat="43.62011" lon="6.97095">
        <ele>139</ele>
        <time>2012-09-16T16:07:53Z</time>
      </trkpt>
      <trkpt lat="43.61996" lon="6.97104">
        <ele>139</ele>
        <time>2012-09-16T16:07:58Z</time>
      </trkpt>
      <trkpt lat="43.6198" lon="6.97116">
        <ele>139</ele>
        <time>2012-09-16T16:08:03Z</time>
      </trkpt>
      <trkpt lat="43.61961" lon="6.97136">
        <ele>139</ele>
        <time>2012-09-16T16:08:09Z</time>
      </trkpt>
      <trkpt lat="43.61944" lon="6.97153">
        <ele>135</ele>
        <time>2012-09-16T16:08:14Z</time>
      </trkpt>
      <trkpt lat="43.6193" lon="6.9717">
        <ele>132</ele>
        <time>2012-09-16T16:08:19Z</time>
      </trkpt>
      <trkpt lat="43.61922" lon="6.97187">
        <ele>132</ele>
        <time>2012-09-16T16:08:24Z</time>
      </trkpt>
      <trkpt lat="43.61911" lon="6.97197">
        <ele>131</ele>
        <time>2012-09-16T16:08:29Z</time>
      </trkpt>
      <trkpt lat="43.61894" lon="6.97208">
        <ele>130</ele>
        <time>2012-09-16T16:08:34Z</time>
      </trkpt>
      <trkpt lat="43.61872" lon="6.97222">
        <ele>130</ele>
        <time>2012-09-16T16:08:40Z</time>
      </trkpt>
      <trkpt lat="43.61858" lon="6.97234">
        <ele>129</ele>
        <time>2012-09-16T16:08:45Z</time>
      </trkpt>
      <trkpt lat="43.61836" lon="6.97253">
        <ele>128</ele>
        <time>2012-09-16T16:08:51Z</time>
      </trkpt>
      <trkpt lat="43.61818" lon="6.97266">
        <ele>128</ele>
        <time>2012-09-16T16:08:56Z</time>
      </trkpt>
      <trkpt lat="43.61798" lon="6.97282">
        <ele>128</ele>
        <time>2012-09-16T16:09:01Z</time>
      </trkpt>
      <trkpt lat="43.61777" lon="6.97299">
        <ele>127</ele>
        <time>2012-09-16T16:09:06Z</time>
      </trkpt>
      <trkpt lat="43.61752" lon="6.97304">
        <ele>127</ele>
        <time>2012-09-16T16:09:11Z</time>
      </trkpt>
      <trkpt lat="43.61731" lon="6.97317">
        <ele>127</ele>
        <time>2012-09-16T16:09:16Z</time>
      </trkpt>
      <trkpt lat="43.61707" lon="6.97334">
        <ele>127</ele>
        <time>2012-09-16T16:09:22Z</time>
      </trkpt>
      <trkpt lat="43.61692" lon="6.97323">
        <ele>126</ele>
        <time>2012-09-16T16:09:27Z</time>
      </trkpt>
      <trkpt lat="43.61669" lon="6.97333">
        <ele>126</ele>
        <time>2012-09-16T16:09:33Z</time>
      </trkpt>
      <trkpt lat="43.61648" lon="6.97328">
        <ele>126</ele>
        <time>2012-09-16T16:09:38Z</time>
      </trkpt>
      <trkpt lat="43.61632" lon="6.97306">
        <ele>124</ele>
        <time>2012-09-16T16:09:43Z</time>
      </trkpt>
      <trkpt lat="43.61617" lon="6.97279">
        <ele>123</ele>
        <time>2012-09-16T16:09:48Z</time>
      </trkpt>
      <trkpt lat="43.61597" lon="6.97249">
        <ele>121</ele>
        <time>2012-09-16T16:09:54Z</time>
      </trkpt>
      <trkpt lat="43.61576" lon="6.9722">
        <ele>119</ele>
        <time>2012-09-16T16:09:59Z</time>
      </trkpt>
      <trkpt lat="43.61555" lon="6.97187">
        <ele>118</ele>
        <time>2012-09-16T16:10:04Z</time>
      </trkpt>
      <trkpt lat="43.61534" lon="6.97156">
        <ele>118</ele>
        <time>2012-09-16T16:10:09Z</time>
      </trkpt>
      <trkpt lat="43.61511" lon="6.97129">
        <ele>117</ele>
        <time>2012-09-16T16:10:14Z</time>
      </trkpt>
      <trkpt lat="43.61488" lon="6.97102">
        <ele>116</ele>
        <time>2012-09-16T16:10:19Z</time>
      </trkpt>
      <trkpt lat="43.61465" lon="6.97078">
        <ele>115</ele>
        <time>2012-09-16T16:10:24Z</time>
      </trkpt>
      <trkpt lat="43.61444" lon="6.97056">
        <ele>115</ele>
        <time>2012-09-16T16:10:29Z</time>
      </trkpt>
      <trkpt lat="43.61423" lon="6.97034">
        <ele>114</ele>
        <time>2012-09-16T16:10:34Z</time>
      </trkpt>
      <trkpt lat="43.61404" lon="6.97015">
        <ele>113</ele>
        <time>2012-09-16T16:10:39Z</time>
      </trkpt>
      <trkpt lat="43.61386" lon="6.96995">
        <ele>113</ele>
        <time>2012-09-16T16:10:44Z</time>
      </trkpt>
      <trkpt lat="43.61367" lon="6.96978">
        <ele>113</ele>
        <time>2012-09-16T16:10:49Z</time>
      </trkpt>
      <trkpt lat="43.61349" lon="6.96958">
        <ele>112</ele>
        <time>2012-09-16T16:10:54Z</time>
      </trkpt>
      <trkpt lat="43.61339" lon="6.96925">
        <ele>111</ele>
        <time>2012-09-16T16:10:59Z</time>
      </trkpt>
      <trkpt lat="43.61316" lon="6.96922">
        <ele>110</ele>
        <time>2012-09-16T16:11:04Z</time>
      </trkpt>
      <trkpt lat="43.61296" lon="6.96906">
        <ele>110</ele>
        <time>2012-09-16T16:11:09Z</time>
      </trkpt>
      <trkpt lat="43.6128" lon="6.96888">
        <ele>110</ele>
        <time>2012-09-16T16:11:14Z</time>
      </trkpt>
      <trkpt lat="43.61264" lon="6.9687">
        <ele>110</ele>
        <time>2012-09-16T16:11:19Z</time>
      </trkpt>
      <trkpt lat="43.61248" lon="6.96852">
        <ele>110</ele>
        <time>2012-09-16T16:11:24Z</time>
      </trkpt>
      <trkpt lat="43.61235" lon="6.96833">
        <ele>111</ele>
        <time>2012-09-16T16:11:29Z</time>
      </trkpt>
      <trkpt lat="43.61234" lon="6.96809">
        <ele>112</ele>
        <time>2012-09-16T16:11:34Z</time>
      </trkpt>
      <trkpt lat="43.61233" lon="6.96779">
        <ele>112</ele>
        <time>2012-09-16T16:11:39Z</time>
      </trkpt>
      <trkpt lat="43.61224" lon="6.9675">
        <ele>112</ele>
        <time>2012-09-16T16:11:44Z</time>
      </trkpt>
      <trkpt lat="43.61206" lon="6.9673">
        <ele>112</ele>
        <time>2012-09-16T16:11:49Z</time>
      </trkpt>
      <trkpt lat="43.61187" lon="6.96723">
        <ele>113</ele>
        <time>2012-09-16T16:11:54Z</time>
      </trkpt>
      <trkpt lat="43.61166" lon="6.96726">
        <ele>114</ele>
        <time>2012-09-16T16:11:59Z</time>
      </trkpt>
      <trkpt lat="43.61143" lon="6.9674">
        <ele>114</ele>
        <time>2012-09-16T16:12:05Z</time>
      </trkpt>
      <trkpt lat="43.61125" lon="6.96727">
        <ele>115</ele>
        <time>2012-09-16T16:12:10Z</time>
      </trkpt>
      <trkpt lat="43.61109" lon="6.96712">
        <ele>115</ele>
        <time>2012-09-16T16:12:15Z</time>
      </trkpt>
      <trkpt lat="43.61094" lon="6.96696">
        <ele>117</ele>
        <time>2012-09-16T16:12:20Z</time>
      </trkpt>
      <trkpt lat="43.61079" lon="6.96682">
        <ele>119</ele>
        <time>2012-09-16T16:12:25Z</time>
      </trkpt>
      <trkpt lat="43.61064" lon="6.96667">
        <ele>120</ele>
        <time>2012-09-16T16:12:30Z</time>
      </trkpt>
      <trkpt lat="43.6105" lon="6.96653">
        <ele>121</ele>
        <time>2012-09-16T16:12:35Z</time>
      </trkpt>
      <trkpt lat="43.61034" lon="6.96637">
        <ele>122</ele>
        <time>2012-09-16T16:12:40Z</time>
      </trkpt>
      <trkpt lat="43.61017" lon="6.96619">
        <ele>122</ele>
        <time>2012-09-16T16:12:45Z</time>
      </trkpt>
      <trkpt lat="43.60999" lon="6.966">
        <ele>123</ele>
        <time>2012-09-16T16:12:50Z</time>
      </trkpt>
      <trkpt lat="43.60981" lon="6.96578">
        <ele>123</ele>
        <time>2012-09-16T16:12:55Z</time>
      </trkpt>
      <trkpt lat="43.60962" lon="6.9656">
        <ele>123</ele>
        <time>2012-09-16T16:13:00Z</time>
      </trkpt>
      <trkpt lat="43.60942" lon="6.96541">
        <ele>123</ele>
        <time>2012-09-16T16:13:05Z</time>
      </trkpt>
      <trkpt lat="43.60923" lon="6.96523">
        <ele>123</ele>
        <time>2012-09-16T16:13:10Z</time>
      </trkpt>
      <trkpt lat="43.60904" lon="6.96504">
        <ele>123</ele>
        <time>2012-09-16T16:13:15Z</time>
      </trkpt>
      <trkpt lat="43.60887" lon="6.96487">
        <ele>123</ele>
        <time>2012-09-16T16:13:20Z</time>
      </trkpt>
      <trkpt lat="43.60873" lon="6.96473">
        <ele>123</ele>
        <time>2012-09-16T16:13:25Z</time>
      </trkpt>
      <trkpt lat="43.60857" lon="6.96456">
        <ele>123</ele>
        <time>2012-09-16T16:13:30Z</time>
      </trkpt>
      <trkpt lat="43.60839" lon="6.96437">
        <ele>123</ele>
        <time>2012-09-16T16:13:35Z</time>
      </trkpt>
      <trkpt lat="43.6082" lon="6.96418">
        <ele>123</ele>
        <time>2012-09-16T16:13:40Z</time>
      </trkpt>
      <trkpt lat="43.60801" lon="6.964">
        <ele>123</ele>
        <time>2012-09-16T16:13:45Z</time>
      </trkpt>
      <trkpt lat="43.60782" lon="6.96382">
        <ele>123</ele>
        <time>2012-09-16T16:13:50Z</time>
      </trkpt>
      <trkpt lat="43.60764" lon="6.96363">
        <ele>123</ele>
        <time>2012-09-16T16:13:55Z</time>
      </trkpt>
      <trkpt lat="43.60748" lon="6.96348">
        <ele>123</ele>
        <time>2012-09-16T16:14:00Z</time>
      </trkpt>
      <trkpt lat="43.60731" lon="6.96332">
        <ele>123</ele>
        <time>2012-09-16T16:14:05Z</time>
      </trkpt>
      <trkpt lat="43.60715" lon="6.96317">
        <ele>124</ele>
        <time>2012-09-16T16:14:10Z</time>
      </trkpt>
      <trkpt lat="43.60701" lon="6.96304">
        <ele>125</ele>
        <time>2012-09-16T16:14:15Z</time>
      </trkpt>
      <trkpt lat="43.60685" lon="6.96287">
        <ele>125</ele>
        <time>2012-09-16T16:14:20Z</time>
      </trkpt>
      <trkpt lat="43.60664" lon="6.96267">
        <ele>125</ele>
        <time>2012-09-16T16:14:25Z</time>
      </trkpt>
      <trkpt lat="43.60642" lon="6.96244">
        <ele>125</ele>
        <time>2012-09-16T16:14:30Z</time>
      </trkpt>
      <trkpt lat="43.60623" lon="6.96224">
        <ele>125</ele>
        <time>2012-09-16T16:14:35Z</time>
      </trkpt>
      <trkpt lat="43.60604" lon="6.96205">
        <ele>125</ele>
        <time>2012-09-16T16:14:40Z</time>
      </trkpt>
      <trkpt lat="43.60584" lon="6.96187">
        <ele>125</ele>
        <time>2012-09-16T16:14:45Z</time>
      </trkpt>
      <trkpt lat="43.60567" lon="6.96169">
        <ele>127</ele>
        <time>2012-09-16T16:14:50Z</time>
      </trkpt>
      <trkpt lat="43.6055" lon="6.96152">
        <ele>129</ele>
        <time>2012-09-16T16:14:55Z</time>
      </trkpt>
      <trkpt lat="43.60532" lon="6.96136">
        <ele>130</ele>
        <time>2012-09-16T16:15:00Z</time>
      </trkpt>
      <trkpt lat="43.60516" lon="6.96121">
        <ele>132</ele>
        <time>2012-09-16T16:15:05Z</time>
      </trkpt>
      <trkpt lat="43.605" lon="6.96107">
        <ele>133</ele>
        <time>2012-09-16T16:15:10Z</time>
      </trkpt>
      <trkpt lat="43.60485" lon="6.96094">
        <ele>136</ele>
        <time>2012-09-16T16:15:15Z</time>
      </trkpt>
      <trkpt lat="43.60472" lon="6.96082">
        <ele>137</ele>
        <time>2012-09-16T16:15:20Z</time>
      </trkpt>
      <trkpt lat="43.60465" lon="6.96065">
        <ele>138</ele>
        <time>2012-09-16T16:15:25Z</time>
      </trkpt>
      <trkpt lat="43.60453" lon="6.96051">
        <ele>139</ele>
        <time>2012-09-16T16:15:30Z</time>
      </trkpt>
      <trkpt lat="43.60436" lon="6.96049">
        <ele>139</ele>
        <time>2012-09-16T16:15:35Z</time>
      </trkpt>
      <trkpt lat="43.60422" lon="6.96042">
        <ele>139</ele>
        <time>2012-09-16T16:15:40Z</time>
      </trkpt>
      <trkpt lat="43.60405" lon="6.96031">
        <ele>139</ele>
        <time>2012-09-16T16:15:45Z</time>
      </trkpt>
      <trkpt lat="43.60387" lon="6.9602">
        <ele>139</ele>
        <time>2012-09-16T16:15:50Z</time>
      </trkpt>
      <trkpt lat="43.60369" lon="6.96007">
        <ele>140</ele>
        <time>2012-09-16T16:15:55Z</time>
      </trkpt>
      <trkpt lat="43.60349" lon="6.95995">
        <ele>140</ele>
        <time>2012-09-16T16:16:00Z</time>
      </trkpt>
      <trkpt lat="43.60328" lon="6.95983">
        <ele>140</ele>
        <time>2012-09-16T16:16:05Z</time>
      </trkpt>
      <trkpt lat="43.60306" lon="6.95966">
        <ele>140</ele>
        <time>2012-09-16T16:16:10Z</time>
      </trkpt>
      <trkpt lat="43.60284" lon="6.95951">
        <ele>140</ele>
        <time>2012-09-16T16:16:15Z</time>
      </trkpt>
      <trkpt lat="43.60262" lon="6.95935">
        <ele>140</ele>
        <time>2012-09-16T16:16:20Z</time>
      </trkpt>
      <trkpt lat="43.6024" lon="6.95921">
        <ele>140</ele>
        <time>2012-09-16T16:16:25Z</time>
      </trkpt>
      <trkpt lat="43.60217" lon="6.95906">
        <ele>140</ele>
        <time>2012-09-16T16:16:30Z</time>
      </trkpt>
      <trkpt lat="43.60196" lon="6.95892">
        <ele>140</ele>
        <time>2012-09-16T16:16:35Z</time>
      </trkpt>
      <trkpt lat="43.60175" lon="6.95879">
        <ele>140</ele>
        <time>2012-09-16T16:16:40Z</time>
      </trkpt>
      <trkpt lat="43.60154" lon="6.95864">
        <ele>141</ele>
        <time>2012-09-16T16:16:45Z</time>
      </trkpt>
      <trkpt lat="43.60131" lon="6.95851">
        <ele>142</ele>
        <time>2012-09-16T16:16:50Z</time>
      </trkpt>
      <trkpt lat="43.60106" lon="6.95834">
        <ele>142</ele>
        <time>2012-09-16T16:16:55Z</time>
      </trkpt>
      <trkpt lat="43.60083" lon="6.95819">
        <ele>142</ele>
        <time>2012-09-16T16:17:00Z</time>
      </trkpt>
      <trkpt lat="43.6006" lon="6.95803">
        <ele>142</ele>
        <time>2012-09-16T16:17:05Z</time>
      </trkpt>
      <trkpt lat="43.60036" lon="6.95787">
        <ele>142</ele>
        <time>2012-09-16T16:17:10Z</time>
      </trkpt>
      <trkpt lat="43.60012" lon="6.95771">
        <ele>142</ele>
        <time>2012-09-16T16:17:15Z</time>
      </trkpt>
      <trkpt lat="43.59989" lon="6.95755">
        <ele>142</ele>
        <time>2012-09-16T16:17:20Z</time>
      </trkpt>
      <trkpt lat="43.59967" lon="6.95741">
        <ele>142</ele>
        <time>2012-09-16T16:17:25Z</time>
      </trkpt>
      <trkpt lat="43.59948" lon="6.95728">
        <ele>142</ele>
        <time>2012-09-16T16:17:30Z</time>
      </trkpt>
      <trkpt lat="43.59929" lon="6.95716">
        <ele>144</ele>
        <time>2012-09-16T16:17:35Z</time>
      </trkpt>
      <trkpt lat="43.59908" lon="6.95709">
        <ele>146</ele>
        <time>2012-09-16T16:17:40Z</time>
      </trkpt>
      <trkpt lat="43.59891" lon="6.95697">
        <ele>148</ele>
        <time>2012-09-16T16:17:45Z</time>
      </trkpt>
      <trkpt lat="43.59875" lon="6.95689">
        <ele>150</ele>
        <time>2012-09-16T16:17:50Z</time>
      </trkpt>
      <trkpt lat="43.59864" lon="6.95696">
        <ele>151</ele>
        <time>2012-09-16T16:17:55Z</time>
      </trkpt>
      <trkpt lat="43.59858" lon="6.95679">
        <ele>152</ele>
        <time>2012-09-16T16:18:00Z</time>
      </trkpt>
      <trkpt lat="43.59853" lon="6.95667">
        <ele>152</ele>
        <time>2012-09-16T16:18:05Z</time>
      </trkpt>
      <trkpt lat="43.59843" lon="6.95665">
        <ele>152</ele>
        <time>2012-09-16T16:18:10Z</time>
      </trkpt>
      <trkpt lat="43.59826" lon="6.95676">
        <ele>152</ele>
        <time>2012-09-16T16:18:15Z</time>
      </trkpt>
      <trkpt lat="43.59814" lon="6.95677">
        <ele>152</ele>
        <time>2012-09-16T16:18:20Z</time>
      </trkpt>
      <trkpt lat="43.59812" lon="6.95661">
        <ele>152</ele>
        <time>2012-09-16T16:18:25Z</time>
      </trkpt>
      <trkpt lat="43.59806" lon="6.9564">
        <ele>151</ele>
        <time>2012-09-16T16:18:30Z</time>
      </trkpt>
      <trkpt lat="43.59791" lon="6.95602">
        <ele>148</ele>
        <time>2012-09-16T16:18:35Z</time>
      </trkpt>
      <trkpt lat="43.59767" lon="6.95577">
        <ele>144</ele>
        <time>2012-09-16T16:18:40Z</time>
      </trkpt>
      <trkpt lat="43.59735" lon="6.95557">
        <ele>143</ele>
        <time>2012-09-16T16:18:45Z</time>
      </trkpt>
      <trkpt lat="43.59702" lon="6.95545">
        <ele>143</ele>
        <time>2012-09-16T16:18:50Z</time>
      </trkpt>
      <trkpt lat="43.59679" lon="6.95527">
        <ele>143</ele>
        <time>2012-09-16T16:18:55Z</time>
      </trkpt>
      <trkpt lat="43.59661" lon="6.95524">
        <ele>143</ele>
        <time>2012-09-16T16:19:00Z</time>
      </trkpt>
      <trkpt lat="43.59641" lon="6.95557">
        <ele>142</ele>
        <time>2012-09-16T16:19:05Z</time>
      </trkpt>
      <trkpt lat="43.59613" lon="6.95592">
        <ele>141</ele>
        <time>2012-09-16T16:19:10Z</time>
      </trkpt>
      <trkpt lat="43.59583" lon="6.95606">
        <ele>141</ele>
        <time>2012-09-16T16:19:15Z</time>
      </trkpt>
      <trkpt lat="43.59557" lon="6.95618">
        <ele>141</ele>
        <time>2012-09-16T16:19:20Z</time>
      </trkpt>
      <trkpt lat="43.5953" lon="6.95627">
        <ele>141</ele>
        <time>2012-09-16T16:19:25Z</time>
      </trkpt>
      <trkpt lat="43.59504" lon="6.95634">
        <ele>140</ele>
        <time>2012-09-16T16:19:30Z</time>
      </trkpt>
      <trkpt lat="43.59487" lon="6.95604">
        <ele>138</ele>
        <time>2012-09-16T16:19:35Z</time>
      </trkpt>
      <trkpt lat="43.59468" lon="6.95565">
        <ele>134</ele>
        <time>2012-09-16T16:19:40Z</time>
      </trkpt>
      <trkpt lat="43.59434" lon="6.95552">
        <ele>131</ele>
        <time>2012-09-16T16:19:45Z</time>
      </trkpt>
      <trkpt lat="43.594" lon="6.95543">
        <ele>129</ele>
        <time>2012-09-16T16:19:50Z</time>
      </trkpt>
      <trkpt lat="43.59379" lon="6.95577">
        <ele>128</ele>
        <time>2012-09-16T16:19:55Z</time>
      </trkpt>
      <trkpt lat="43.59364" lon="6.95609">
        <ele>128</ele>
        <time>2012-09-16T16:20:00Z</time>
      </trkpt>
      <trkpt lat="43.59357" lon="6.95632">
        <ele>128</ele>
        <time>2012-09-16T16:20:05Z</time>
      </trkpt>
      <trkpt lat="43.59342" lon="6.95621">
        <ele>128</ele>
        <time>2012-09-16T16:20:10Z</time>
      </trkpt>
      <trkpt lat="43.59335" lon="6.95612">
        <ele>128</ele>
        <time>2012-09-16T16:20:15Z</time>
      </trkpt>
      <trkpt lat="43.59336" lon="6.95614">
        <ele>129</ele>
        <time>2012-09-16T16:20:18Z</time>
      </trkpt>
    </trkseg>
  </trk>
</gpx>